GEFSSE_500_meanwind_000.txt.gz
Wind_Speed
17 17 16 15 15 15 15 14 15 14 14 17 17 16 14 14 15 14 14 14 13 14 13 13 14 14 14 16 16 15 14 16 18 21 23 24 24 23 23 23 23 23 22
17 17 17 16 15 15 15 14 15 15 15 16 18 18 16 15 15 14 13 13 14 15 15 15 17 17 16 17 18 17 18 20 22 25 27 27 26 23 21 19 18 17 16
16 15 15 15 14 14 15 15 15 15 15 16 18 19 18 16 15 14 14 14 16 16 16 16 18 18 17 18 19 19 20 20 23 25 24 22 21 20 18 16 14 13 13
14 12 11 12 13 14 15 15 14 13 13 14 17 20 19 17 15 16 17 16 18 18 18 17 17 18 19 19 19 20 20 19 21 22 21 18 16 16 16 15 14 13 12
11 9 10 12 13 14 15 15 14 12 12 14 17 20 20 19 18 18 18 18 20 21 21 19 19 19 21 20 20 21 19 20 20 21 20 16 15 15 15 15 15 14 13
11 11 11 12 13 15 16 16 16 14 12 12 16 19 20 20 20 20 20 21 21 22 23 21 20 19 20 20 22 23 23 22 22 22 21 19 18 18 18 19 18 18 18
12 12 12 13 13 14 16 17 17 16 15 14 14 17 20 21 21 23 23 24 23 22 21 21 20 19 20 20 22 24 25 26 26 26 24 24 24 25 25 25 25 25 25
11 12 13 13 13 14 16 17 18 18 18 18 17 17 18 20 22 24 25 24 23 21 20 20 20 20 21 22 24 26 28 30 30 30 29 29 30 31 32 32 31 32 32
12 13 13 13 14 14 16 17 18 19 20 22 22 21 21 23 23 23 24 24 24 23 21 22 22 24 26 27 29 31 33 34 36 36 35 35 35 36 37 38 38 39 40
14 14 13 14 14 13 14 16 18 19 21 23 25 26 26 26 26 25 25 25 25 25 25 26 28 30 32 33 34 35 36 38 39 41 42 43 43 43 42 42 42 42 42
15 14 13 12 11 12 12 15 17 19 21 23 25 28 29 29 28 27 27 28 28 29 30 31 32 35 37 38 38 40 41 42 44 46 48 48 49 48 47 44 43 42 42
16 15 13 10 10 11 13 15 18 20 22 24 25 26 28 28 28 28 28 29 29 30 33 35 37 38 40 42 44 46 47 48 49 50 50 51 51 50 48 46 45 45 44
19 17 13 12 13 14 17 19 21 23 23 23 24 24 24 24 25 26 26 28 30 32 36 38 40 41 44 46 48 48 46 44 44 45 46 48 48 48 47 47 47 47 46
21 18 16 15 15 16 19 22 24 26 26 23 21 21 20 21 21 24 26 28 31 34 38 41 43 44 46 46 44 42 40 39 40 41 42 44 45 46 47 47 48 48 48
22 20 19 20 20 19 19 21 24 26 26 23 21 22 23 23 25 28 30 33 35 36 39 40 40 40 38 38 37 38 37 38 39 40 41 42 43 45 46 45 46 46 47
23 22 21 22 25 26 24 25 26 28 27 25 24 25 27 28 30 32 34 36 36 35 35 35 35 35 36 36 37 39 39 40 41 43 44 45 47 49 51 51 51 52 52
22 22 23 24 25 25 25 25 27 29 29 28 28 29 30 33 34 35 36 35 35 34 34 34 34 35 36 38 39 41 42 44 47 48 50 51 51 52 53 54 55 55 55
21 23 24 25 26 27 26 25 27 27 28 30 32 34 35 37 37 37 36 35 34 35 35 36 38 39 41 42 43 45 47 48 50 51 52 53 54 54 54 54 56 57 57
22 23 24 26 27 29 29 27 27 28 28 31 35 37 38 38 37 35 35 34 35 37 38 40 42 44 46 47 48 49 50 50 50 51 52 55 57 59 60 60 60 60 61
25 26 27 27 27 28 28 26 27 30 30 32 35 35 35 35 35 35 35 36 38 40 42 44 46 48 50 50 50 50 50 52 54 56 58 61 63 65 67 68 67 66 66
29 30 28 25 25 27 27 27 29 31 32 33 33 32 33 34 35 37 39 40 42 44 46 48 48 48 49 51 53 54 56 59 61 65 67 69 70 72 74 74 76 76 77
30 30 25 23 24 26 27 28 29 31 33 34 33 34 35 37 38 40 41 42 44 46 47 47 48 49 50 53 57 60 62 64 66 70 73 75 77 78 79 79 80 82 83
27 24 24 24 25 27 27 29 29 31 31 33 34 36 38 38 39 40 42 44 44 45 46 48 49 52 54 58 62 66 70 73 75 75 78 80 83 84 85 85 85 87 89
25 25 26 28 28 27 28 30 32 32 33 34 36 37 38 39 41 42 43 44 45 47 49 52 55 58 61 65 69 73 76 80 83 85 87 90 92 93 93 93 93 93 95
26 27 28 29 29 29 31 33 34 34 35 36 36 37 38 39 41 43 45 46 49 51 54 58 62 66 69 72 75 79 82 84 87 91 93 96 98 99 98 98 99 99 100
26 27 29 30 30 31 33 33 34 35 36 36 37 38 39 41 43 46 48 51 54 56 60 64 67 70 72 75 79 83 86 89 92 94 96 98 99 100 101 100 101 103 104

GEFSSE_500_meanwind_006.txt.gz
Wind_Speed
21 21 21 21 21 21 21 20 17 17 17 17 19 19 19 19 20 18 17 17 17 17 18 16 15 14 13 13 13 14 14 14 15 15 15 17 19 21 22 22 19 18 18
22 21 21 22 21 19 18 17 16 16 15 15 17 18 18 19 20 18 17 16 16 17 19 18 17 16 15 16 15 15 15 15 15 16 15 16 17 18 18 16 14 13 13
22 21 19 19 17 16 16 15 15 16 14 13 14 16 17 18 18 17 17 16 15 17 17 17 18 18 18 18 17 16 16 16 16 16 16 16 17 16 16 16 15 14 13
22 20 18 17 15 14 15 16 15 16 15 13 13 14 14 16 17 16 17 16 17 18 18 18 20 20 21 21 19 18 18 17 15 16 17 17 18 17 17 17 17 17 16
22 19 18 15 14 13 15 15 15 16 15 14 13 13 13 15 16 17 17 18 19 19 20 20 20 21 22 22 22 21 20 18 16 16 18 19 20 19 20 20 20 20 20
22 18 17 14 13 14 14 13 13 15 15 15 14 14 13 14 17 19 20 20 21 21 22 23 22 22 22 22 22 23 22 20 18 18 20 22 24 24 24 24 24 24 25
21 17 16 13 13 14 13 12 12 13 14 14 15 15 15 15 16 19 20 22 22 23 24 23 23 23 22 21 22 22 21 22 22 22 24 26 29 30 30 29 29 29 30
19 16 14 12 13 14 13 12 13 13 13 13 15 16 17 18 19 19 20 21 22 21 21 21 22 22 21 21 23 23 23 24 26 27 28 30 32 35 35 35 34 34 35
18 15 13 13 14 14 12 12 12 12 12 13 14 16 17 19 21 22 23 23 23 22 22 23 23 24 25 26 27 28 29 30 32 34 35 36 37 38 39 41 41 41 42
20 16 14 14 15 14 12 12 11 10 11 12 14 15 17 19 21 22 24 25 25 25 26 26 27 28 29 30 31 32 34 35 37 38 40 41 42 42 43 44 44 45 46
22 19 17 16 16 15 13 12 11 12 12 14 15 16 17 18 20 21 22 24 25 27 28 28 29 30 31 32 33 35 37 38 40 41 43 45 45 44 42 41 41 41 42
22 21 20 19 18 16 15 13 13 15 16 17 18 18 19 19 20 20 21 22 23 25 26 27 28 29 31 34 35 37 40 42 43 44 45 45 42 39 37 36 36 36 37
24 23 22 20 19 17 16 15 16 18 20 22 22 22 21 21 21 21 22 22 24 25 27 28 30 32 34 36 38 40 42 43 42 39 37 36 36 36 35 34 34 35 36
24 23 22 21 21 19 18 17 18 21 23 25 27 27 26 25 24 24 25 25 27 28 30 32 34 36 37 38 39 39 39 37 35 35 34 35 36 37 38 38 39 39 40
24 22 22 22 21 22 22 22 23 26 28 29 30 31 31 30 28 27 28 29 31 32 33 34 36 37 38 38 37 36 35 35 35 35 35 36 37 39 40 41 42 43 43
24 22 22 22 22 22 23 24 26 29 31 31 32 33 33 33 32 31 32 33 34 35 36 36 36 36 36 36 35 35 35 35 36 37 38 39 39 40 40 41 42 44 45
24 23 22 23 24 25 26 28 30 32 33 33 32 33 33 33 33 34 35 36 36 35 34 33 32 32 33 33 34 34 35 36 37 39 40 40 40 40 41 43 45 47 49
25 23 23 24 25 26 27 30 32 33 34 34 32 31 31 32 33 35 36 34 32 32 31 31 30 31 32 33 34 34 34 36 38 39 41 42 42 44 46 48 50 51 53
25 23 23 23 24 26 28 30 33 35 35 33 32 32 32 34 35 36 35 33 32 32 32 32 32 33 34 35 35 36 37 38 40 42 43 45 47 50 52 54 56 58 59
26 23 23 23 25 28 30 33 35 35 33 32 32 33 34 35 36 38 38 37 36 35 34 34 34 35 37 38 39 39 41 42 44 46 48 51 53 56 58 61 63 65 67
28 25 25 26 28 31 33 35 35 33 32 33 34 35 35 36 38 39 39 38 37 37 37 37 37 39 41 42 43 44 46 48 50 53 55 57 60 61 64 66 68 70 72
28 27 27 29 30 32 34 35 33 32 33 35 36 36 37 39 40 40 38 37 38 39 39 40 42 43 45 47 49 51 52 53 56 58 60 61 63 64 66 69 71 74 77
29 28 29 30 32 35 36 34 33 34 36 36 36 38 40 41 40 38 38 39 40 41 42 44 45 47 49 52 55 59 62 63 62 61 62 65 67 70 73 76 78 80 82
29 29 30 31 33 35 33 33 34 35 36 37 39 40 41 41 40 40 40 41 42 43 45 47 49 52 55 58 61 64 67 69 72 71 70 71 74 76 78 81 83 86 88
29 29 30 31 32 32 33 34 36 37 38 39 40 41 40 40 40 40 41 42 44 46 49 51 54 57 60 63 66 68 69 72 74 76 77 78 80 82 84 87 89 91 93
29 30 31 32 32 33 35 37 38 39 39 39 40 41 40 39 39 40 42 44 47 50 52 55 58 61 64 67 69 71 73 75 78 80 82 83 85 87 90 92 95 97 99

GEFSSE_500_meanwind_012.txt.gz
Wind_Speed
15 16 17 17 17 16 17 16 14 12 11 11 11 12 13 13 14 14 15 15 15 16 16 17 18 18 18 18 18 20 21 20 19 18 17 16 15 14 12 10 10 10 10
18 18 19 18 17 16 16 15 14 12 11 11 10 11 12 12 13 15 16 16 16 15 15 16 16 17 19 19 20 22 23 24 22 21 20 19 18 16 15 13 12 11 10
19 19 20 19 17 16 16 15 13 13 12 11 11 11 11 12 14 17 18 18 17 16 15 16 16 17 18 20 21 23 24 25 24 23 22 21 20 19 18 17 16 15 14
19 19 19 18 17 16 15 14 13 13 13 12 12 11 11 11 13 16 19 19 18 17 17 18 18 19 19 20 22 24 25 26 26 26 25 24 23 22 21 20 20 19 18
20 20 19 18 18 17 15 13 12 13 13 12 12 12 13 12 12 15 18 19 20 20 20 20 21 21 22 23 24 25 26 28 28 29 29 27 26 25 25 24 23 23 23
21 20 19 19 18 17 15 13 12 13 13 12 12 13 14 15 14 14 15 18 21 23 23 23 24 25 26 27 27 27 27 29 30 30 30 29 28 29 29 28 28 28 28
20 20 20 19 19 18 16 13 13 14 13 13 13 14 15 16 17 17 17 18 19 21 23 24 25 26 27 28 29 29 28 28 29 29 28 28 30 31 32 32 32 33 33
20 19 20 20 20 20 17 15 14 14 13 13 13 14 15 16 17 19 20 21 22 23 24 25 26 26 27 28 28 28 28 28 29 29 30 30 31 33 34 35 36 37 38
19 18 19 21 21 20 19 16 16 15 13 12 12 12 12 13 14 16 18 20 22 24 26 27 28 28 29 29 29 30 30 31 32 33 34 35 36 37 38 39 40 41 42
19 18 20 22 22 21 20 18 18 16 14 13 13 13 12 13 13 14 15 17 19 21 23 24 26 28 30 30 31 32 32 33 34 35 36 38 39 40 41 42 43 44 44
19 19 20 24 24 23 23 20 19 18 16 16 16 15 15 17 17 17 18 18 19 20 21 22 23 25 28 30 31 32 33 34 35 36 38 39 41 42 43 43 42 42 41
21 21 21 25 26 25 24 22 22 20 19 18 19 19 20 22 23 23 23 23 23 23 24 24 25 26 28 30 31 32 33 35 36 38 39 40 40 40 39 38 37 35 34
22 22 22 25 27 27 26 24 23 22 21 21 22 23 25 26 28 29 29 29 29 28 28 29 29 30 31 33 34 35 36 37 38 38 38 38 38 37 36 35 35 35 35
24 23 23 24 27 28 27 26 24 24 24 23 24 25 27 29 30 32 32 32 32 32 32 33 34 34 35 36 37 38 39 39 38 37 37 36 35 36 36 37 38 39 39
25 25 24 24 26 27 27 28 27 27 27 26 26 27 29 30 32 33 34 33 33 32 32 34 35 36 36 35 35 35 35 35 35 34 34 35 36 37 38 40 41 42 42
25 26 26 26 26 25 25 26 27 28 29 28 28 29 30 30 31 30 30 30 30 31 32 33 35 35 35 34 34 34 34 34 35 36 36 37 38 39 40 41 42 43 44
25 26 27 28 27 25 24 25 26 28 28 28 29 29 29 29 28 27 26 28 29 30 31 33 35 36 35 35 35 35 36 36 37 38 39 40 41 42 44 45 46 47 48
25 26 27 28 27 25 24 24 25 26 27 27 28 28 28 27 26 26 27 29 31 32 34 36 37 37 36 36 36 37 38 39 40 41 42 43 45 46 47 49 50 51 53
25 26 27 26 25 24 23 23 24 24 25 26 27 29 28 27 26 27 30 32 34 35 37 40 40 39 37 37 37 39 39 40 41 43 44 46 48 50 52 54 56 58 60
27 27 27 26 24 23 23 23 23 24 25 27 29 30 28 27 28 31 33 35 37 38 40 42 42 40 39 38 38 39 41 42 44 46 48 50 53 55 58 60 62 64 66
28 28 27 25 24 25 24 23 23 25 27 29 30 30 29 29 31 34 36 38 39 41 42 43 42 42 41 39 39 40 43 46 47 50 53 56 58 61 64 66 68 69 70
28 28 28 26 26 26 25 25 26 27 28 30 29 29 29 31 34 37 39 41 42 43 43 42 40 40 41 42 43 44 46 48 52 55 57 60 63 65 67 69 70 72 73
29 29 29 27 27 27 27 28 28 28 28 28 27 28 31 34 37 39 41 42 43 42 40 39 40 41 43 46 48 51 53 54 55 56 59 62 65 67 68 70 71 73 74
29 30 29 28 28 29 30 30 30 29 29 28 29 31 34 37 39 41 41 42 41 39 39 41 43 45 47 50 54 57 61 63 65 65 63 63 65 67 68 70 72 73 75
29 29 29 28 29 30 31 31 31 30 30 31 33 35 37 39 40 41 41 40 40 41 42 44 47 49 52 55 58 61 64 67 71 74 73 71 68 67 68 70 74 78 81
29 29 29 29 30 31 32 32 31 31 32 34 36 38 39 40 40 40 40 40 42 44 45 47 50 54 57 60 62 64 66 68 70 72 74 75 74 73 73 76 81 86 91

GEFSSE_500_meanwind_018.txt.gz
Wind_Speed
15 14 13 13 13 14 15 16 16 16 15 15 13 12 11 11 12 12 13 14 16 16 17 18 20 22 23 24 23 22 22 22 22 23 23 23 23 23 23 23 22 20 18
17 17 16 15 15 15 16 16 17 16 15 14 13 12 11 11 12 13 13 15 16 17 18 19 21 22 23 23 24 24 24 23 24 25 25 25 25 25 26 26 24 22 20
19 18 18 18 17 17 17 17 16 15 14 13 12 12 12 12 12 12 13 15 17 18 19 20 21 21 21 22 23 24 24 23 24 26 27 28 28 28 28 28 26 25 24
19 19 19 19 19 18 18 18 16 15 14 13 12 12 12 12 12 12 12 14 17 18 19 20 21 21 21 21 22 23 23 24 25 27 29 29 30 30 30 30 28 28 27
19 19 20 20 20 19 19 18 17 15 13 13 12 12 12 12 12 12 13 13 15 17 19 20 21 21 22 22 23 24 26 27 28 29 30 30 30 31 32 32 31 30 30
19 19 20 21 20 20 18 18 18 16 14 13 13 12 12 12 12 12 13 15 15 16 17 19 21 22 24 25 26 27 28 29 29 30 31 31 31 31 32 32 32 32 32
20 20 21 21 20 19 18 17 18 17 15 14 13 13 13 12 12 13 14 15 17 19 20 21 22 23 25 26 27 29 29 30 30 30 30 31 31 32 32 32 32 33 33
20 20 21 21 20 19 18 18 19 19 17 15 14 13 13 12 11 12 13 14 16 18 19 21 24 26 28 29 30 31 32 32 32 32 33 33 33 33 34 34 34 35 35
19 19 19 19 19 19 19 19 20 20 18 17 15 14 14 13 11 11 12 13 14 15 17 19 21 23 25 27 28 29 31 32 33 34 35 35 35 36 36 36 37 37 38
19 19 18 18 19 20 20 21 21 21 20 19 17 16 16 15 14 14 15 16 18 19 20 22 24 24 25 26 27 27 28 30 31 32 34 35 36 36 37 37 38 38 40
20 19 19 18 18 19 20 22 22 22 22 21 20 19 18 18 17 18 19 21 23 25 27 28 29 29 29 29 29 29 30 31 32 33 34 35 36 37 38 39 39 40 41
22 21 20 20 20 19 20 22 24 24 24 23 22 21 20 20 20 21 23 25 28 30 32 34 35 35 35 34 34 34 34 34 35 35 36 37 38 39 40 40 41 41 41
25 24 23 23 23 22 22 23 24 25 25 25 25 24 22 22 23 24 26 28 30 32 33 34 34 34 34 35 36 36 35 36 36 37 37 37 38 38 38 39 39 39 39
27 26 26 26 25 25 25 23 23 25 26 27 27 26 24 24 25 26 28 30 31 31 31 30 29 28 29 30 32 33 34 36 37 37 37 36 36 37 37 37 38 39 39
27 27 28 28 28 28 27 24 23 23 24 26 27 26 25 25 27 28 29 30 30 30 28 26 26 26 27 28 30 32 33 35 37 37 37 37 37 37 37 38 38 39 40
27 28 30 30 31 30 28 26 23 21 22 25 26 26 27 27 28 29 30 30 30 29 27 26 27 28 30 32 33 34 36 38 39 39 38 38 38 38 39 39 40 41 42
27 29 30 31 32 31 29 27 23 21 22 24 25 26 26 27 28 29 29 29 30 29 28 28 29 32 34 36 38 39 41 42 41 40 39 39 39 40 40 41 42 43 44
28 29 30 31 31 31 30 27 24 23 24 25 26 26 26 27 28 29 29 31 31 30 29 30 32 34 37 39 41 43 43 43 41 40 39 39 40 40 41 43 44 46 47
31 30 30 31 31 31 29 27 25 26 27 27 26 26 27 27 28 30 31 32 31 31 31 32 35 37 39 41 43 43 41 40 40 39 39 40 41 43 44 46 48 49 51
33 31 31 30 31 30 29 27 27 28 29 28 27 27 28 29 30 31 32 32 32 32 33 35 37 39 40 42 42 41 39 39 39 40 41 43 44 46 48 50 52 54 56
35 33 32 32 31 30 29 28 29 30 30 29 28 28 29 30 31 32 31 31 31 32 34 37 39 40 41 42 41 40 40 40 41 42 44 46 49 51 54 56 57 59 60
37 35 34 34 33 31 31 30 30 30 30 30 30 30 30 31 32 32 32 32 33 35 37 39 41 42 43 42 40 40 41 42 44 46 48 51 54 57 59 61 62 64 65
39 37 35 36 35 33 32 31 31 30 30 31 31 32 32 33 34 35 35 36 37 39 41 42 43 44 44 43 43 43 44 44 45 46 51 55 58 60 62 64 65 66 67
39 38 37 37 36 34 32 32 32 31 31 32 33 34 35 36 37 38 39 40 41 42 43 45 45 45 45 45 46 47 49 51 53 52 53 57 60 62 64 65 66 66 68
40 39 38 38 36 33 32 32 32 31 31 33 34 36 37 39 40 42 42 43 44 45 46 46 46 46 46 47 49 51 54 57 60 62 61 62 63 64 65 66 66 68 70
40 39 38 38 36 34 32 32 32 32 32 33 35 37 39 41 42 43 44 45 46 46 47 47 46 47 48 50 53 56 59 61 64 67 67 67 66 66 67 68 68 70 73

GEFSSE_500_meanwind_024.txt.gz
Wind_Speed
14 14 14 15 15 15 14 13 11 11 11 10 9 9 9 9 9 9 9 9 11 12 13 14 15 15 16 16 17 18 19 20 22 22 22 22 22 23 23 23 23 23 23
16 16 16 16 16 16 16 14 13 12 12 11 10 9 9 9 10 10 10 11 12 13 14 15 16 16 17 18 18 18 19 20 21 21 22 22 23 24 24 24 25 25 26
18 18 18 18 18 18 18 16 15 14 14 13 11 11 10 10 11 11 12 12 13 14 15 16 17 18 19 20 19 19 19 19 20 20 21 22 23 24 25 26 26 27 28
19 19 19 19 19 19 19 18 16 16 15 14 13 12 11 11 12 12 12 13 13 14 15 17 18 19 20 21 20 20 20 20 20 21 22 23 24 25 26 27 27 27 28
21 20 20 20 20 20 19 19 18 17 16 15 14 14 13 13 13 13 13 14 14 14 14 15 16 17 19 20 21 21 22 23 23 24 25 25 26 27 27 27 27 28 28
23 23 23 22 21 21 20 19 18 17 17 16 16 15 15 14 14 14 14 14 14 14 15 15 16 17 18 19 20 21 22 22 24 25 26 26 27 27 27 27 27 27 28
25 25 26 25 24 23 21 20 19 18 18 17 17 17 16 15 15 14 14 15 15 15 15 15 16 17 18 19 20 21 22 23 24 25 26 27 28 28 28 28 29 29 29
25 26 26 27 27 25 22 21 20 19 19 19 19 19 18 17 16 15 15 15 15 14 14 14 15 16 16 17 18 18 19 20 20 21 22 24 25 26 26 27 28 29 30
24 25 26 27 27 25 23 21 21 20 20 20 20 20 20 18 18 17 16 16 15 15 15 15 16 18 19 20 21 22 23 23 22 22 23 23 24 25 26 27 29 30 31
24 24 25 26 25 24 23 22 21 21 21 21 21 22 21 20 20 20 19 18 18 18 18 19 20 22 24 25 27 28 28 27 26 26 26 26 27 27 28 29 30 31 32
27 26 27 27 26 26 24 23 22 21 21 22 23 23 23 23 22 22 22 21 21 21 21 22 23 24 26 27 27 27 27 26 26 26 27 28 29 30 30 31 32 33 34
30 29 29 29 29 28 27 26 24 22 22 23 24 25 25 25 25 24 24 23 24 23 24 24 25 26 26 25 23 22 21 21 21 23 25 27 28 29 31 33 33 34 34
33 31 31 31 31 30 30 29 27 25 23 23 24 26 27 28 27 26 26 25 25 26 26 26 27 27 26 25 22 21 20 21 22 24 25 27 28 30 32 33 34 35 35
34 33 32 33 34 33 33 31 30 28 26 25 25 27 29 30 29 28 27 27 27 27 27 27 28 28 27 25 24 23 23 24 25 27 29 31 33 34 36 36 36 36 35
35 34 34 34 35 36 36 35 34 32 30 28 28 29 30 30 30 29 28 28 28 28 28 29 29 29 29 28 26 26 27 28 30 32 33 35 37 38 38 37 37 36 36
36 36 35 35 35 36 37 37 36 35 33 31 30 31 31 31 30 29 28 29 29 29 29 30 30 30 31 30 29 30 31 32 33 35 36 37 38 38 37 36 36 36 37
37 37 36 36 36 36 36 37 37 36 35 34 33 32 31 31 30 29 29 29 30 30 31 31 31 32 32 31 31 32 33 35 36 37 38 39 39 38 37 37 37 38 39
38 39 38 37 37 37 37 37 36 36 36 36 35 33 33 32 31 30 30 30 31 31 31 32 33 34 34 33 33 34 35 36 38 39 39 40 40 40 39 39 40 41 42
39 41 40 39 38 38 37 37 36 36 36 36 36 35 34 33 32 32 31 32 32 32 33 33 34 34 34 34 34 35 36 38 39 40 41 42 42 42 42 43 44 45 46
40 42 42 41 40 39 38 36 35 35 36 37 36 35 35 35 34 33 33 34 34 34 34 35 35 35 35 35 36 37 39 40 41 42 44 45 45 45 46 47 49 50 51
42 42 42 42 43 42 40 37 36 36 37 38 37 36 36 35 35 35 35 35 35 35 35 36 36 36 37 38 40 41 42 43 45 46 47 48 47 48 49 51 52 54 55
43 43 43 43 44 44 42 40 38 38 38 38 37 36 35 35 35 36 37 37 37 37 38 38 38 39 40 41 43 45 47 47 48 50 50 50 51 51 53 55 57 59 60
44 44 44 43 44 45 44 42 40 40 39 38 36 35 35 36 36 37 38 38 39 40 40 41 41 42 43 44 46 47 49 50 50 50 52 53 54 55 57 59 61 64 65
46 45 44 43 44 45 44 43 41 41 40 38 37 36 36 37 37 38 39 40 41 42 43 43 44 45 46 47 49 50 52 53 53 50 50 52 55 57 60 62 65 67 69
49 47 45 44 44 44 44 42 42 41 40 38 37 37 37 38 39 39 40 41 42 43 44 45 46 47 49 50 51 52 53 54 55 55 53 54 56 58 61 63 66 69 71
51 49 46 44 44 44 43 42 41 41 40 39 37 38 38 39 39 40 41 42 43 44 45 46 48 49 50 52 53 54 54 55 56 57 58 58 59 61 63 65 66 68 70

GEFSSE_500_meanwind_030.txt.gz
Wind_Speed
19 20 20 20 21 21 21 21 20 19 18 18 17 16 15 15 15 14 14 14 14 13 13 13 12 12 12 13 13 14 15 17 18 18 18 18 19 20 21 21 21 21 21
20 20 20 20 20 21 21 22 21 20 20 19 18 17 16 15 15 15 15 15 15 15 14 14 14 14 14 14 15 16 17 18 19 19 19 19 20 20 21 22 22 22 22
22 22 21 20 20 21 21 22 22 22 21 20 19 18 17 16 16 16 16 16 17 17 16 16 16 16 16 17 17 18 19 20 20 20 20 20 21 21 21 22 22 22 23
24 23 23 22 22 22 22 23 23 23 23 22 21 20 19 17 17 16 16 17 17 17 17 17 16 17 17 17 18 18 19 20 20 20 21 21 22 22 22 23 24 24 24
24 24 24 24 23 22 22 23 23 24 24 23 22 21 20 19 18 17 17 17 18 18 18 17 17 16 16 16 16 17 17 18 19 20 21 22 23 24 24 25 25 25 25
25 25 25 25 24 24 23 23 23 24 24 24 23 22 21 20 20 19 18 18 18 18 18 17 17 17 16 16 16 17 18 19 20 21 22 24 25 26 26 27 27 27 27
25 25 26 25 25 25 25 25 25 24 24 24 24 24 23 22 21 20 19 19 19 19 18 18 18 18 17 17 17 17 18 19 20 21 22 24 25 25 26 26 27 27 26
26 26 27 26 26 26 26 26 25 25 25 25 25 24 23 23 22 21 20 20 19 19 18 18 18 18 17 17 18 19 19 21 22 24 25 26 26 26 26 26 25 25 25
27 27 28 27 27 27 27 27 26 25 25 24 24 24 23 23 23 22 21 21 20 19 18 18 18 19 19 19 20 21 23 24 26 28 29 31 30 29 29 28 27 27 27
30 28 29 28 28 28 27 27 26 26 25 24 23 23 23 23 23 23 22 22 21 20 20 20 21 21 21 22 23 24 24 25 27 27 28 28 27 27 28 28 28 28 28
32 31 30 29 29 29 28 28 28 27 26 25 24 23 23 23 23 23 23 24 23 23 23 23 23 24 25 26 26 26 26 27 26 25 25 23 23 24 25 25 25 26 27
34 33 32 31 31 30 30 30 29 29 28 27 26 25 24 23 23 24 24 24 25 25 26 26 26 27 27 28 28 28 28 28 27 24 25 23 22 23 24 25 25 26 27
35 35 34 34 33 33 32 32 31 31 30 30 29 27 26 25 24 24 24 25 26 27 28 28 29 29 29 29 29 29 30 29 28 26 27 26 25 25 26 27 28 29 30
34 34 35 36 35 35 34 33 32 32 32 31 30 29 28 27 26 25 25 26 27 28 29 30 30 31 31 31 31 30 30 30 29 29 29 29 29 29 29 30 31 31 31
33 33 34 36 36 36 36 35 34 33 33 32 32 31 30 30 29 28 27 27 27 29 30 30 31 32 33 33 32 32 32 32 31 31 31 31 32 32 32 32 32 33 33
32 33 33 35 36 37 36 36 35 34 34 33 33 33 32 32 31 30 29 29 29 30 31 31 32 32 33 33 33 34 33 33 33 32 32 33 33 33 34 34 34 34 34
32 34 34 34 36 36 37 37 36 35 34 34 34 34 34 34 33 33 32 31 31 31 32 32 33 33 34 34 34 35 35 35 33 33 32 33 34 34 35 35 35 36 37
34 34 34 34 34 35 36 37 37 36 35 34 34 35 35 34 34 34 34 34 34 34 34 34 34 34 35 35 35 35 36 35 34 33 33 33 34 35 36 37 38 39 40
36 36 36 34 33 34 35 37 37 37 36 35 34 34 34 34 35 35 35 35 35 36 36 37 37 36 36 36 36 37 37 36 36 36 36 36 37 37 39 40 42 43 44
37 38 38 37 35 35 35 36 37 37 37 36 35 34 34 35 35 35 34 35 36 37 38 39 39 38 38 38 38 38 39 38 38 39 39 39 40 42 43 44 45 47 48
37 39 41 41 38 38 37 36 37 38 38 38 37 35 35 35 35 35 35 35 37 38 39 39 40 40 40 40 40 40 41 41 41 42 42 43 44 45 46 48 49 50 50
39 40 41 43 43 41 40 38 39 39 39 38 38 37 37 36 36 36 36 36 37 38 39 39 39 41 41 42 43 43 44 43 43 45 46 47 47 48 49 50 51 52 53
43 43 43 44 46 45 44 43 42 40 39 39 39 39 39 39 39 38 37 37 38 39 39 39 39 40 42 43 45 45 46 46 46 46 48 49 49 51 52 53 53 54 55
48 48 48 48 49 50 49 47 45 43 42 41 41 41 41 41 40 39 38 38 39 39 39 40 41 42 43 44 46 47 48 49 49 49 49 50 50 51 53 54 55 56 58
54 53 52 51 51 51 51 49 48 47 45 43 42 41 41 41 41 40 40 40 40 39 39 40 42 43 45 46 47 48 49 50 51 51 50 50 51 53 54 54 55 57 59
58 58 57 55 53 52 51 50 50 49 47 45 43 42 42 42 42 41 41 40 40 39 40 41 43 44 46 47 48 49 50 51 53 53 53 52 51 52 54 56 58 60 62

GEFSSE_500_meanwind_036.txt.gz
Wind_Speed
17 17 18 19 19 20 20 20 20 20 19 19 19 19 19 19 18 17 17 17 16 16 16 17 18 19 19 19 18 17 16 16 16 16 17 17 18 18 19 19 20 20 21
17 18 19 19 19 19 19 20 20 20 20 20 20 20 20 20 19 19 18 17 17 17 17 17 18 19 19 19 18 18 18 18 18 18 19 19 19 20 21 21 21 21 22
18 18 19 20 19 20 20 20 20 20 21 21 22 22 22 22 21 21 20 19 19 18 18 18 18 19 19 19 19 20 20 20 21 21 21 21 21 22 22 22 23 23 23
18 18 19 20 20 21 22 22 22 22 22 23 23 23 24 24 23 23 22 22 21 20 19 19 19 20 20 20 21 21 21 21 21 21 21 21 22 22 23 23 23 24 24
19 19 19 20 21 22 23 23 23 24 24 24 25 25 25 25 25 25 24 24 23 22 22 21 21 21 21 21 21 21 20 20 19 20 21 21 21 22 23 23 24 24 25
21 20 20 21 22 22 23 23 24 24 24 25 25 26 26 26 26 27 26 25 25 24 23 22 22 22 22 21 21 21 20 19 19 20 21 21 22 23 23 24 24 25 25
24 23 23 22 22 23 23 23 23 24 24 25 25 25 26 26 27 27 27 27 26 26 25 24 23 22 21 21 21 20 19 19 21 22 22 22 24 25 26 27 27 27 27
27 26 25 24 24 24 23 23 23 23 24 24 24 24 24 25 25 26 26 26 26 26 25 24 23 22 22 21 20 20 19 20 22 23 23 24 25 27 28 29 29 29 29
29 27 27 26 26 25 25 24 23 23 23 23 22 22 23 23 23 24 24 24 24 24 24 24 23 23 22 21 21 21 21 22 23 24 25 25 26 28 28 28 27 26 26
30 29 29 28 27 27 27 26 25 25 24 24 23 22 22 22 22 22 23 23 23 23 23 24 24 24 24 24 23 23 24 25 26 27 27 27 28 28 27 26 25 24 24
29 30 30 29 29 29 29 28 28 27 26 26 25 24 23 22 22 22 22 22 22 22 23 24 25 25 26 26 26 26 27 28 28 29 29 29 29 29 28 27 25 24 23
28 30 31 30 30 30 30 30 30 29 28 28 27 26 24 24 23 22 22 22 23 23 23 24 25 26 28 29 29 30 30 31 31 31 31 31 31 30 29 29 28 27 26
28 29 30 30 30 30 31 31 31 31 30 30 29 28 27 25 24 23 22 22 23 23 24 24 25 26 28 29 30 31 32 33 33 33 33 33 33 32 31 30 30 29 29
27 27 28 29 29 30 31 32 32 32 32 32 31 29 28 27 26 25 23 23 24 24 25 25 26 27 28 29 30 31 32 33 34 34 34 34 34 33 32 31 31 31 31
26 27 27 28 29 30 31 32 32 33 33 32 32 31 29 28 28 27 26 26 25 26 26 27 27 28 28 28 29 30 31 33 34 35 34 34 34 33 33 33 33 33 33
29 29 29 29 29 30 31 31 32 32 32 32 32 31 30 29 28 28 28 27 27 27 28 28 28 29 29 29 30 30 31 32 33 33 34 34 34 34 34 33 34 34 34
32 32 31 30 30 31 31 32 32 32 32 31 31 31 30 30 29 29 29 28 28 29 29 28 29 29 30 30 31 32 32 33 33 34 34 35 35 35 35 34 34 34 35
34 34 32 32 31 31 31 32 33 33 32 30 30 30 30 30 30 30 29 28 28 29 29 29 29 29 30 31 32 33 34 34 34 34 35 36 36 36 37 37 37 37 38
35 35 34 33 33 32 33 34 34 34 32 31 30 30 29 30 30 30 30 29 29 29 29 29 29 30 31 32 33 34 35 36 36 36 36 37 38 38 39 40 40 41 41
36 37 36 35 34 33 35 36 35 35 33 32 32 31 31 30 31 31 31 30 30 30 30 30 30 30 31 32 33 34 35 36 37 37 37 38 39 40 41 42 43 44 45
37 38 38 37 36 35 35 36 36 36 36 36 35 35 34 32 32 32 32 32 32 32 31 32 32 32 32 33 34 34 35 35 36 38 39 39 40 41 42 44 45 46 47
40 40 40 40 39 38 37 38 39 40 40 39 38 36 35 34 34 35 35 34 34 34 34 34 34 34 34 34 35 35 36 37 37 38 40 41 42 42 44 45 46 47 47
44 43 43 43 43 43 42 42 43 43 42 40 38 37 37 37 37 37 37 36 35 35 35 35 36 35 35 35 36 36 37 38 39 39 41 42 43 44 45 46 46 47 48
47 47 47 47 48 47 47 47 46 45 44 43 42 42 42 42 41 41 40 39 38 37 37 37 37 37 37 37 37 38 39 39 40 41 41 43 44 45 46 47 48 49 50
51 51 51 52 52 52 52 52 51 50 49 48 47 46 46 45 45 44 44 42 41 40 39 39 39 38 38 38 39 39 40 41 41 42 43 44 45 47 48 49 50 51 52
55 56 57 57 57 57 57 57 56 55 54 52 50 50 49 49 48 48 47 45 44 43 42 41 40 40 40 40 40 41 42 42 43 43 44 45 46 48 50 52 53 54 54

GEFSSE_500_meanwind_042.txt.gz
Wind_Speed
16 15 15 15 15 15 16 16 15 15 15 16 16 16 16 16 16 16 16 15 15 15 15 15 15 15 15 15 16 16 17 17 17 17 17 18 18 18 19 19 19 19 20
17 16 16 16 16 16 16 16 16 15 15 16 16 16 17 17 17 17 17 17 17 17 17 17 17 17 17 17 17 17 18 18 19 19 19 19 20 20 20 20 20 20 21
18 17 17 17 17 17 17 17 17 17 17 17 17 17 17 17 18 19 19 19 19 19 19 19 19 19 19 19 19 19 19 20 20 20 20 20 20 20 20 20 21 21 21
18 17 17 17 18 17 17 17 17 18 18 18 18 18 18 18 18 19 20 20 20 20 21 21 21 21 21 21 21 22 21 21 21 21 21 21 21 20 20 21 21 22 22
19 18 18 18 18 17 17 17 17 18 18 18 19 19 19 19 19 19 20 21 21 21 22 22 21 21 22 22 23 23 23 22 22 21 21 21 21 21 21 21 22 23 23
22 21 20 20 19 18 18 18 17 18 18 19 19 19 19 19 19 19 19 20 21 22 22 22 21 22 22 23 23 24 23 23 22 22 22 22 21 22 22 23 23 24 25
25 24 24 23 21 20 20 19 19 19 19 19 19 19 19 19 19 18 18 19 20 20 21 21 21 21 22 23 24 24 24 23 23 22 22 23 23 23 23 24 25 25 26
27 27 26 26 24 23 22 22 21 20 20 19 19 19 19 19 18 18 18 18 19 19 20 20 21 21 22 23 23 23 23 23 23 23 23 24 24 25 25 26 26 26 27
28 28 28 27 26 25 25 24 23 22 21 20 20 20 20 19 19 19 19 19 19 19 20 20 20 21 22 22 23 23 23 24 24 24 25 25 26 27 27 28 28 28 27
29 29 29 29 28 27 27 26 25 24 23 22 21 21 21 21 20 20 20 20 20 20 20 20 20 21 22 22 22 23 24 25 26 27 27 28 29 29 30 30 30 30 29
29 29 29 29 29 28 28 28 27 26 25 24 24 23 22 22 22 22 21 22 22 22 21 21 22 22 22 23 23 24 25 27 28 29 30 31 32 32 32 33 33 32 31
29 29 29 29 29 29 29 28 28 27 27 26 25 25 24 23 23 23 23 23 23 23 23 23 23 23 23 23 24 24 25 27 28 30 31 33 33 34 34 35 34 33 32
30 29 29 29 29 29 29 29 29 28 28 28 27 26 25 25 25 24 24 24 24 24 24 24 24 24 24 24 24 25 25 27 28 30 31 33 33 34 35 35 35 34 33
29 29 29 29 29 29 29 29 29 29 29 29 28 27 27 27 26 26 25 25 25 25 25 25 25 25 25 25 25 25 26 27 28 29 30 31 32 32 33 34 34 33 32
29 30 31 31 30 30 30 30 30 30 30 30 30 28 28 27 27 27 26 26 26 26 26 26 26 26 26 26 27 27 28 28 28 29 29 30 31 31 32 33 33 32 32
30 32 33 34 33 32 31 31 31 32 32 32 31 29 28 28 27 27 27 27 27 27 27 27 28 27 27 27 27 28 28 29 29 29 30 31 31 32 32 32 32 33 33
31 32 34 35 36 35 34 33 33 33 33 33 32 31 30 29 28 28 27 27 28 28 28 28 28 28 28 28 28 29 29 29 29 30 31 31 32 32 33 33 33 33 34
33 34 35 37 38 37 37 36 36 36 36 35 34 33 32 30 30 29 29 29 29 29 29 29 29 29 29 29 30 29 29 30 30 31 31 32 32 32 32 33 33 33 34
36 36 37 39 39 40 40 40 40 39 39 38 37 35 34 33 32 32 31 31 30 30 30 30 30 30 31 31 31 31 31 31 32 32 33 33 33 32 32 32 33 33 34
39 39 39 41 41 42 42 43 42 42 41 40 39 38 38 37 36 35 34 33 33 32 32 32 32 32 33 33 33 33 33 34 34 35 35 34 34 34 33 33 33 34 34
42 42 42 42 43 44 44 44 44 43 43 43 43 42 42 40 39 38 37 36 36 35 35 35 34 34 35 35 35 35 35 36 36 36 36 36 35 35 35 35 35 35 35
44 44 44 44 45 46 46 46 45 45 45 46 46 46 44 43 41 41 40 40 39 39 38 38 37 37 37 37 37 38 37 37 37 37 37 37 36 36 37 37 37 37 37
46 46 46 46 47 48 48 49 48 48 47 47 47 46 45 45 45 44 43 43 43 42 41 40 40 40 39 39 39 40 39 39 39 39 38 38 38 39 39 39 39 39 40
47 48 48 48 49 50 51 51 51 50 50 49 49 49 48 48 48 48 47 46 46 45 44 43 43 42 42 42 42 42 42 41 41 40 41 41 41 41 41 42 42 42 43
47 48 49 50 51 52 53 54 54 54 53 52 52 52 51 51 51 50 50 50 49 48 47 47 46 46 46 46 46 45 44 44 43 43 43 43 44 44 44 44 45 45 46
46 48 49 50 52 53 55 56 57 58 58 58 57 56 55 55 54 53 53 53 52 51 51 50 50 50 50 50 49 48 47 47 46 46 45 45 45 46 46 47 48 48 48

GEFSSE_500_meanwind_048.txt.gz
Wind_Speed
14 14 15 15 15 16 16 15 15 16 16 16 16 17 17 18 18 18 18 17 17 16 15 14 13 13 14 14 14 15 15 16 17 17 18 18 18 18 18 18 17 17 17
15 15 15 16 16 16 16 16 16 17 17 17 17 17 17 17 18 18 18 18 18 18 18 17 16 16 16 16 16 16 17 17 18 19 19 19 19 19 19 19 19 18 18
17 16 16 17 17 17 17 17 17 17 17 17 17 17 18 18 18 18 18 18 19 19 19 19 18 18 17 18 18 18 18 19 19 20 20 21 20 20 20 20 20 19 19
18 17 17 17 17 17 16 16 17 17 17 17 17 17 17 18 18 18 18 18 18 19 19 20 20 19 18 18 18 18 19 19 20 21 21 22 21 21 21 20 20 20 20
18 17 17 17 17 16 15 15 16 16 17 17 17 17 17 17 18 18 18 18 18 19 19 19 19 19 19 19 19 19 19 20 20 21 22 22 22 22 21 21 21 21 20
19 18 18 18 18 17 17 16 16 17 18 18 18 18 18 18 18 19 19 19 19 19 19 19 19 19 19 19 19 19 20 20 21 22 22 22 22 22 22 21 21 21 21
20 20 20 20 20 20 19 19 18 19 19 19 20 20 20 20 20 19 19 19 19 20 20 20 20 20 20 20 20 20 20 21 21 22 23 23 23 23 23 22 22 22 22
22 22 22 23 23 22 22 21 21 21 21 21 21 21 21 21 21 20 20 20 20 20 20 20 20 21 21 21 21 21 21 22 22 23 23 24 24 24 24 24 24 24 25
25 25 25 26 25 25 24 24 23 23 22 22 22 22 21 21 21 21 21 21 21 21 21 21 21 21 21 22 22 22 22 22 23 23 24 24 25 25 26 26 26 27 27
28 28 28 28 28 27 26 26 25 24 24 23 23 23 22 22 22 22 22 22 22 22 22 22 22 22 22 22 23 23 23 23 24 24 24 25 26 27 28 28 28 29 29
30 30 30 30 29 29 28 28 27 26 25 25 24 24 23 23 23 23 22 22 22 23 23 23 23 23 23 23 23 24 24 24 25 25 25 25 26 27 28 28 29 29 30
31 31 30 30 30 30 30 29 28 27 27 26 26 25 25 24 24 24 23 23 23 23 24 24 24 24 24 24 24 24 24 25 25 25 25 26 27 27 28 28 29 29 29
30 30 30 30 30 30 30 30 29 29 28 28 27 27 26 26 25 24 24 24 24 24 24 24 24 24 24 24 24 24 24 25 25 25 25 26 27 27 27 27 27 28 28
30 30 30 30 31 31 31 31 30 30 30 30 29 29 28 27 26 26 25 25 25 25 25 25 25 25 25 25 25 25 25 25 25 25 25 26 26 27 27 27 27 27 28
30 31 31 31 32 32 32 32 32 32 32 32 31 31 30 29 28 28 27 27 27 27 27 27 26 26 27 27 26 26 26 26 26 26 26 26 26 26 27 27 27 27 28
31 32 32 32 33 33 33 33 34 34 34 34 34 33 33 32 31 30 30 29 29 29 29 28 28 27 27 27 27 27 26 26 26 26 26 26 26 26 27 27 27 27 28
33 33 34 34 34 34 34 35 35 35 36 36 36 36 35 35 34 33 32 32 31 31 31 30 29 29 28 28 28 28 27 27 27 27 26 27 27 27 27 28 28 28 29
34 34 35 35 35 35 36 37 37 38 38 38 38 38 38 37 37 37 36 35 35 34 33 32 32 31 31 30 30 29 29 28 28 28 28 28 28 29 29 29 30 30 30
35 35 36 37 37 37 38 39 40 40 40 41 41 40 40 41 40 40 40 39 39 38 36 36 35 34 33 33 32 31 31 31 30 29 29 29 30 30 31 31 31 31 31
37 37 37 38 38 39 40 41 41 42 42 43 43 43 44 44 44 44 43 43 42 41 40 39 39 38 37 36 35 34 34 33 33 32 32 31 32 32 33 33 33 32 32
38 38 38 39 40 41 41 42 43 43 44 45 46 47 47 47 47 47 46 45 45 44 44 43 42 41 40 39 38 38 37 36 35 34 34 33 33 34 35 35 35 35 35
39 40 40 41 41 42 42 43 44 45 46 47 48 48 48 49 49 49 49 49 48 48 47 47 46 45 44 43 42 41 40 38 37 37 36 36 36 36 37 38 38 38 38
41 41 42 42 42 43 44 45 46 47 47 48 48 49 49 51 51 52 52 52 52 51 51 50 50 49 48 47 46 44 42 41 40 39 39 39 39 39 39 40 40 41 41
42 42 42 43 43 44 44 45 46 47 48 48 49 50 51 52 53 54 54 55 54 54 53 53 52 52 51 50 49 48 46 45 43 42 42 42 42 42 43 43 44 44 45
42 42 42 42 43 43 44 45 46 46 47 48 50 51 52 53 54 55 56 57 58 57 56 56 55 55 54 53 52 51 50 49 47 47 46 45 46 46 46 47 47 47 48
41 41 41 41 41 42 43 44 46 47 48 50 51 52 54 55 57 58 59 60 60 60 59 59 59 58 57 56 55 54 53 52 51 51 50 49 49 49 49 50 50 50 51

GEFSSE_500_meanwind_054.txt.gz
Wind_Speed
13 12 11 11 10 10 11 11 11 12 12 13 14 14 15 16 17 17 17 17 17 17 17 18 19 18 18 17 17 16 16 16 16 17 17 17 17 17 18 18 18 18 19
13 12 12 11 10 11 11 11 12 12 13 14 15 15 16 17 17 17 17 17 17 17 18 18 19 19 19 19 18 18 18 17 17 18 18 18 18 18 18 18 18 18 19
14 13 12 12 11 11 12 13 13 14 14 15 15 16 16 17 17 17 17 17 17 17 18 18 18 19 19 19 19 19 19 19 18 18 18 19 19 19 19 19 19 19 19
15 15 14 14 13 12 13 13 14 14 15 15 16 16 16 16 16 16 16 17 17 17 18 18 18 18 18 19 19 19 19 19 19 19 18 19 19 19 19 19 19 19 19
17 16 16 15 14 14 13 13 14 15 15 16 16 16 16 16 16 16 17 18 18 18 18 18 18 18 18 18 18 19 19 19 19 19 19 19 19 20 20 20 20 20 20
18 17 17 16 16 15 14 14 14 15 16 17 17 18 18 18 18 18 18 19 19 19 19 19 19 18 18 18 18 19 19 19 19 19 19 19 20 20 20 21 21 21 21
19 19 19 18 17 17 16 15 15 16 17 18 19 19 19 19 19 19 19 20 19 19 19 19 19 19 18 19 19 19 19 19 19 19 19 19 20 20 20 21 21 21 22
21 21 21 20 19 19 18 18 18 18 18 19 20 20 20 20 20 20 21 20 20 20 19 19 19 19 19 20 20 20 20 20 19 20 20 20 20 20 21 21 22 22 23
23 23 23 22 21 21 21 20 20 20 20 21 21 21 21 21 21 21 21 21 21 20 20 19 19 19 20 20 20 20 20 21 20 20 21 21 21 21 21 21 22 22 23
25 25 24 23 23 23 23 23 23 22 22 22 22 22 22 22 22 22 22 22 21 21 20 20 20 20 21 21 21 21 21 21 21 21 21 21 21 22 22 22 22 23 23
27 26 26 25 24 24 24 25 25 24 24 23 23 23 23 23 23 23 22 22 22 22 21 21 21 21 21 21 21 22 22 22 21 21 22 22 22 22 22 22 23 23 23
28 27 26 26 26 26 26 26 26 25 25 25 25 24 24 24 24 24 23 23 23 23 22 22 22 22 22 22 22 22 22 22 22 21 22 22 22 22 22 22 22 22 22
29 28 28 28 27 27 27 27 26 26 26 26 26 25 25 25 25 25 25 24 24 24 24 24 24 24 24 24 24 24 24 24 23 22 23 23 22 22 22 22 22 22 22
30 29 29 29 29 28 28 27 27 26 26 26 26 26 26 26 26 26 26 26 25 25 25 26 26 26 26 26 25 25 25 25 24 23 24 24 24 24 23 23 22 22 22
31 30 30 29 29 29 28 28 28 27 27 27 27 27 27 27 27 27 27 27 27 27 28 28 29 28 28 28 28 28 27 27 26 24 25 25 25 25 24 24 24 23 22
31 31 30 30 30 29 29 28 28 28 28 28 28 29 29 29 29 29 29 29 29 30 30 31 31 31 30 30 31 30 30 29 28 26 26 26 26 25 25 25 25 25 24
32 31 31 30 30 30 30 30 30 30 30 29 29 30 31 31 32 32 32 32 32 33 33 33 34 34 33 33 34 33 33 32 31 29 27 27 28 27 27 26 27 26 26
32 32 31 31 31 30 30 31 31 31 31 31 31 32 33 34 35 35 35 35 36 37 37 37 37 37 37 37 37 37 36 35 34 33 31 29 29 29 29 28 28 28 27
33 33 33 32 32 32 32 32 32 32 33 33 34 35 36 37 37 38 38 38 39 39 40 40 40 41 41 40 40 40 39 38 37 36 35 33 31 31 31 31 30 30 30
34 34 34 33 33 33 33 33 33 34 35 36 37 38 39 40 40 41 41 42 42 43 43 43 44 44 44 44 44 44 43 42 41 40 38 37 35 34 33 33 33 32 32
35 34 35 35 34 34 35 36 36 36 36 38 39 40 42 42 43 44 44 45 45 46 46 47 47 48 48 49 49 48 47 47 45 43 42 41 39 38 37 36 35 35 34
35 35 35 35 35 36 37 37 38 39 39 39 41 42 43 45 46 47 47 47 48 49 49 50 50 51 52 52 53 53 52 51 49 48 47 45 44 42 40 39 38 38 37
36 36 36 36 37 37 38 39 40 40 41 41 42 43 44 46 47 48 49 50 51 52 52 53 54 54 55 55 56 57 56 54 53 52 50 49 48 46 44 44 43 42 41
36 36 36 37 38 38 39 40 41 41 42 42 43 44 45 46 48 49 51 52 53 54 55 56 57 58 58 59 59 59 58 58 58 55 53 52 51 50 49 48 47 46 45
35 36 37 37 38 39 39 40 41 41 42 42 43 44 45 46 48 49 51 52 54 55 57 58 60 61 62 62 62 61 61 61 60 59 57 55 54 53 52 51 50 49 49
36 37 37 38 38 39 39 40 40 41 41 42 43 44 45 46 47 49 50 52 53 56 58 60 62 63 64 64 64 64 64 63 62 61 60 58 57 56 55 54 53 52 51

GEFSSE_500_meanwind_060.txt.gz
Wind_Speed
13 12 11 10 9 8 6 6 5 6 6 7 8 9 10 11 12 12 13 13 13 13 13 13 14 14 14 14 14 14 14 14 15 15 16 16 17 17 17 17 17 17 17
14 13 11 10 9 8 6 6 6 6 7 8 9 10 11 12 12 13 13 13 13 13 13 13 14 14 14 14 14 14 14 15 16 16 16 17 17 18 18 18 18 18 18
14 12 11 10 8 8 7 7 7 7 8 9 10 11 12 12 12 12 12 12 12 13 13 14 14 14 14 15 15 15 15 15 16 16 17 17 17 18 18 18 18 18 18
13 12 11 10 9 8 8 8 9 9 9 10 11 11 12 12 12 12 12 13 13 13 14 14 14 14 14 15 15 15 15 16 16 17 17 18 18 18 19 19 19 18 18
14 13 11 10 10 9 9 9 10 10 11 11 12 12 13 13 13 13 13 13 13 14 14 14 14 14 14 14 14 15 15 16 17 17 18 18 18 18 19 19 19 19 18
15 14 12 12 11 11 11 11 11 12 12 12 13 13 13 13 13 13 13 13 14 14 14 14 14 14 14 14 14 15 15 16 17 17 18 18 18 19 19 19 19 19 19
17 15 14 14 13 13 13 12 12 13 13 14 14 14 14 14 14 14 14 14 14 14 14 15 15 14 14 14 14 15 16 16 17 17 17 18 18 19 19 19 19 19 18
19 17 16 16 16 15 15 14 14 14 14 15 15 15 16 15 15 15 15 15 15 15 15 15 15 15 15 15 15 16 16 17 17 17 18 18 18 19 19 19 19 19 19
21 19 19 18 18 17 16 16 15 15 15 15 16 16 16 16 16 16 16 16 16 16 16 16 16 16 16 16 17 17 18 18 18 18 18 18 18 18 19 19 19 19 19
23 22 21 21 20 19 18 18 17 17 17 16 16 16 17 17 17 17 17 17 17 17 17 18 18 18 18 18 18 19 19 19 20 19 19 19 19 19 19 19 19 19 20
25 24 24 23 22 21 20 19 19 19 18 18 17 17 17 18 18 18 18 19 19 19 19 19 19 20 20 20 20 20 21 21 22 22 21 21 21 21 20 20 20 20 20
27 26 25 25 24 23 22 21 20 20 20 19 19 19 18 19 19 19 19 20 20 21 21 21 21 22 22 23 23 22 22 23 24 24 24 23 23 23 22 22 22 22 21
29 28 27 26 25 24 23 22 22 21 21 21 21 21 20 20 21 21 21 21 22 22 23 23 23 23 24 25 25 25 25 25 25 26 26 25 25 25 25 24 24 23 23
31 30 29 28 27 26 25 23 23 23 23 23 23 22 22 22 22 23 23 23 24 25 25 25 25 25 26 27 28 28 28 27 27 27 28 28 27 27 27 26 26 25 25
33 32 31 29 28 27 26 25 25 24 24 24 24 24 23 23 24 25 25 26 26 27 27 28 28 28 28 29 30 31 31 30 30 30 30 30 30 29 29 29 28 28 27
35 34 32 31 30 28 28 27 26 26 26 25 25 25 25 26 26 26 27 27 28 29 29 29 30 31 31 32 33 34 34 34 33 33 33 32 32 32 32 31 30 30 29
36 35 34 33 31 30 29 28 28 27 27 26 27 27 27 28 28 28 28 29 30 31 31 32 33 34 34 35 36 37 38 38 37 37 36 36 35 35 35 34 33 33 32
37 36 35 34 33 32 31 30 29 28 27 27 28 28 29 30 30 30 30 31 32 33 33 34 35 36 37 38 39 40 40 40 40 40 39 39 39 38 38 37 37 36 35
37 36 35 34 34 33 33 32 31 30 29 29 29 30 31 31 32 32 33 33 34 35 36 36 37 39 39 40 42 42 43 43 44 44 43 43 42 42 41 41 40 39 38
38 37 36 36 35 34 34 33 32 31 31 31 31 32 33 33 34 35 35 36 37 38 39 39 40 41 42 43 44 45 45 46 46 46 46 47 46 45 45 44 43 43 42
39 38 37 37 36 35 34 34 34 33 33 34 34 34 35 36 37 37 37 38 39 40 41 42 43 43 44 46 47 47 47 48 48 48 49 50 49 49 48 47 47 46 45
40 39 38 38 37 36 35 35 35 35 35 36 36 37 38 38 39 39 40 41 41 42 43 44 45 46 47 48 49 49 49 49 49 50 51 51 51 51 50 50 49 48 48
40 40 39 39 38 38 37 37 37 37 37 37 38 38 39 40 41 42 42 43 44 45 45 45 46 47 48 49 50 51 52 52 52 53 53 54 54 54 53 53 52 51 50
41 41 40 40 39 39 38 38 38 38 39 39 39 39 40 40 42 43 44 45 46 46 46 47 47 48 49 49 50 52 53 54 55 55 55 56 56 56 55 54 54 54 53
43 43 42 42 41 41 40 40 40 40 40 40 40 40 41 42 43 44 45 45 46 46 46 47 47 48 48 49 51 52 54 55 56 57 57 57 57 57 57 57 56 56 55
43 43 43 43 43 42 42 41 40 40 40 40 41 42 43 43 44 44 44 45 45 45 46 46 46 47 48 50 51 52 54 55 56 57 58 57 57 57 56 56 57 56 56

GEFSSE_500_meanwind_066.txt.gz
Wind_Speed
13 12 11 10 8 7 6 5 4 3 3 3 3 5 6 7 8 9 9 9 9 9 9 9 10 10 10 11 11 11 12 12 13 14 14 15 16 16 17 17 17 17 17
14 13 12 10 9 8 6 5 4 3 3 3 4 5 7 8 9 9 9 9 9 9 10 10 10 11 11 12 12 12 13 13 14 15 15 16 16 17 17 17 17 18 18
15 13 12 10 9 8 7 5 4 3 3 4 5 6 8 9 9 10 10 10 10 10 10 11 11 12 12 12 13 13 13 14 15 15 16 17 17 17 17 18 18 18 18
15 14 12 11 9 8 7 6 5 4 4 4 6 7 8 9 10 10 10 10 10 10 11 11 12 12 13 13 13 14 14 15 15 16 17 17 17 18 18 18 18 18 18
16 15 13 11 10 8 7 6 5 5 5 6 7 8 9 10 11 11 11 11 11 11 12 12 13 13 14 14 14 15 15 15 16 17 17 18 18 18 18 19 19 19 19
17 16 14 12 10 9 8 7 6 6 7 7 9 10 11 11 12 12 12 12 12 12 13 13 13 14 15 15 15 16 17 17 17 18 18 19 19 19 19 19 19 19 19
18 16 14 12 11 9 8 8 7 8 8 9 10 11 12 13 13 13 13 13 13 13 14 14 15 15 16 16 17 17 18 19 19 20 20 20 20 21 21 21 20 20 20
19 17 15 13 12 10 9 9 8 9 9 10 11 12 13 13 14 14 14 14 15 15 15 16 16 16 17 17 18 19 19 20 21 21 22 22 22 22 22 22 22 22 22
21 18 16 15 13 12 11 10 10 10 11 11 12 13 14 14 15 15 15 16 16 16 16 17 17 18 18 19 20 20 21 22 22 23 23 24 24 24 24 24 24 24 24
22 20 18 17 16 14 13 12 11 11 12 12 13 14 14 15 15 16 16 17 17 18 18 18 19 19 20 21 21 22 23 24 24 24 25 25 26 26 26 26 27 27 26
24 22 20 19 18 16 15 14 13 13 13 14 14 14 15 16 16 17 17 18 19 19 19 19 20 20 21 22 23 24 25 26 26 27 27 27 28 28 28 28 29 29 29
27 25 23 21 20 18 17 16 15 15 15 15 15 16 16 17 17 18 18 19 19 20 20 21 21 22 22 23 24 25 26 27 28 29 29 30 30 30 30 30 30 30 30
29 27 25 23 22 21 19 18 18 17 17 17 17 18 18 19 19 19 19 20 20 21 21 22 23 23 24 25 25 26 27 29 30 31 31 32 32 33 33 33 32 32 32
31 29 27 26 24 23 22 21 20 20 20 19 19 19 20 20 20 20 21 21 22 22 23 23 24 25 26 27 27 28 29 30 31 32 33 34 34 35 35 35 35 35 34
32 31 30 28 27 25 24 24 23 23 22 22 21 21 22 22 22 22 23 23 24 24 24 25 26 27 28 29 30 30 31 32 32 34 35 36 36 37 37 37 37 37 37
35 33 32 30 29 28 27 27 26 25 25 24 24 23 24 24 24 24 25 25 26 26 26 27 28 28 29 31 32 33 34 34 35 36 37 37 38 39 39 39 39 39 39
37 36 34 33 32 31 30 29 29 28 27 27 26 26 26 26 26 26 27 27 28 28 28 29 30 31 32 33 35 36 36 37 38 39 39 40 40 41 41 41 41 41 41
39 38 37 36 35 34 33 32 31 31 30 29 29 28 28 28 28 28 28 29 30 30 31 32 33 34 35 37 38 39 39 40 41 41 41 42 42 43 43 43 43 43 42
42 40 39 38 37 36 35 35 34 33 32 32 32 31 31 30 30 30 30 31 32 33 33 34 35 37 38 39 41 41 42 42 43 43 43 44 44 44 44 45 45 44 44
43 42 41 40 39 39 38 37 36 35 35 35 34 33 33 33 33 33 33 33 34 35 36 37 38 39 40 42 43 43 44 44 44 44 44 45 45 45 46 46 46 46 46
45 44 43 42 42 41 40 39 39 38 37 37 36 35 35 35 35 35 35 36 37 38 39 40 41 41 42 44 45 45 44 45 44 45 45 45 45 45 46 47 47 47 47
46 45 45 44 44 43 42 42 41 40 39 38 38 37 37 37 37 37 37 38 39 40 41 42 43 43 44 45 46 46 45 44 44 45 45 45 45 46 46 47 48 49 49
47 46 46 45 45 44 44 43 42 42 41 40 40 40 39 39 39 39 40 41 42 42 43 44 45 45 46 46 47 47 47 46 44 43 43 44 45 46 47 48 49 50 50
47 47 47 46 46 45 45 44 44 43 42 42 42 41 41 41 41 41 42 43 43 44 44 45 46 47 48 47 47 47 47 47 46 45 44 44 44 45 47 48 49 49 50
45 46 47 47 47 47 47 46 46 45 44 43 43 43 43 43 43 44 44 44 44 45 45 46 47 48 48 48 47 47 46 46 46 46 44 43 44 46 47 48 48 49 49
44 45 46 47 47 47 47 47 47 46 45 45 44 44 44 45 45 45 45 45 45 46 46 47 48 48 48 48 47 47 46 46 46 46 44 44 45 45 46 46 47 48 48

GEFSSE_500_meanwind_072.txt.gz
Wind_Speed
14 13 11 10 9 7 6 6 5 4 4 4 3 2 2 2 3 4 5 5 5 6 6 6 6 7 7 8 9 9 10 11 11 12 13 14 14 15 16 16 17 17 18
15 13 12 10 9 7 6 6 5 5 4 3 3 2 2 3 4 5 5 5 6 6 6 6 7 7 8 9 9 10 11 11 12 13 13 14 15 16 17 17 18 18 18
15 14 12 11 10 8 7 6 6 5 4 4 3 2 2 3 4 5 5 6 6 6 6 7 7 8 9 10 10 11 11 12 13 13 14 15 16 17 18 18 19 19 19
16 14 13 12 10 9 8 7 6 5 4 4 3 2 3 4 5 5 6 6 6 6 7 7 8 9 10 11 11 11 12 13 14 15 16 16 17 18 19 19 20 20 20
17 15 14 13 11 10 9 8 7 6 5 4 3 3 3 4 5 6 6 6 7 7 7 8 9 9 10 11 12 12 13 14 15 16 17 18 19 19 20 20 21 22 22
18 17 15 14 13 11 10 9 8 7 6 5 4 4 4 5 6 6 6 7 7 8 8 9 10 10 11 12 13 13 14 15 16 17 18 19 20 21 21 22 22 23 23
20 18 17 15 14 13 11 10 9 8 7 6 5 5 5 6 6 7 7 8 8 9 9 10 10 11 12 13 13 14 15 16 17 18 19 20 21 22 22 23 24 24 25
22 20 18 17 16 14 13 11 10 9 8 7 7 7 7 7 7 7 8 8 9 10 10 11 12 12 13 14 15 16 17 18 19 20 20 21 22 23 24 24 25 25 26
23 21 20 19 17 16 14 12 11 10 9 8 8 8 8 8 8 8 9 9 10 11 11 12 13 13 14 15 16 17 18 19 20 21 22 23 24 25 25 26 27 27 27
25 23 22 21 19 17 16 14 12 11 10 9 9 9 9 9 9 9 10 10 11 12 12 13 14 15 16 16 17 18 19 20 21 22 23 24 25 26 27 28 28 29 29
27 25 24 23 21 19 17 16 14 13 12 11 10 10 10 10 10 11 11 11 12 13 13 14 15 16 17 18 19 20 21 22 23 24 25 26 27 28 29 30 30 31 31
29 27 26 25 23 21 19 17 16 14 13 12 12 12 12 11 12 12 12 13 13 14 14 15 16 17 18 19 21 22 23 24 25 26 27 28 29 30 31 32 32 32 33
32 30 29 27 25 23 21 20 18 16 15 14 14 13 13 13 13 13 13 14 14 15 16 17 18 19 20 21 22 24 25 26 27 28 29 30 32 33 33 34 34 34 34
35 32 31 29 27 25 24 22 20 18 17 17 16 16 15 15 15 15 15 16 16 17 17 18 20 21 22 23 24 26 27 28 30 31 32 33 34 34 35 35 36 35 35
37 35 33 31 29 28 26 25 23 21 20 19 19 18 18 18 18 18 18 18 19 19 20 21 22 23 24 25 27 28 29 30 32 33 34 35 36 36 37 37 37 37 37
38 37 35 34 32 30 29 27 26 24 23 22 22 21 21 21 21 21 21 21 21 22 22 23 24 25 27 28 29 30 31 32 34 35 36 37 38 38 38 38 38 38 37
40 39 37 36 34 33 32 30 28 27 26 25 24 24 24 24 23 24 24 24 24 25 25 26 27 28 29 30 32 33 34 35 36 37 38 39 39 39 39 39 39 38 38
41 40 39 38 37 36 35 33 31 30 29 28 27 27 27 26 26 26 27 27 27 27 28 29 30 31 32 33 34 35 36 37 38 39 40 40 41 40 40 40 40 39 38
42 42 41 40 39 38 37 36 34 33 32 31 30 30 29 29 29 29 30 30 30 31 31 32 33 34 35 36 37 37 38 39 40 41 42 42 42 42 42 41 40 40 39
44 43 42 42 41 40 39 38 37 36 35 34 33 33 32 32 32 32 33 33 33 34 34 35 36 36 37 38 39 39 40 41 42 42 43 43 43 43 43 42 41 40 40
46 45 43 43 43 42 42 41 40 39 38 37 37 36 36 35 35 35 36 36 36 36 37 38 38 39 39 41 41 41 41 42 42 43 43 44 44 44 43 42 41 41 40
48 47 46 45 44 44 44 43 43 42 41 40 40 39 39 39 38 38 38 39 39 39 39 40 41 41 42 42 43 44 42 42 42 43 44 44 44 44 43 42 42 41 41
49 49 48 47 47 46 46 46 45 45 44 43 43 42 41 41 41 41 41 41 41 41 41 42 43 43 43 44 44 45 45 44 43 42 42 43 43 43 43 42 42 41 40
50 50 50 50 49 49 48 47 47 46 46 45 44 44 44 44 44 44 44 43 43 43 43 44 44 45 45 44 44 45 46 46 46 45 43 42 42 42 42 42 41 41 40
50 50 50 51 50 50 50 49 48 47 47 47 47 47 47 46 45 45 45 45 45 45 45 45 45 45 45 45 46 46 46 46 46 46 44 42 41 41 41 41 41 41 40
51 51 51 51 51 51 51 50 50 49 49 49 49 49 48 48 47 47 47 47 47 47 47 47 47 47 47 47 47 47 46 46 46 45 44 43 42 41 41 41 41 40 40

GEFSSE_500_meanwind_078.txt.gz
Wind_Speed
15 14 12 11 10 9 8 7 6 5 4 3 3 2 2 2 2 2 3 3 3 4 4 4 5 6 7 7 8 8 9 10 10 11 12 13 14 15 16 17 17 18 18
16 15 13 12 11 10 9 7 6 5 5 4 3 3 3 2 2 2 3 3 3 3 4 4 5 6 7 7 8 8 9 10 10 11 12 14 15 15 16 17 18 18 19
17 16 14 12 11 10 9 8 7 6 6 5 4 4 3 2 2 2 3 3 3 3 3 4 5 6 6 7 8 8 9 9 11 12 13 14 15 16 17 18 19 19 20
18 17 15 13 12 11 10 9 8 7 7 6 5 5 4 3 2 2 3 3 3 3 4 4 5 6 6 7 8 8 9 10 11 12 14 15 16 17 18 19 20 21 21
20 18 16 14 13 11 11 10 9 8 8 7 6 5 5 3 3 3 3 3 3 3 4 4 5 5 6 7 8 8 9 10 12 13 14 16 17 18 19 20 21 22 23
21 19 17 15 13 12 12 11 10 10 9 8 7 6 5 4 4 3 3 3 3 3 4 4 5 6 6 7 8 9 10 11 12 14 15 17 18 19 20 21 22 23 24
22 20 18 16 15 14 13 12 12 11 10 9 8 7 6 5 4 4 3 3 4 4 4 5 5 6 7 8 9 10 11 12 14 15 17 18 19 20 21 23 24 24 25
24 21 19 18 16 15 14 14 13 12 11 10 9 8 7 6 5 4 4 4 4 4 5 5 6 7 8 9 10 11 12 14 15 17 18 19 20 22 23 24 25 26 27
26 23 21 19 18 17 16 15 14 13 12 11 10 9 8 7 6 6 5 5 5 5 6 7 7 8 9 10 12 13 14 15 17 18 20 21 22 24 25 26 27 28 29
27 25 23 21 20 19 18 17 16 15 14 13 11 10 9 8 8 7 7 6 6 7 7 8 9 10 11 12 13 14 16 17 18 20 21 23 24 25 26 27 29 30 30
29 26 24 23 22 21 20 19 18 17 15 14 13 12 11 10 9 9 8 8 8 8 9 9 10 11 12 13 14 16 17 19 20 21 23 24 25 27 28 29 30 31 31
30 28 26 24 23 22 22 21 20 19 17 16 14 13 12 11 11 10 10 10 10 10 10 11 12 13 14 15 16 17 19 20 22 23 25 26 27 29 30 31 32 32 33
32 30 28 26 24 24 23 23 22 21 19 18 16 15 14 13 13 12 12 12 12 12 12 13 14 15 16 17 18 19 21 22 24 25 27 28 29 31 32 33 33 34 34
34 31 29 28 26 25 25 25 24 23 21 20 19 17 16 15 15 14 14 14 14 14 15 15 16 16 18 19 20 21 23 24 26 27 29 30 31 33 34 34 35 35 35
35 33 31 30 28 26 26 26 26 25 24 22 21 20 19 18 17 16 16 16 16 16 17 18 18 19 20 21 22 23 25 26 28 29 30 32 34 35 35 36 36 36 36
37 35 34 32 30 29 28 28 28 27 26 25 24 23 21 21 20 19 18 19 19 19 19 20 21 21 22 23 24 25 27 28 30 31 32 33 35 36 37 37 37 37 37
38 37 36 35 33 31 30 30 29 29 29 27 27 26 24 23 23 22 22 22 22 22 22 23 23 24 25 26 27 28 29 30 32 33 35 35 36 36 37 38 38 38 38
41 39 38 37 35 34 33 32 32 31 31 30 29 29 27 26 25 25 25 25 24 25 25 25 26 27 28 29 29 30 31 32 34 35 37 38 38 38 38 38 39 39 39
43 41 40 38 37 36 35 34 34 33 33 33 32 31 30 30 29 28 28 28 27 27 28 28 29 30 30 31 32 33 34 35 36 37 38 39 39 39 39 40 40 40 40
44 43 42 40 39 38 37 36 36 35 35 35 35 34 33 33 32 32 31 31 31 31 31 32 32 33 34 34 35 35 36 37 38 39 40 41 41 41 41 42 42 42 41
45 43 42 42 40 39 39 38 37 37 37 37 37 37 37 36 36 35 35 34 34 34 34 35 35 36 36 37 38 38 38 39 40 40 41 42 42 43 43 43 43 42 42
47 45 44 42 42 41 41 40 40 40 40 39 39 40 40 39 39 38 38 37 37 37 37 38 38 39 39 40 41 41 41 40 41 42 41 41 43 44 44 44 43 42 42
48 47 45 44 44 43 43 42 42 42 42 42 42 42 42 41 41 41 41 41 41 41 41 41 42 42 42 43 43 44 45 44 43 43 42 42 43 44 44 43 43 42 42
48 48 47 46 45 45 45 45 45 45 44 44 44 44 44 44 44 45 45 45 45 45 44 45 45 45 45 45 46 46 47 47 46 44 44 44 44 44 43 43 42 42 41
49 49 48 48 47 46 46 46 46 47 47 46 46 46 46 46 47 48 48 48 48 47 47 47 47 47 47 47 47 47 48 47 47 46 45 45 44 44 43 43 43 42 41
48 49 50 49 48 49 48 47 47 48 48 48 49 49 48 48 48 49 50 50 50 49 48 48 48 48 48 48 49 48 48 47 46 46 45 44 44 44 44 43 42 41 40

GEFSSE_500_meanwind_084.txt.gz
Wind_Speed
18 15 13 11 10 8 7 7 7 6 6 6 5 4 4 4 4 4 4 4 4 3 3 2 2 2 2 2 3 3 3 4 5 6 7 8 9 10 12 13 14 15 16
20 17 15 13 11 10 9 8 8 7 7 6 6 5 5 5 5 4 4 4 4 4 3 3 3 2 2 2 2 3 3 4 5 6 7 8 9 11 12 13 14 15 16
21 19 17 15 13 11 10 10 9 9 8 8 7 6 6 6 5 5 5 5 4 4 4 4 3 3 3 3 3 3 3 4 5 6 7 9 10 11 12 13 15 16 17
23 20 18 16 14 13 12 11 11 10 9 9 9 8 7 7 6 6 6 5 5 5 4 4 4 4 3 3 3 3 4 5 6 7 8 9 10 11 13 14 15 17 18
25 22 20 18 16 14 13 13 12 11 11 10 10 9 9 8 8 7 6 6 6 5 5 5 4 4 4 4 4 4 4 5 6 7 8 10 11 12 14 15 16 18 19
27 24 22 19 17 16 15 14 13 13 12 12 11 11 10 9 9 8 7 7 6 6 6 5 5 4 4 4 4 4 5 5 6 8 9 10 12 13 15 16 18 19 20
28 26 23 21 19 17 16 15 14 14 13 13 13 12 11 11 10 9 8 8 7 7 6 6 5 5 4 4 5 5 5 6 7 9 10 11 13 14 16 17 19 20 22
30 27 25 22 20 19 18 17 16 15 15 15 14 14 13 12 11 10 9 9 8 8 7 7 6 6 5 5 5 6 6 7 8 10 11 12 14 15 17 19 20 22 23
32 29 26 24 22 20 19 18 17 16 16 16 16 15 14 13 12 12 11 10 9 9 8 8 7 7 6 6 6 7 8 8 9 11 12 14 15 17 18 20 22 23 24
34 31 28 25 23 22 20 19 18 18 17 17 17 16 15 15 14 13 12 12 11 10 10 9 8 8 7 7 7 8 9 10 11 12 13 15 16 18 20 21 23 24 25
35 32 30 27 25 23 22 20 19 19 19 18 18 17 16 16 15 14 13 13 12 11 11 10 10 9 9 9 9 10 11 12 13 14 15 16 18 20 21 23 24 26 27
35 33 31 29 26 24 23 22 21 20 20 20 19 18 18 17 16 15 15 14 13 13 12 12 11 11 11 11 11 12 13 14 15 16 17 18 20 21 23 25 26 27 28
37 35 33 30 28 25 24 23 22 21 21 21 21 20 19 19 18 17 16 15 15 14 13 13 13 13 13 13 13 14 15 15 17 18 19 20 22 23 25 26 28 29 29
37 35 34 31 28 26 25 24 23 22 22 22 22 21 21 21 20 19 18 17 16 16 15 15 15 15 15 16 16 17 17 18 19 20 22 23 24 26 27 29 29 30 31
37 34 33 32 30 28 26 25 24 24 23 23 23 23 22 22 21 21 20 19 18 18 17 17 17 17 18 18 19 19 20 21 22 23 24 26 27 29 30 31 32 32 32
38 36 34 33 32 30 29 27 26 25 24 24 24 24 23 23 23 23 22 21 21 20 20 19 20 20 20 21 21 22 23 23 24 25 26 28 29 30 32 33 33 33 33
39 39 36 35 33 32 30 29 28 27 26 26 25 25 25 25 25 25 24 24 23 23 23 22 22 23 23 23 24 25 26 26 27 28 29 30 31 32 33 34 34 35 35
42 40 38 37 36 34 32 32 31 29 28 27 27 27 27 27 27 26 26 26 26 26 26 26 26 26 26 26 27 28 28 29 30 30 32 33 33 34 35 35 36 36 36
43 42 40 39 39 36 34 33 32 30 30 29 29 29 29 29 29 29 28 28 28 28 28 28 29 29 29 29 30 30 31 31 32 33 34 35 36 36 37 37 37 37 36
42 42 42 40 40 38 36 35 33 32 32 31 31 31 30 30 31 31 31 31 31 31 31 31 32 32 32 32 32 33 33 34 35 36 37 38 38 39 39 39 38 38 38
43 43 43 43 40 38 36 35 35 34 33 33 34 33 33 33 33 33 33 33 33 34 34 35 35 35 35 35 35 35 36 37 38 39 40 40 41 41 40 40 40 39 38
43 42 42 42 42 40 38 36 37 37 36 35 35 35 35 35 35 35 36 36 36 36 37 37 38 38 38 39 39 39 39 39 41 41 42 42 42 42 41 41 40 40 39
44 44 42 40 40 39 39 38 37 38 37 37 37 37 37 37 37 37 38 38 39 39 39 40 41 41 41 41 42 43 42 42 42 41 42 43 43 43 41 40 40 39 39
44 43 43 42 42 41 39 39 37 37 38 38 39 38 38 39 40 40 40 41 41 42 42 43 43 43 43 43 44 44 45 45 45 44 43 43 43 43 42 40 40 39 38
43 43 43 42 43 43 42 41 40 39 40 40 39 39 40 40 40 41 41 42 42 43 44 44 45 45 45 45 45 46 47 47 47 47 45 44 44 43 42 41 40 39 38
43 43 43 43 43 44 44 44 43 42 42 42 43 43 42 42 43 43 42 43 44 45 45 45 46 46 47 47 48 48 48 48 48 48 47 46 45 44 42 41 41 40 40

GEFSSE_500_meanwind_090.txt.gz
Wind_Speed
24 21 19 16 15 13 12 11 10 9 8 7 6 5 5 4 4 4 3 4 4 4 4 4 4 4 4 4 3 3 3 3 3 4 5 6 7 8 10 11 12 14 15
26 23 21 18 16 15 13 12 11 10 9 8 7 7 6 5 5 5 4 4 5 5 5 5 5 4 4 4 4 3 3 3 3 4 5 6 7 8 10 11 13 14 16
28 25 22 20 18 17 15 14 13 12 11 10 9 8 7 6 6 5 5 5 6 6 6 5 5 5 5 4 4 4 4 4 4 4 5 6 8 9 10 11 13 15 16
30 27 25 23 20 18 17 15 14 13 12 11 10 9 8 8 7 6 6 6 6 6 6 6 6 5 5 5 4 4 4 4 5 5 6 7 8 9 10 12 13 15 17
32 29 27 25 22 20 19 17 16 15 14 13 12 11 10 9 8 7 7 7 7 7 7 6 6 6 5 5 5 5 5 5 5 6 6 7 8 10 11 12 14 15 17
34 32 29 27 24 22 21 19 18 16 15 14 13 12 11 10 9 9 8 8 8 7 7 7 7 6 6 6 5 5 5 6 6 6 7 8 9 10 12 13 15 16 18
36 34 31 29 27 24 23 21 20 18 17 16 14 14 13 12 11 10 9 9 9 8 8 8 8 7 7 7 6 6 6 6 7 7 8 9 10 11 12 14 15 17 19
39 36 34 31 29 27 25 23 22 20 19 17 16 15 14 13 12 11 11 10 10 10 9 9 9 8 8 8 8 8 8 7 7 8 9 10 11 12 14 15 17 18 20
40 38 36 33 31 29 27 25 23 22 20 19 18 16 15 15 14 13 12 12 12 11 11 10 10 10 10 10 9 9 9 9 9 10 10 11 12 14 15 16 18 19 21
42 40 38 35 33 31 29 27 25 23 22 20 19 18 17 16 15 15 14 13 13 12 12 12 12 11 11 11 11 11 11 11 11 11 12 13 14 15 16 17 19 21 22
44 42 40 37 35 32 30 28 26 25 23 22 21 19 18 18 17 16 15 15 14 14 14 13 13 13 13 12 12 12 12 12 13 13 14 15 15 16 18 19 21 23 24
45 42 41 39 36 34 32 30 28 26 24 23 22 21 20 19 18 18 17 17 16 16 16 15 15 14 14 14 14 14 14 14 15 15 16 17 18 19 20 21 23 25 26
44 43 41 40 38 35 33 31 29 27 25 24 23 22 22 21 20 20 19 19 18 18 17 17 16 16 16 16 16 16 16 16 17 18 18 19 20 21 22 23 25 26 28
46 44 43 41 39 37 34 32 30 28 27 26 25 24 23 23 22 21 21 20 20 19 19 19 18 18 18 18 18 18 18 19 19 20 21 22 23 23 25 26 27 29 30
46 45 44 43 41 39 36 33 31 30 28 27 26 25 24 24 23 23 22 22 22 22 21 21 20 20 20 20 21 21 21 22 22 23 24 24 25 26 27 28 30 31 32
46 45 44 42 41 39 37 35 33 32 30 29 27 26 25 25 24 24 24 24 24 23 23 23 23 23 23 23 23 23 24 24 25 26 26 27 28 29 30 31 32 33 34
44 44 44 42 40 38 37 36 35 33 32 31 29 27 26 26 26 26 26 25 25 25 25 25 25 26 26 26 26 26 26 27 28 29 29 30 30 31 32 33 34 35 36
40 40 42 41 39 38 38 37 36 34 33 32 31 30 29 28 27 27 27 27 27 27 27 27 28 28 28 28 29 29 29 30 31 32 32 33 33 34 35 36 37 37 38
39 38 39 39 38 37 37 37 37 36 35 34 33 32 31 30 30 29 29 29 29 29 29 30 30 30 30 31 31 31 32 33 34 35 35 36 36 37 38 38 39 39 40
38 36 38 37 37 38 38 38 37 37 37 36 35 34 34 33 32 31 31 31 31 31 32 32 32 33 33 34 34 34 35 36 36 37 38 39 39 40 40 41 41 41 41
37 36 37 37 37 37 37 37 38 37 37 37 37 36 35 35 34 34 33 33 33 34 34 34 35 35 36 36 36 36 37 38 39 39 40 41 41 42 42 42 42 42 42
36 37 36 36 37 37 37 38 38 38 39 38 38 37 37 36 37 37 36 36 36 36 36 37 37 38 38 39 39 39 39 39 40 41 42 43 44 44 44 44 43 43 43
35 35 36 37 37 37 37 38 39 39 39 39 38 37 38 38 36 36 36 37 37 37 38 38 38 38 39 40 40 41 41 41 41 42 43 44 44 45 45 45 45 44 44
36 36 37 37 37 37 37 36 37 39 39 38 38 39 38 38 38 37 38 38 39 39 39 40 40 40 41 41 42 42 43 43 43 43 43 44 45 46 46 46 46 45 44
39 38 39 39 38 38 38 37 36 37 38 39 38 38 40 40 39 39 39 40 41 41 41 41 41 42 43 43 43 43 44 45 46 46 45 46 46 47 47 46 46 45 44
39 38 38 38 38 37 38 38 38 38 38 38 38 37 37 38 39 39 39 41 41 41 42 42 42 43 44 44 45 45 46 46 47 48 48 48 48 48 47 47 46 45 44

GEFSSE_500_meanwind_096.txt.gz
Wind_Speed
33 29 26 23 21 20 18 17 16 15 14 13 12 11 10 9 7 6 5 4 3 2 2 2 2 1 1 1 1 1 1 1 1 2 2 3 4 6 7 8 9 10 12
35 32 28 26 23 22 20 19 18 16 15 14 13 12 11 10 8 7 6 5 4 3 3 3 2 2 2 2 1 2 2 2 2 2 3 4 5 6 7 8 9 11 12
37 34 31 28 26 23 22 20 19 17 16 16 15 13 12 11 10 8 7 6 5 4 4 3 3 3 3 3 3 3 3 3 3 3 4 5 6 7 8 9 10 12 13
39 36 33 31 28 26 24 22 20 19 18 17 16 14 13 12 11 10 9 7 6 5 5 4 4 4 4 4 4 4 4 4 4 4 5 5 6 7 8 9 11 12 13
41 39 36 33 30 28 26 24 22 21 20 19 18 16 15 14 12 11 10 9 7 7 6 5 5 5 5 5 5 5 5 5 5 5 6 6 7 8 9 10 11 12 14
44 41 38 35 32 30 28 26 24 23 22 21 19 18 17 16 14 13 12 10 9 8 7 7 6 6 6 5 5 5 6 6 6 6 6 7 8 9 10 11 12 13 14
46 44 41 37 35 32 30 28 26 25 23 22 21 20 19 17 16 15 13 12 11 10 9 8 7 7 7 7 7 7 7 7 7 7 8 8 9 10 11 12 13 14 15
48 46 43 40 38 35 33 30 29 27 25 24 23 22 20 19 18 16 15 14 13 12 11 10 9 9 8 8 8 8 8 9 9 9 9 10 11 11 12 13 14 16 17
49 48 45 43 40 37 35 33 31 29 28 26 25 23 22 21 19 18 17 15 14 13 12 11 11 10 10 10 10 10 10 10 10 10 11 12 12 13 14 15 16 17 18
51 49 48 45 42 40 37 35 33 32 30 28 27 26 24 23 21 20 19 17 16 15 14 13 13 12 12 12 12 12 12 12 12 13 13 13 14 15 16 17 18 19 20
53 50 49 47 45 42 40 37 35 34 32 31 29 28 26 25 24 22 21 20 18 17 16 15 15 14 14 14 14 14 14 14 14 15 15 15 16 17 18 19 20 21 22
55 53 50 48 47 45 42 40 38 36 34 32 31 30 28 27 25 24 23 21 20 19 18 18 17 16 16 16 16 16 16 16 16 16 17 17 18 19 20 21 22 23 24
56 55 52 50 48 46 44 42 40 38 36 34 33 32 30 28 27 26 24 23 22 21 20 20 19 19 18 18 18 18 18 18 18 18 19 20 20 21 22 24 25 26 27
56 53 52 52 50 48 46 44 42 40 38 36 34 33 31 30 29 27 26 25 24 23 22 21 21 21 20 20 20 20 20 20 20 21 21 22 23 24 25 26 27 28 29
56 52 52 52 52 48 47 46 44 42 40 38 36 35 33 32 30 29 28 27 26 25 24 23 23 23 23 22 22 23 23 23 23 23 24 25 26 26 27 28 29 30 31
53 52 52 52 51 50 47 46 45 43 42 40 38 37 35 34 32 31 30 29 28 27 26 25 25 25 25 25 25 25 25 25 25 26 26 27 28 29 29 30 31 32 33
52 52 52 52 51 51 49 47 46 44 42 41 39 38 37 35 34 33 32 31 30 29 28 28 27 27 27 27 27 27 27 27 27 28 28 29 30 31 31 32 33 34 35
50 49 50 51 51 50 49 48 47 46 43 41 40 39 38 37 35 34 33 32 32 31 31 30 29 29 29 29 29 29 29 29 30 30 31 32 32 33 34 35 35 36 37
46 47 49 49 50 49 48 48 47 47 45 43 41 41 39 37 36 36 35 34 34 33 33 33 32 32 32 32 32 32 32 32 32 33 33 34 35 36 37 37 38 38 39
43 44 46 47 48 48 48 48 48 48 46 44 42 41 39 38 37 37 37 37 36 36 35 35 35 35 34 34 34 34 34 34 34 34 35 35 36 37 38 39 39 40 40
40 39 41 43 45 47 48 47 47 48 46 45 44 43 41 40 39 38 37 37 38 38 37 37 37 37 36 36 36 36 36 36 36 37 37 37 38 38 39 40 41 41 42
36 35 36 38 43 45 46 45 45 46 46 45 44 44 43 42 41 40 40 39 39 39 39 39 39 38 38 38 37 37 37 37 37 38 39 39 40 41 41 42 42 42 43
33 32 33 36 38 41 44 44 43 45 46 46 45 44 44 44 43 43 42 41 41 41 41 40 40 39 38 38 38 39 39 39 39 39 40 41 41 42 42 43 43 44 44
31 31 32 34 35 38 41 44 43 44 45 45 45 45 45 45 44 43 43 42 41 41 41 41 41 40 39 39 40 40 40 40 40 40 40 41 42 43 44 44 45 45 46
30 31 32 34 35 36 40 42 43 44 44 45 45 45 45 45 44 44 43 43 43 43 42 42 41 41 40 41 41 41 41 41 42 42 42 43 43 44 45 45 46 46 46
29 30 30 32 35 36 37 40 41 42 42 43 43 44 44 45 44 44 44 43 43 42 41 41 41 42 41 41 40 41 42 42 43 43 43 44 44 44 45 46 47 47 47

GEFSSE_500_meanwind_102.txt.gz
Wind_Speed
35 34 32 30 28 25 23 21 19 18 17 16 15 14 13 12 11 10 9 7 6 5 4 3 3 2 2 2 2 2 2 2 1 1 1 2 3 4 6 7 8 9 10
37 36 35 32 30 28 26 24 22 20 19 18 17 16 15 13 12 11 10 9 8 7 5 5 4 4 3 3 3 3 3 3 2 2 2 2 3 5 6 7 8 9 10
38 38 37 35 33 31 28 26 24 22 21 20 19 17 16 15 14 13 12 10 9 8 7 6 5 5 4 4 4 4 4 3 3 3 3 3 4 5 6 7 8 9 11
39 40 39 38 36 33 31 28 26 24 22 21 20 19 18 17 15 14 13 12 10 9 8 8 7 6 6 5 5 5 4 4 4 4 4 4 5 5 6 7 9 10 11
40 42 42 40 38 36 33 31 29 26 24 23 22 21 20 18 17 16 15 14 12 11 10 9 8 7 7 7 6 6 6 5 5 5 5 5 6 6 7 8 10 11 12
42 43 43 43 41 39 36 33 31 29 27 25 24 22 21 20 19 17 16 15 14 12 11 11 10 9 9 8 8 7 7 6 6 6 6 6 7 7 8 9 10 12 13
43 44 45 45 43 41 39 36 33 31 29 27 25 24 23 22 21 19 18 17 16 14 13 12 12 11 10 10 9 9 8 8 8 8 8 8 8 8 9 10 11 13 14
45 45 47 47 45 43 41 39 36 33 31 30 28 26 25 24 22 21 20 19 17 16 15 14 13 13 12 11 11 10 10 9 9 9 9 9 10 10 11 12 13 14 15
47 46 48 48 47 45 43 41 38 36 33 32 30 28 27 26 24 23 21 20 19 18 17 16 15 14 14 13 13 12 12 11 11 11 11 11 11 12 12 13 14 15 16
50 49 49 50 48 47 45 43 41 38 36 34 32 31 29 28 26 25 23 22 21 20 19 18 17 16 16 15 15 14 14 13 13 13 13 13 13 14 14 15 16 17 18
51 51 52 51 50 48 47 45 43 41 39 37 34 33 31 30 28 26 25 24 23 22 21 20 19 18 18 17 16 16 16 15 15 15 15 15 15 16 16 17 18 19 20
52 51 52 53 52 50 48 47 45 43 41 39 37 35 33 32 29 28 27 26 25 24 23 22 21 20 19 19 18 18 17 17 17 17 17 17 18 18 18 19 20 21 22
53 53 53 53 53 51 49 49 47 46 43 41 39 37 35 33 31 30 29 28 27 26 25 24 23 22 21 21 20 20 19 19 19 19 19 20 20 20 20 21 22 23 24
54 54 54 53 53 52 50 50 49 48 45 43 41 39 37 35 33 32 31 30 29 28 27 26 25 24 23 23 22 22 21 21 21 21 22 22 22 22 23 23 24 25 26
56 56 55 54 53 53 52 51 50 50 47 45 43 41 39 37 36 34 33 32 31 30 29 28 27 26 25 24 24 23 23 24 24 24 24 24 24 25 25 26 27 27 28
57 57 56 56 55 54 53 52 51 50 50 48 45 43 41 39 38 36 35 34 33 32 31 30 28 27 26 26 26 26 26 26 26 26 26 26 26 27 27 28 28 29 30
56 57 57 56 55 54 54 54 52 50 50 48 47 45 43 41 40 38 37 36 34 33 33 32 30 29 29 28 28 28 28 28 28 28 28 28 28 29 29 30 30 31 32
54 56 56 54 54 54 54 53 52 50 49 49 49 47 45 43 41 40 39 38 36 35 35 34 33 32 31 30 30 30 30 29 30 30 30 30 30 31 31 32 32 33 34
51 54 56 55 52 52 51 50 50 49 49 49 49 48 46 45 43 42 41 39 37 35 34 34 33 32 32 31 31 31 32 32 32 32 32 32 32 32 33 34 34 34 35
47 49 53 54 51 50 51 50 49 48 47 48 48 48 48 46 44 42 41 39 37 36 35 35 34 34 34 33 33 34 34 34 34 34 34 34 34 35 35 35 35 36 37
46 47 49 51 49 48 49 47 47 46 46 47 47 47 46 46 45 43 42 41 40 39 38 37 37 36 36 36 36 36 36 35 35 35 35 36 36 36 36 36 36 37 37
42 43 44 45 46 46 46 45 46 45 44 45 47 46 46 46 45 45 44 44 43 41 41 40 39 39 38 38 38 38 37 36 36 37 38 38 38 37 37 38 38 37 37
39 38 38 39 39 40 42 42 44 46 44 43 44 44 45 46 45 44 43 43 44 43 41 41 41 41 41 41 40 40 39 39 39 39 39 39 39 39 38 38 38 39 39
35 34 34 33 33 35 36 37 40 42 42 42 43 44 45 45 45 44 43 43 44 44 42 42 42 43 43 43 42 41 41 41 40 40 40 39 39 39 39 39 39 40 39
30 30 32 31 30 31 34 34 36 38 39 39 41 43 45 45 45 45 46 46 46 45 44 43 44 45 44 44 43 43 42 41 41 41 41 41 41 41 41 40 40 40 40
26 26 26 29 27 27 31 33 35 36 36 38 40 41 42 43 45 45 44 45 46 46 46 46 45 45 44 43 43 42 43 43 43 43 42 41 40 40 40 40 40 40 41

GEFSSE_500_meanwind_108.txt.gz
Wind_Speed
26 26 26 27 27 26 25 23 21 19 17 16 15 13 13 12 12 11 10 10 9 8 7 6 6 5 4 4 4 5 5 5 4 4 4 3 2 2 3 4 5 6 7
27 26 26 27 28 28 28 26 24 22 20 18 17 16 15 14 13 13 12 11 10 9 8 8 7 6 5 5 5 5 5 5 5 5 4 4 3 3 4 4 5 6 8
27 27 27 27 29 30 30 29 27 25 23 21 19 18 17 15 15 14 14 12 12 11 10 9 8 7 7 6 6 6 6 6 6 6 6 5 5 5 4 5 6 7 8
28 28 28 28 29 31 32 32 30 28 25 24 22 20 19 18 17 16 15 14 13 12 11 11 10 9 8 8 8 8 8 7 7 7 7 6 6 6 6 6 7 7 8
30 30 30 30 30 32 33 34 33 31 28 26 24 23 21 20 19 18 17 16 15 14 13 12 11 10 9 9 9 9 9 9 9 8 8 8 7 7 7 7 8 8 9
32 32 32 32 32 32 33 34 35 34 31 29 27 25 24 22 21 20 19 18 16 15 15 14 13 12 11 11 11 11 10 10 10 10 10 9 9 9 9 9 9 10 10
35 34 33 33 35 35 34 35 36 36 34 32 30 28 26 24 23 22 20 19 18 17 16 15 15 14 13 12 12 12 12 12 12 11 11 11 11 10 10 10 11 11 12
38 36 36 35 36 36 37 36 37 37 37 35 33 30 29 27 25 23 22 21 20 19 18 17 16 16 15 14 14 14 14 13 13 13 13 13 12 12 12 12 13 13 14
41 39 38 37 37 38 38 39 39 39 38 38 35 33 31 29 27 25 24 23 22 21 20 19 18 17 17 16 16 15 15 15 15 15 14 14 14 14 14 15 15 16 16
43 41 41 40 39 39 40 40 41 40 40 39 38 36 33 31 29 27 25 24 23 22 21 20 20 19 19 18 17 17 17 17 17 17 17 16 16 16 17 17 17 18 18
45 44 43 42 41 41 41 42 42 42 42 41 40 38 36 33 31 29 27 26 25 24 23 22 22 21 20 20 19 19 19 18 18 18 18 18 18 18 18 19 19 19 20
47 46 45 45 43 42 42 43 43 43 43 42 41 40 38 36 34 31 29 28 27 26 25 24 23 23 22 22 21 21 21 20 20 20 20 20 20 20 21 21 21 21 22
50 49 47 47 46 44 43 44 45 44 44 44 43 42 40 38 36 33 31 30 29 28 27 26 25 25 24 24 23 23 22 22 22 22 22 22 22 23 23 23 23 23 24
52 51 50 48 48 47 45 46 46 46 46 46 45 43 42 40 38 36 33 32 31 30 29 28 27 27 26 26 25 25 24 24 24 24 23 24 24 25 25 25 26 26 26
52 52 52 50 50 49 47 47 47 47 47 47 46 44 43 42 41 39 36 34 33 32 31 30 30 29 28 28 27 27 27 26 26 26 26 26 27 27 27 27 28 28 29
52 52 52 51 50 50 48 47 48 48 48 48 46 46 45 43 42 41 39 37 35 34 33 32 31 30 30 30 29 29 29 29 29 29 28 28 28 29 29 29 29 30 30
53 52 52 52 50 50 50 49 48 48 48 48 47 47 46 45 44 44 42 39 38 36 35 34 33 32 32 32 31 31 31 31 31 31 31 30 30 30 31 31 31 32 32
53 52 52 51 51 51 51 51 50 49 49 48 48 47 47 46 46 45 43 41 39 38 37 36 35 34 34 33 33 33 33 33 32 32 32 32 31 31 32 33 33 34 34
51 50 51 49 49 51 53 52 52 50 50 49 48 47 47 47 47 47 45 43 42 40 40 39 38 37 36 36 34 34 34 34 34 34 34 34 33 33 34 34 34 35 35
48 49 49 49 48 50 51 52 52 52 52 50 49 49 47 47 47 47 46 45 44 42 42 41 39 38 37 37 37 36 36 36 36 36 36 36 36 36 36 36 36 36 36
46 47 48 47 47 48 50 50 51 51 50 49 49 49 47 48 48 48 47 46 45 44 43 42 41 40 39 39 39 39 39 39 39 38 38 38 38 39 38 38 38 38 38
42 44 47 47 47 48 48 48 50 51 51 50 50 49 47 47 46 47 48 47 46 44 44 43 42 41 40 40 41 42 42 42 42 42 41 40 40 40 40 40 40 40 40
39 41 44 46 46 45 46 47 48 49 50 49 50 49 48 46 46 46 46 47 47 46 46 44 44 43 42 43 43 43 43 43 44 43 43 43 43 42 42 42 41 41 41
36 39 41 43 44 45 44 43 43 44 45 46 46 45 46 45 45 45 45 46 47 47 47 46 46 46 46 46 45 45 45 45 44 43 43 44 44 44 43 42 42 42 42
31 34 38 39 38 40 41 41 41 40 41 43 44 43 43 44 43 43 44 46 47 47 47 48 48 48 48 47 47 46 47 47 46 45 44 45 45 44 43 42 42 43 43
25 28 32 34 35 36 37 37 37 38 39 39 40 41 40 40 41 42 43 44 45 47 49 50 49 49 49 48 47 48 49 48 47 47 47 46 45 44 44 44 43 42 43

GEFSSE_500_meanwind_114.txt.gz
Wind_Speed
23 23 23 23 24 23 23 23 21 19 17 15 13 12 11 10 8 8 7 7 6 6 6 6 5 5 4 4 4 4 4 5 5 5 5 5 5 5 5 6 6 7 7
25 24 24 24 24 24 24 24 24 22 20 18 16 14 13 12 10 10 9 9 8 7 7 6 6 6 6 5 5 5 5 6 6 6 6 6 6 6 6 6 7 7 8
26 25 25 25 25 25 24 24 25 25 23 21 19 17 15 14 13 12 11 10 9 8 8 8 7 7 7 6 6 6 7 7 7 7 7 7 7 7 7 7 8 8 8
28 26 26 26 26 25 25 25 25 25 25 24 22 20 18 17 15 14 13 12 11 10 9 9 9 9 8 7 7 8 8 8 8 8 9 9 9 8 8 8 9 9 9
30 29 27 27 27 27 26 26 26 26 26 25 25 23 21 19 18 16 15 14 13 12 11 11 10 10 10 9 9 9 9 9 9 10 10 10 10 10 10 10 10 10 11
33 32 30 29 29 28 28 27 27 27 27 27 26 26 24 22 21 19 18 16 15 14 13 12 12 12 11 11 10 10 11 11 11 11 12 12 12 12 12 12 12 12 12
36 34 33 31 30 30 30 29 29 29 29 29 28 28 27 25 23 22 20 19 17 16 15 14 14 14 13 12 12 12 12 12 13 13 13 13 14 14 14 13 13 13 14
39 37 36 34 33 32 32 31 30 30 30 30 30 29 28 28 26 24 23 21 19 18 17 16 16 16 15 14 14 14 14 14 14 15 15 15 15 16 16 16 16 16 16
42 40 38 37 36 35 34 33 31 31 31 32 32 31 30 29 28 27 25 23 22 20 19 18 18 18 17 16 16 15 16 16 16 16 16 17 17 17 18 18 18 18 18
44 43 42 40 39 37 35 35 33 32 32 33 33 33 32 31 30 30 28 26 24 23 21 20 19 20 19 18 18 18 18 18 18 18 18 18 19 19 20 20 20 20 20
47 46 44 43 42 40 39 37 36 35 34 33 34 35 34 33 32 32 30 29 26 25 24 22 22 22 21 20 20 20 20 20 20 20 20 20 20 21 21 22 22 22 22
49 48 47 46 45 43 42 41 39 38 37 36 36 37 37 36 35 34 33 31 29 27 26 25 24 24 23 23 22 22 22 21 21 22 22 22 22 23 23 24 24 24 25
52 51 50 49 47 46 45 43 42 40 39 38 37 38 38 38 36 36 34 33 31 30 29 28 26 26 25 25 24 24 24 23 23 24 24 24 25 25 25 26 26 27 27
54 53 52 51 50 48 47 46 44 42 41 41 40 39 39 39 38 37 36 35 34 33 31 30 28 28 28 27 27 26 26 25 26 26 26 26 26 26 27 28 28 29 29
56 56 55 54 53 51 49 48 46 45 45 43 42 41 40 40 40 39 39 38 37 35 34 32 31 30 29 28 28 28 28 28 27 27 27 27 28 28 29 29 30 31 31
58 57 56 55 55 54 52 50 49 48 46 44 43 42 41 40 40 40 40 40 39 38 36 35 33 32 31 31 31 30 30 29 29 29 29 29 29 30 31 31 32 32 33
58 58 57 57 56 55 54 52 50 50 49 46 45 44 43 41 41 41 41 41 41 40 39 38 36 35 34 33 33 33 32 31 31 31 32 32 32 32 33 33 34 34 34
57 58 58 58 57 56 55 53 52 52 51 49 47 45 43 43 42 42 42 42 42 41 41 39 38 37 36 36 35 34 34 33 33 34 34 33 33 34 35 35 35 35 36
54 56 57 57 57 56 56 54 54 52 52 50 49 46 45 44 44 44 43 43 43 43 42 41 40 39 38 37 37 37 36 36 35 35 35 35 35 35 36 37 37 37 37
53 54 55 56 56 56 55 54 53 51 51 50 50 48 47 46 45 45 45 44 43 43 43 43 41 40 39 39 39 38 38 38 38 38 38 37 37 37 38 38 39 39 40
51 52 53 54 54 55 55 53 51 50 50 50 50 50 49 48 47 46 45 44 43 43 43 44 43 42 42 42 41 41 41 41 41 40 40 40 40 40 40 40 41 42 42
47 49 51 52 53 54 55 54 53 52 51 50 51 50 49 48 46 45 44 44 43 44 44 44 44 44 44 44 44 44 44 43 42 42 42 42 42 42 42 43 43 43 44
41 45 48 50 51 52 54 54 55 53 53 52 52 50 49 49 48 47 45 44 44 45 45 45 46 46 47 47 46 46 45 44 44 44 43 43 44 44 44 45 44 45 45
34 38 42 44 47 49 51 52 52 51 51 51 51 50 50 51 50 49 47 46 45 45 46 46 46 47 47 47 47 47 47 47 47 46 44 44 45 45 46 46 47 47 48
28 30 33 36 39 43 46 48 48 49 49 49 50 50 50 50 50 49 47 47 47 46 45 46 46 45 46 47 47 48 48 47 47 46 46 46 47 47 48 48 48 48 49
22 24 26 30 34 37 41 44 45 45 46 47 48 49 47 48 48 47 47 46 45 45 45 44 44 45 45 45 46 47 48 48 47 48 49 49 49 49 50 50 50 50 50

GEFSSE_500_meanwind_120.txt.gz
Wind_Speed
20 19 18 18 18 19 19 20 20 19 19 18 16 15 13 12 11 9 8 7 5 4 3 3 2 2 2 2 3 4 5 5 5 5 5 5 5 5 5 5 6 6 7
22 21 20 19 19 19 19 19 20 21 20 20 19 17 16 14 13 12 10 9 8 6 5 5 4 4 4 4 4 5 5 6 6 6 6 6 6 6 6 7 7 7 8
24 23 22 21 20 20 20 20 20 21 21 21 21 19 18 17 15 14 13 11 10 9 8 7 6 5 5 5 5 6 6 7 7 7 8 8 8 8 8 8 8 8 9
27 26 25 24 23 22 21 22 22 22 22 22 22 21 21 20 18 16 15 14 12 11 10 9 8 7 7 7 7 7 7 8 8 9 9 9 10 10 10 10 10 10 10
30 29 27 26 25 24 23 23 23 23 23 23 23 23 23 22 21 19 17 16 15 13 12 11 10 9 9 9 8 8 8 9 9 10 10 11 11 11 12 12 12 12 12
33 31 30 29 28 26 25 24 24 24 25 24 24 24 23 23 22 21 20 19 17 16 15 13 12 12 11 11 10 10 10 10 11 11 12 12 13 13 13 13 14 13 14
36 35 33 32 30 29 28 27 26 26 26 26 25 25 24 24 24 23 22 21 20 18 17 16 15 14 13 13 13 12 12 12 13 13 13 14 14 14 15 15 15 15 15
40 38 37 35 33 32 30 29 28 27 27 27 27 26 26 25 25 25 24 23 22 21 19 18 17 16 16 16 15 15 15 15 15 15 15 15 16 16 16 17 17 17 17
43 41 40 39 37 35 34 32 31 29 29 28 28 27 27 27 26 26 26 25 24 23 22 21 20 19 19 18 18 17 17 17 17 16 17 17 17 18 18 18 19 19 19
45 44 43 42 40 38 37 35 34 33 32 30 30 29 29 29 28 28 27 27 26 26 25 24 23 22 21 21 20 20 19 19 19 19 19 19 19 20 20 20 20 21 21
45 46 46 45 43 42 40 39 38 36 35 33 32 32 31 31 30 30 29 29 28 28 27 26 25 25 24 23 23 22 22 21 21 21 21 21 21 22 22 22 22 23 23
47 47 47 46 46 45 43 42 40 39 38 36 35 34 33 32 32 32 32 31 30 30 29 28 28 27 27 26 25 25 24 24 23 23 23 23 23 23 24 24 25 25 25
48 48 48 48 48 47 46 45 44 42 41 39 38 36 35 34 34 34 33 33 33 32 31 31 30 30 29 28 28 27 27 26 25 25 25 25 25 25 26 26 27 27 27
50 50 49 49 49 49 48 47 46 46 44 42 41 40 38 37 36 36 35 35 35 35 34 33 32 32 32 31 31 30 29 29 28 28 27 27 27 27 27 27 28 28 28
52 52 52 51 50 50 50 49 49 48 47 45 44 43 42 40 39 38 37 37 37 37 36 35 35 34 33 32 32 31 31 31 30 30 30 29 29 29 29 29 29 30 30
53 53 53 53 53 52 51 51 51 50 49 48 46 45 44 43 42 41 40 39 39 38 38 38 37 37 36 35 34 34 33 33 32 32 31 31 31 31 31 31 31 32 32
53 54 54 55 55 54 54 53 53 52 51 50 48 48 47 45 44 44 42 41 41 41 40 40 40 39 39 38 37 37 36 35 35 34 34 33 33 33 33 33 33 33 33
53 54 55 56 56 57 56 56 55 54 53 52 50 50 49 47 46 45 43 43 43 43 42 41 41 41 40 39 39 39 38 38 38 36 36 35 35 35 35 35 35 35 36
53 53 54 55 56 57 58 57 56 55 54 53 52 51 50 49 48 47 45 44 44 43 43 42 42 41 41 41 40 40 39 39 39 38 37 36 37 37 37 37 38 38 38
53 53 53 54 54 56 58 59 58 56 55 55 53 51 51 51 50 49 48 47 45 45 44 43 42 42 43 42 41 41 40 41 41 39 38 38 39 39 39 39 39 39 39
51 52 52 52 53 55 56 57 58 58 57 56 55 53 52 53 52 51 50 49 48 46 45 44 44 43 42 43 43 43 42 42 41 41 41 40 40 40 40 41 40 40 40
47 49 49 49 50 52 54 56 56 58 58 57 56 54 53 54 54 52 51 50 49 48 46 45 44 44 44 43 43 43 43 42 42 41 41 41 41 42 42 43 42 42 41
44 45 46 48 48 49 51 52 53 55 57 56 55 55 55 54 54 53 52 51 49 47 46 45 44 44 45 44 44 43 42 42 42 42 43 43 43 43 42 43 43 43 43
39 42 43 45 46 47 48 50 52 52 54 53 53 54 54 54 54 52 51 50 50 49 48 48 47 45 44 44 44 44 44 43 43 43 43 43 43 42 42 43 44 44 44
33 36 39 41 43 44 45 46 47 49 49 50 51 52 53 54 53 52 51 50 49 48 47 48 48 47 45 45 45 46 46 45 44 44 43 42 43 43 44 45 46 46 46
28 31 33 35 38 40 42 43 45 46 46 47 48 49 50 50 50 50 50 49 49 48 47 46 46 47 46 46 46 46 45 45 44 45 44 43 43 44 45 47 48 48 49

GEFSSE_500_meanwind_126.txt.gz
Wind_Speed
18 19 18 18 18 18 18 18 18 17 17 16 15 14 13 12 11 10 9 9 8 7 7 6 5 5 5 5 5 6 6 6 6 5 4 4 4 4 4 4 5 5 6
21 20 20 19 19 19 19 19 18 18 18 18 17 16 16 14 13 12 11 11 10 9 9 8 7 7 6 6 6 6 7 7 7 7 6 6 5 5 5 5 6 6 7
23 22 22 21 21 20 20 19 19 19 19 18 18 18 17 16 15 14 13 13 12 12 11 10 9 8 8 8 8 7 8 8 8 8 8 8 7 7 7 7 7 8 8
26 25 24 24 23 22 22 21 20 20 19 19 19 19 19 18 17 16 16 15 14 14 13 12 11 11 10 9 9 9 9 9 9 9 9 9 9 9 9 9 9 9 10
29 28 27 26 25 24 23 23 22 22 21 21 20 20 20 19 19 18 17 17 16 15 15 14 14 13 12 11 11 11 10 10 10 10 11 11 11 11 11 11 11 11 11
32 31 30 29 27 26 25 24 24 23 23 22 22 21 21 20 20 20 20 19 18 17 17 16 16 15 14 13 13 13 13 12 12 12 12 13 13 13 13 13 13 13 13
35 34 33 32 31 29 28 27 26 25 24 24 23 23 23 22 22 21 21 21 20 20 19 18 18 17 16 16 15 15 15 15 15 14 14 15 15 15 15 15 15 15 15
38 37 36 35 34 33 31 30 28 27 26 25 25 24 24 23 23 23 22 22 22 22 21 20 19 19 19 18 18 17 17 17 17 17 17 17 17 17 17 17 17 17 18
40 40 39 38 37 36 35 33 32 30 29 28 27 26 25 25 24 24 24 24 23 23 23 22 22 21 21 20 20 20 19 19 19 19 19 19 19 19 19 19 19 19 19
41 41 41 41 40 39 38 36 34 33 32 31 30 29 28 26 26 25 25 26 25 25 24 24 24 24 23 23 22 22 22 22 21 21 21 21 22 22 21 21 21 21 21
41 42 42 42 42 41 41 39 38 36 35 34 33 31 30 29 28 28 27 27 27 27 26 26 25 25 25 25 24 24 24 24 24 23 23 23 23 23 23 23 23 23 24
41 42 42 43 43 43 42 41 41 39 39 37 36 35 33 32 32 31 30 29 29 28 28 28 28 28 27 26 26 26 26 26 26 25 25 25 25 25 25 25 25 25 25
43 43 43 44 44 44 44 43 43 42 41 40 39 38 36 36 35 33 33 32 31 30 30 30 30 30 29 29 28 28 28 28 28 27 27 28 28 27 27 27 27 27 27
45 45 45 45 46 45 45 45 44 44 43 43 42 40 39 39 38 36 35 35 34 33 32 32 32 32 31 31 31 31 30 30 30 29 29 29 29 29 30 30 29 29 29
46 47 46 46 47 47 47 47 46 45 45 44 43 42 42 41 40 39 38 37 37 36 35 34 33 33 33 33 32 32 31 31 32 31 31 31 31 31 31 31 31 31 31
47 48 48 48 48 48 48 48 47 47 46 46 45 44 43 42 41 41 40 39 39 38 37 37 36 36 35 35 34 34 33 33 33 33 33 33 33 32 32 32 32 32 32
48 49 49 50 49 49 49 49 49 48 48 47 46 46 45 44 44 43 42 41 41 40 40 39 38 38 37 37 37 36 35 35 35 35 35 35 35 35 34 33 33 34 34
48 49 50 51 51 51 51 51 51 51 50 49 48 48 47 46 46 45 44 43 43 43 42 41 40 39 38 39 39 39 38 37 37 37 37 36 37 36 35 35 35 35 35
48 49 50 51 51 51 52 52 52 52 52 51 51 50 50 49 48 48 47 45 44 44 44 43 42 41 41 40 40 40 40 40 39 39 38 37 37 37 37 37 36 36 36
49 49 50 50 51 52 52 52 52 52 53 53 52 52 52 52 51 50 49 47 45 45 44 44 43 43 43 43 42 42 42 41 41 40 39 38 37 37 38 38 38 38 38
48 49 50 50 51 52 52 52 52 52 52 52 53 53 53 53 52 52 52 50 48 47 46 45 45 45 45 44 44 44 42 42 41 40 40 39 39 39 39 39 40 40 39
45 46 48 49 50 50 51 51 51 51 52 52 53 53 53 54 54 53 53 52 51 50 49 48 47 47 47 45 44 44 43 43 42 42 41 41 40 40 40 41 41 41 40
40 42 44 46 47 48 49 50 51 50 50 51 52 53 54 54 54 55 54 53 53 53 52 51 49 48 47 46 46 46 45 44 43 42 42 42 41 41 41 40 39 39 40
35 37 39 42 44 47 48 49 50 50 49 49 49 51 53 55 54 54 53 53 53 52 51 51 50 50 49 48 46 46 46 45 45 44 43 44 43 42 41 41 40 41 41
32 34 36 38 40 42 44 46 47 47 48 48 47 48 49 50 50 50 51 51 51 51 51 52 51 51 50 49 48 48 47 46 46 45 44 43 43 42 42 42 43 43 44
28 30 32 34 36 38 39 41 42 43 43 43 43 43 44 46 47 47 47 47 48 49 50 51 52 52 50 49 49 48 47 47 45 45 43 43 43 43 44 44 45 45 46

GEFSSE_500_meanwind_132.txt.gz
Wind_Speed
15 15 16 16 15 15 14 14 14 14 13 13 13 12 12 11 11 10 9 9 8 8 7 7 7 6 6 6 6 7 7 8 8 8 7 7 6 5 5 4 4 4 4
17 17 17 17 17 16 16 15 15 15 15 15 14 14 13 13 12 12 11 11 10 10 9 9 9 8 8 8 8 8 8 9 9 9 9 9 8 8 7 7 6 6 6
19 19 19 18 18 18 18 17 17 17 17 17 16 16 15 15 14 13 13 12 12 11 11 11 11 10 10 9 9 9 9 10 10 10 10 10 10 10 9 9 9 9 9
21 21 20 20 20 20 20 19 19 18 18 18 18 18 17 17 16 15 15 14 14 13 13 13 12 12 12 11 11 11 10 10 11 11 11 11 12 12 11 11 11 11 11
24 23 23 22 22 21 21 21 20 20 20 20 19 19 19 19 18 17 17 16 15 15 15 14 14 13 13 13 13 13 12 12 12 12 12 13 13 13 13 13 13 13 13
27 27 26 25 24 24 23 22 22 22 21 21 21 20 20 20 19 19 18 18 18 17 17 16 16 15 15 15 14 14 14 14 14 14 14 14 14 15 15 15 15 15 15
30 29 29 28 27 26 25 24 23 23 23 23 22 22 21 21 20 20 20 19 19 19 19 19 18 17 17 16 16 15 16 16 16 16 16 16 16 16 16 16 17 17 17
31 32 32 31 30 29 28 27 26 25 25 24 24 23 22 22 22 21 21 21 21 20 20 20 20 20 19 18 18 17 17 17 18 17 17 18 18 18 18 18 18 19 19
33 33 33 33 33 32 31 30 29 28 27 27 26 26 25 24 24 23 23 22 22 22 22 22 22 22 21 21 20 20 19 19 20 19 19 20 20 20 20 20 21 21 21
34 34 34 35 35 35 34 33 32 31 30 30 29 29 28 27 26 26 25 24 24 23 23 23 24 23 23 23 22 22 21 21 21 21 21 21 22 22 22 22 22 23 23
35 34 35 35 36 36 36 36 35 34 33 33 32 31 31 30 29 28 27 27 26 25 25 25 25 25 25 24 24 24 23 23 23 23 23 23 23 23 24 24 24 24 25
35 35 35 36 36 37 37 37 37 37 36 35 35 34 34 33 32 31 30 30 29 29 28 27 27 27 27 26 26 26 26 25 25 25 25 25 25 25 25 26 26 26 27
36 36 36 37 37 37 37 38 38 38 38 38 37 37 36 36 35 33 33 33 32 32 31 30 29 29 29 28 28 27 27 27 27 27 27 27 27 27 27 28 28 29 29
38 38 38 38 38 39 39 39 39 39 40 40 40 39 38 38 37 37 36 36 35 34 34 33 33 32 31 31 30 29 29 29 29 29 29 29 29 29 29 30 30 30 30
39 39 39 39 40 41 41 41 41 40 41 41 41 40 40 39 39 39 39 38 38 37 37 36 36 35 34 33 33 32 31 31 31 31 31 31 31 32 31 31 32 32 32
40 41 41 41 41 42 42 43 43 43 42 42 42 42 42 41 41 41 41 40 39 39 39 38 37 38 37 36 35 35 34 33 33 33 33 33 34 34 33 33 34 33 33
42 42 43 43 43 43 43 44 44 44 44 43 43 43 43 43 43 42 42 42 41 41 40 40 39 39 39 38 37 37 36 36 35 34 35 35 35 35 35 35 35 34 34
43 43 44 45 45 45 45 45 45 45 45 45 45 44 44 44 45 44 44 43 43 43 42 41 41 41 41 40 40 39 38 38 38 37 37 37 37 36 36 36 36 35 35
44 45 45 46 47 47 47 47 47 47 47 47 47 46 46 46 45 45 45 45 45 45 44 43 43 43 43 42 41 41 40 41 40 39 39 38 38 38 38 38 38 37 37
45 46 46 47 47 48 48 48 49 48 48 48 48 48 48 48 47 46 46 46 46 46 45 45 45 45 44 44 43 42 42 43 43 42 42 41 40 39 39 39 39 40 39
44 45 46 47 47 47 48 49 49 49 49 49 49 50 50 49 49 49 48 47 48 47 46 47 47 47 46 45 45 44 44 44 44 44 44 43 42 41 40 40 41 41 41
42 43 44 46 47 47 48 49 50 50 50 51 51 51 51 51 51 51 49 48 49 49 49 48 49 48 46 46 46 46 45 45 46 46 45 45 44 43 42 41 42 42 43
41 42 42 43 45 46 47 49 50 51 51 51 52 52 52 53 53 53 52 51 50 50 51 51 50 49 49 49 48 48 48 46 46 46 46 46 45 45 45 45 44 43 42
37 39 40 41 42 43 45 46 47 49 50 51 51 52 52 52 53 54 54 54 53 51 51 50 50 50 50 50 49 49 49 49 49 49 48 48 48 46 45 44 44 44 44
34 36 38 39 39 40 42 43 43 45 47 48 49 49 49 49 49 51 51 51 51 51 51 50 50 50 50 51 50 49 50 50 49 49 49 49 48 47 46 46 45 45 45
30 32 33 35 36 37 38 39 40 42 43 44 46 46 47 46 46 46 47 48 49 50 50 49 49 49 49 50 49 49 50 50 49 49 49 48 47 46 46 46 46 45 45

GEFSSE_500_meanwind_138.txt.gz
Wind_Speed
16 16 16 15 15 14 13 12 11 11 10 10 9 9 8 8 8 8 7 7 7 6 6 6 6 5 5 5 5 6 6 6 7 7 7 7 7 7 7 7 7 7 7
18 17 17 17 17 16 15 14 13 12 11 11 10 10 10 10 9 9 9 9 9 8 8 8 7 7 7 7 7 7 7 7 7 8 8 9 9 9 9 9 9 9 9
19 18 18 17 17 17 17 16 15 14 14 13 13 12 12 11 11 11 11 11 11 10 10 9 9 9 9 9 8 8 8 8 9 9 9 10 10 10 10 11 11 11 11
21 20 20 19 19 18 18 18 17 17 16 15 15 14 13 13 13 13 13 13 13 12 12 11 11 11 10 10 10 10 10 10 10 10 10 11 11 12 12 12 12 12 13
23 23 22 21 21 20 20 19 18 18 17 17 17 16 16 15 15 14 14 14 14 14 14 13 13 13 13 12 12 12 11 11 12 12 12 12 12 13 13 13 14 14 14
26 25 25 24 23 22 22 21 21 20 19 19 19 18 18 18 17 17 16 15 15 15 14 15 15 15 15 15 14 14 14 13 13 13 14 14 14 14 14 14 15 15 16
28 28 27 27 26 25 24 23 22 22 21 21 20 20 20 20 19 19 18 18 17 17 16 16 16 16 16 17 17 16 16 16 15 15 15 16 16 16 16 16 16 17 17
30 30 29 29 28 27 27 26 25 24 23 23 22 22 21 21 21 21 21 20 20 19 19 18 18 18 18 18 18 18 18 18 18 17 17 17 17 18 18 19 19 19 19
31 30 30 30 30 30 29 28 27 27 26 25 25 24 23 23 23 22 22 22 22 21 21 21 21 20 20 20 20 20 20 20 20 19 19 19 19 20 20 20 21 21 21
31 31 31 31 31 31 31 30 30 29 28 28 27 27 26 25 25 25 24 24 24 24 23 23 23 23 23 23 22 23 22 23 22 22 22 21 22 22 22 22 22 22 22
32 32 32 32 32 32 32 32 31 31 30 30 30 30 29 28 28 28 27 27 26 26 26 25 25 25 25 25 24 24 24 24 25 25 24 24 24 24 24 24 24 25 25
33 33 33 33 33 33 33 33 33 32 32 32 32 32 32 32 31 31 30 30 30 29 29 28 28 27 27 27 27 26 26 26 26 27 27 27 27 27 26 26 26 27 27
35 34 34 34 34 34 34 34 34 34 34 34 35 35 34 34 34 33 33 33 33 32 32 31 31 30 30 29 29 29 28 28 28 28 28 29 29 29 29 29 28 28 29
36 36 36 36 36 36 36 36 36 36 36 36 36 36 37 36 36 36 36 35 35 35 34 34 34 33 33 32 32 31 31 31 30 30 30 30 31 31 31 31 31 31 31
37 37 37 37 37 37 37 37 37 37 37 37 37 38 38 37 37 37 37 37 36 36 36 36 36 36 35 34 34 33 33 33 33 33 32 32 32 32 32 33 32 33 33
38 38 38 38 38 38 39 39 38 38 38 38 38 39 39 39 39 39 39 38 38 38 38 38 38 38 37 37 36 36 35 35 35 35 35 35 35 34 34 34 34 35 34
38 38 39 39 39 40 39 39 39 39 39 39 39 40 40 41 41 41 40 40 40 39 39 39 39 40 39 39 38 38 38 38 38 38 38 38 37 37 37 37 37 37 36
39 39 40 40 40 41 41 41 41 41 41 42 42 42 42 41 42 42 42 42 42 41 41 41 41 41 41 40 40 40 40 40 40 40 40 40 39 39 39 39 39 39 38
40 40 40 41 42 43 43 44 44 44 43 43 44 44 44 43 43 43 43 43 44 44 43 43 43 43 42 42 42 42 42 42 43 42 42 42 42 41 41 41 40 40 40
40 41 41 42 43 43 44 45 46 46 46 46 46 46 46 46 46 45 45 45 45 45 45 45 45 45 44 44 44 43 43 44 44 44 44 44 44 43 43 43 42 42 41
41 41 42 43 43 44 45 46 47 47 48 48 48 48 48 48 48 48 48 49 48 48 48 47 47 46 46 46 46 45 45 45 44 45 45 44 44 45 44 44 44 44 43
40 41 42 43 44 46 46 46 45 46 47 48 49 49 49 50 50 51 51 51 51 50 50 49 50 49 47 47 47 47 47 46 45 45 45 44 45 45 44 44 44 44 44
39 40 41 42 43 44 44 45 45 45 46 47 47 48 49 50 50 51 51 51 51 52 51 51 51 51 49 49 49 49 49 48 46 45 44 44 44 45 45 44 44 44 45
37 38 39 40 41 41 43 43 44 43 44 45 46 47 47 48 49 49 49 50 51 52 52 52 51 51 51 51 51 50 50 50 49 47 46 46 45 45 45 46 45 45 45
35 36 36 37 38 40 40 41 41 42 42 42 43 44 45 46 47 47 48 49 49 50 51 51 52 51 50 50 51 50 50 50 50 50 48 47 47 47 46 47 47 47 47
33 34 35 36 36 37 37 38 39 39 40 41 41 42 43 44 45 46 46 47 47 48 49 50 51 51 50 51 51 51 51 50 50 49 48 48 48 48 48 48 48 48 48

GEFSSE_500_meanwind_144.txt.gz
Wind_Speed
16 15 14 13 13 12 12 12 11 11 11 10 9 9 8 8 7 7 7 7 7 7 7 6 6 6 5 5 5 6 7 7 7 8 8 8 7 7 7 7 7 7 7
17 17 16 15 15 14 14 13 12 12 12 12 11 11 10 9 9 9 8 8 8 8 8 9 8 8 7 7 7 7 7 8 9 9 9 9 9 9 9 9 9 9 9
19 18 17 17 16 16 15 15 14 14 13 13 13 12 12 11 11 10 10 10 10 10 10 10 10 10 10 9 9 9 9 9 10 10 10 10 10 11 11 11 11 11 11
21 20 19 18 18 17 17 17 16 15 15 15 14 14 13 13 12 12 12 11 11 11 11 11 12 12 12 12 12 11 11 11 11 12 12 12 12 12 12 13 13 13 13
22 21 21 20 19 19 19 18 18 17 17 16 16 16 15 15 14 14 13 13 13 13 12 13 13 13 14 14 13 13 13 13 13 13 13 14 14 14 14 14 15 15 15
23 23 22 22 21 21 20 20 20 19 19 18 18 17 17 16 16 16 16 15 15 15 15 14 14 15 15 15 15 15 15 15 15 15 15 16 16 16 16 16 16 16 17
25 24 24 23 23 23 22 22 22 21 21 20 20 20 19 19 18 18 18 18 18 18 18 17 17 16 17 17 17 17 17 17 17 17 17 17 18 18 18 18 18 18 19
27 26 26 26 25 25 25 24 23 23 23 23 22 22 22 22 21 21 21 21 20 20 20 20 20 19 19 19 19 19 19 19 19 19 19 19 19 19 20 20 20 20 20
29 28 27 27 27 27 26 26 26 25 25 25 25 25 25 24 24 23 23 23 23 23 22 22 22 22 22 21 21 21 21 21 22 22 22 21 21 21 21 21 22 22 22
30 30 29 29 29 29 28 28 28 28 27 27 27 27 27 27 26 26 25 25 25 24 25 25 24 24 24 24 23 23 22 23 23 23 24 24 24 24 23 23 23 24 24
31 31 31 30 30 30 29 29 29 29 29 29 29 29 29 29 28 28 28 28 27 27 27 27 27 26 26 27 26 26 25 25 25 25 25 25 26 26 26 26 26 26 26
31 31 31 30 30 30 30 30 30 30 30 29 30 30 30 31 30 30 30 30 30 30 29 29 29 29 29 29 29 28 28 28 28 28 27 27 27 27 27 27 27 28 28
31 32 32 32 32 32 31 32 31 31 31 31 31 31 31 31 32 32 31 32 32 31 31 31 31 31 31 31 31 30 30 30 30 30 30 29 29 29 29 29 29 29 29
33 33 33 33 33 33 33 33 34 33 33 33 33 33 33 33 33 33 33 34 34 34 33 33 33 33 33 33 33 33 32 32 32 32 32 32 31 31 31 31 31 31 31
34 34 35 34 34 34 34 35 35 35 34 34 34 35 35 34 34 35 35 35 35 35 35 35 35 35 35 35 35 35 35 34 34 34 34 34 34 34 33 33 33 33 33
34 34 35 35 35 35 35 35 35 35 35 35 36 36 36 36 35 36 36 36 36 37 37 37 37 38 38 38 37 37 37 37 37 36 36 36 36 36 36 36 36 35 35
34 34 34 35 35 36 36 36 36 37 37 37 38 38 38 38 38 38 38 38 38 38 39 39 39 39 39 40 40 40 40 39 39 39 39 39 39 39 39 38 38 38 38
33 34 34 35 36 36 36 37 37 38 38 39 40 40 40 40 41 41 41 40 40 40 40 41 41 41 41 42 42 42 42 42 42 41 41 40 40 40 40 40 40 40 40
33 33 34 35 36 36 37 38 39 40 40 41 41 41 41 42 42 42 42 42 42 42 43 43 44 43 43 43 43 43 44 44 44 43 43 43 43 42 42 42 42 42 42
33 33 34 35 36 37 38 39 40 41 42 42 42 42 42 42 43 43 44 44 44 43 44 45 45 44 45 45 46 46 46 46 45 45 45 45 45 44 44 44 43 43 43
35 35 35 36 37 37 38 39 40 41 42 43 43 43 43 44 44 44 44 44 45 45 45 45 46 46 46 46 47 48 48 47 46 46 47 46 46 45 44 44 44 44 43
34 35 35 36 36 37 37 38 39 40 41 42 42 43 43 44 45 45 45 45 45 45 46 47 47 47 48 48 48 49 49 48 48 48 47 46 46 46 45 44 44 43 42
33 34 34 35 35 35 36 37 38 39 39 40 41 42 43 43 43 43 43 45 46 46 46 47 48 49 49 49 48 49 49 49 49 48 48 47 46 46 46 47 46 45 44
33 33 33 34 34 34 35 36 36 37 38 38 39 39 40 41 41 41 42 43 44 45 45 46 46 47 48 48 48 47 47 48 48 48 48 48 47 47 47 47 47 47 46
32 33 33 33 33 33 34 35 36 36 37 37 37 37 38 39 39 40 40 41 42 42 43 44 45 45 45 46 47 47 47 48 48 48 48 49 49 49 49 49 50 49 49
31 31 32 33 33 33 33 34 34 35 36 36 37 37 38 38 38 39 40 40 40 41 41 42 42 43 43 44 45 46 47 48 48 49 49 49 50 50 50 50 51 50 50

GEFSSE_500_meanwind_150.txt.gz
Wind_Speed
16 15 14 13 12 12 11 11 10 10 9 9 9 8 8 8 8 8 8 8 8 8 8 8 8 8 8 8 8 8 8 9 9 9 9 9 9 9 9 9 9 9 9
17 17 16 15 14 13 13 12 12 12 11 11 11 10 10 10 10 10 10 9 9 9 9 10 9 9 9 9 10 10 10 10 10 10 10 10 10 11 11 11 11 11 11
19 18 18 16 16 15 15 14 14 13 13 13 12 12 12 12 11 11 11 11 11 11 11 11 11 11 11 11 11 11 11 11 12 12 12 12 12 12 12 12 12 13 13
21 20 19 18 18 17 16 16 15 15 15 14 14 13 13 13 13 13 13 13 13 12 12 12 12 12 12 12 12 13 13 13 13 14 14 14 14 14 14 14 14 14 14
22 21 21 20 19 18 18 17 17 16 16 16 15 15 15 15 15 15 15 15 14 14 14 14 14 14 14 14 14 14 14 14 15 15 15 16 16 16 16 16 16 16 16
23 22 22 21 20 20 19 19 18 18 18 18 17 17 17 17 16 16 16 16 16 16 16 16 16 16 16 16 16 16 16 16 16 16 16 17 17 18 18 18 18 19 18
24 23 22 22 21 21 21 20 20 20 20 20 19 19 19 19 18 18 18 18 18 19 18 18 18 18 18 18 19 18 18 18 18 18 18 19 19 19 20 20 20 20 20
25 24 24 23 23 23 22 22 22 21 21 21 21 21 21 21 21 21 21 21 21 21 21 21 21 21 21 21 21 21 20 20 20 20 20 20 21 21 21 21 21 21 21
26 25 25 24 24 24 24 24 24 23 23 23 23 23 23 23 23 23 24 23 23 23 23 23 23 23 23 23 23 23 22 22 22 22 22 22 22 22 22 23 23 23 23
27 26 26 25 25 25 25 25 25 25 25 25 25 25 25 25 25 25 25 26 26 26 26 25 25 25 25 24 24 24 24 24 24 24 24 24 24 24 24 25 24 24 24
29 28 28 27 27 27 27 27 27 27 27 27 27 27 27 27 27 27 27 27 28 28 28 27 27 27 27 26 26 26 26 25 25 25 26 26 26 26 26 26 26 26 26
30 29 29 29 29 28 28 28 28 29 29 29 29 29 29 28 29 29 28 28 28 29 29 29 29 28 28 28 28 28 28 28 27 27 27 27 27 28 28 28 28 28 28
31 30 30 30 30 30 30 30 30 30 30 30 30 30 30 30 30 30 29 29 30 30 30 31 31 30 31 31 31 30 30 31 30 30 30 30 30 30 30 30 30 30 31
31 31 31 31 31 31 31 31 31 31 31 31 31 31 31 31 31 31 31 32 31 31 31 31 32 33 33 33 33 33 33 33 33 33 33 33 33 32 32 32 32 32 32
32 32 32 32 32 32 32 32 31 32 32 32 32 32 32 32 32 33 33 33 33 33 33 33 33 34 34 35 34 34 35 35 35 35 35 35 35 35 34 34 34 34 34
32 32 32 32 32 32 32 32 32 32 33 33 33 33 33 33 33 33 33 34 35 35 35 35 35 35 35 36 36 36 36 36 36 36 37 37 37 37 36 36 37 36 36
32 32 32 32 32 32 32 33 33 32 33 33 33 33 33 33 34 35 35 36 36 36 37 37 37 37 37 38 38 37 37 38 37 38 38 38 38 38 39 39 39 39 38
32 32 32 32 32 32 33 33 33 32 32 32 33 34 34 35 35 36 36 37 37 37 38 39 39 38 38 39 39 39 39 39 39 40 39 39 39 40 41 41 41 41 40
32 32 32 32 32 33 33 33 33 34 34 33 34 35 35 36 36 37 38 38 39 39 39 40 41 40 39 39 40 41 41 41 41 42 41 42 41 41 42 42 42 42 42
31 31 32 32 32 33 33 33 33 33 34 35 35 35 36 36 36 37 38 39 40 40 40 40 40 41 40 41 41 41 41 42 43 43 43 44 43 43 44 44 44 43 43
31 31 32 32 32 32 32 32 33 34 34 35 35 36 36 36 37 38 38 39 40 40 40 40 39 40 40 41 41 41 42 43 43 44 45 44 44 44 45 45 46 45 45
31 31 32 32 32 32 32 33 33 34 34 35 35 35 36 37 38 39 39 38 39 40 39 40 40 40 41 41 41 42 42 41 42 43 44 44 45 45 45 45 46 46 46
31 31 32 32 32 32 32 33 33 34 34 35 35 36 36 37 37 38 39 39 39 40 40 40 40 41 42 41 41 42 41 41 40 41 43 43 44 44 44 44 45 46 46
30 30 30 30 31 31 32 32 33 33 33 34 34 34 35 35 36 37 38 38 38 39 40 40 40 41 42 42 42 42 42 41 41 40 41 42 43 44 44 43 44 45 45
31 31 31 31 31 32 32 32 32 32 33 33 33 33 34 34 35 36 37 37 37 38 39 39 40 40 41 41 42 42 42 42 42 41 40 39 40 42 43 43 44 44 44
32 32 32 32 32 32 31 32 32 32 32 33 33 34 34 35 35 35 36 37 37 38 38 39 39 39 40 40 41 41 41 41 42 42 41 41 41 41 42 43 42 43 43

GEFSSE_500_meanwind_156.txt.gz
Wind_Speed
15 14 13 12 11 10 10 9 8 8 8 8 9 9 8 8 8 8 8 8 8 8 8 9 9 9 9 9 9 10 10 10 11 11 11 11 11 11 11 11 11 11 11
16 15 14 13 12 12 11 10 10 10 10 10 11 10 10 10 10 10 10 9 9 9 10 10 10 10 10 10 10 10 11 11 11 12 12 12 12 12 12 13 13 13 13
18 17 16 15 14 14 13 13 12 12 12 12 12 12 12 12 12 11 11 11 11 11 11 11 12 12 12 12 12 12 12 13 13 13 13 14 14 14 14 14 14 14 15
20 18 18 17 16 15 15 14 14 14 14 13 13 13 13 13 13 13 13 13 13 13 13 13 13 13 14 14 14 14 14 14 14 15 15 15 15 16 16 16 16 16 16
21 20 19 18 18 17 16 16 16 15 15 14 14 14 14 14 14 14 14 14 15 15 15 15 15 15 15 15 15 15 15 15 16 16 16 17 17 17 17 17 18 18 18
22 21 20 19 19 18 17 17 17 16 16 16 16 16 16 16 16 16 16 16 17 17 17 17 17 17 17 17 17 17 17 17 18 18 18 18 19 19 19 19 19 20 20
23 22 21 20 20 19 18 18 18 17 17 17 17 18 18 18 18 18 18 19 19 19 19 19 19 20 20 20 20 20 19 19 19 19 20 20 20 20 20 20 21 21 21
23 23 22 22 21 20 20 20 19 19 19 19 19 19 20 20 20 20 20 20 20 21 21 21 21 21 22 22 22 22 22 22 21 21 21 21 22 22 22 22 22 22 22
24 23 23 23 22 22 22 22 22 22 21 21 21 22 22 22 22 22 21 21 21 22 22 23 23 23 23 23 23 23 23 23 23 22 22 22 23 23 24 24 24 24 24
25 25 24 24 24 23 23 24 23 23 23 23 23 23 23 23 23 23 23 23 23 24 24 24 24 25 25 25 25 25 25 25 25 25 25 25 24 24 25 25 26 26 26
26 26 25 24 24 24 24 24 24 24 24 24 24 24 24 25 25 25 25 25 25 25 25 25 26 26 26 27 27 27 27 27 27 27 27 27 27 27 27 27 27 27 27
27 26 26 25 24 24 25 24 24 25 25 25 25 25 25 26 26 26 26 26 26 26 26 26 26 27 27 27 28 28 28 29 29 29 29 29 29 29 29 29 29 29 29
28 27 26 26 26 25 25 25 25 25 25 26 26 26 26 26 27 27 27 27 27 27 28 28 28 29 29 29 29 30 31 31 31 31 31 31 31 32 32 32 31 31 31
27 27 28 27 27 26 26 26 26 26 26 26 26 27 27 27 28 28 28 28 29 29 30 30 31 30 31 31 31 31 32 32 32 32 32 32 33 33 34 34 34 33 33
29 28 27 27 28 28 28 28 27 26 27 27 28 28 28 28 28 29 29 30 31 31 32 32 32 32 33 33 33 32 32 33 33 33 33 33 34 34 35 35 36 36 36
28 28 28 28 28 29 29 28 28 27 28 28 28 29 29 29 29 30 30 31 32 32 33 33 33 34 34 34 34 33 33 34 34 35 36 36 35 36 36 36 37 37 37
28 28 28 28 29 29 29 28 29 29 29 29 29 29 29 29 29 31 31 31 32 33 33 34 34 35 35 35 35 36 36 36 36 37 38 38 37 37 37 38 38 38 38
28 28 28 28 28 28 28 28 28 29 29 29 29 29 30 30 30 31 32 32 32 32 33 33 34 35 36 36 37 37 37 38 38 38 39 39 39 39 39 39 39 40 40
28 28 28 29 29 28 28 28 29 29 29 29 29 30 30 30 31 31 31 32 32 32 33 33 33 34 35 36 37 38 38 39 39 39 39 40 40 40 40 40 40 41 41
28 28 29 29 29 29 29 29 29 29 29 28 29 30 31 31 31 31 31 32 32 32 33 33 35 35 36 36 37 38 38 39 40 40 39 39 40 40 40 41 41 41 42
28 28 29 29 29 30 30 30 30 31 31 30 30 31 31 31 32 32 32 32 32 33 34 34 35 35 35 36 37 37 38 39 39 40 40 40 41 41 40 40 40 41 42
28 28 29 30 30 30 31 32 31 31 31 32 32 32 33 33 32 32 31 32 32 33 34 34 35 35 36 36 37 37 37 38 39 40 40 40 40 41 41 41 42 42 42
28 29 29 30 31 31 32 32 32 32 32 33 33 32 32 33 33 33 33 32 33 33 34 35 35 36 36 37 37 37 38 38 39 39 41 41 41 42 42 42 42 42 42
29 30 31 31 31 32 32 33 33 33 33 33 33 34 34 33 33 33 34 33 34 34 35 35 36 37 37 37 38 38 39 39 39 39 40 41 41 41 41 41 41 41 41
30 30 31 32 32 33 34 34 34 34 34 34 34 35 34 34 35 34 34 34 34 35 36 37 38 38 38 38 38 39 39 39 39 39 39 40 40 40 39 39 39 40 41
30 31 31 32 33 33 34 34 34 35 35 35 34 34 35 35 36 36 36 35 35 35 36 37 38 39 39 39 40 39 39 39 38 38 38 38 38 38 39 39 39 40 40

GEFSSE_500_meanwind_162.txt.gz
Wind_Speed
15 15 14 12 12 11 9 8 7 7 6 6 6 6 6 6 6 6 6 7 7 6 7 7 7 7 8 8 8 9 9 9 10 10 10 11 11 11 11 11 12 12 12
18 16 16 14 13 12 11 10 9 8 8 8 8 7 7 7 7 7 7 8 8 8 9 9 9 9 9 10 10 10 11 11 11 12 12 12 12 12 13 13 13 13 14
19 18 17 16 14 13 13 12 11 10 10 9 9 9 9 9 9 9 9 9 10 10 11 11 11 11 11 12 12 12 12 13 13 13 14 14 14 15 15 15 15 15 15
20 19 18 17 16 15 14 13 12 12 11 11 10 10 10 10 10 10 10 11 11 12 12 12 13 13 13 14 14 14 14 14 15 15 15 15 16 16 16 17 17 17 17
21 21 20 18 17 17 16 15 14 13 13 12 12 11 11 11 12 12 12 13 13 13 14 14 14 15 15 15 16 16 16 16 16 16 17 17 17 17 17 18 18 19 19
23 22 21 20 19 18 17 15 15 14 14 14 13 13 13 13 14 14 14 14 14 15 15 15 16 16 17 17 17 17 18 18 18 18 19 19 19 19 19 19 19 20 20
24 23 21 21 20 19 18 17 16 16 16 15 15 15 15 15 15 15 15 15 16 16 16 17 17 17 18 18 19 19 19 19 20 20 20 20 20 20 20 20 21 21 21
24 24 22 21 21 20 19 18 17 17 17 17 17 17 17 17 17 17 17 17 18 18 18 19 19 19 20 20 20 20 21 21 22 22 22 22 22 22 22 22 22 22 23
25 24 23 22 22 21 19 18 18 18 18 18 18 18 19 19 19 19 19 19 20 20 21 21 21 21 21 22 22 22 22 23 23 24 24 24 24 24 24 24 24 25 25
26 25 24 23 22 21 21 20 19 19 19 19 19 20 20 20 20 21 21 21 22 22 22 22 22 23 23 23 24 24 24 24 25 25 25 25 26 26 26 26 27 27 27
26 26 24 24 22 22 22 21 20 20 20 20 21 21 21 21 21 22 22 23 23 23 23 23 24 24 24 25 25 26 26 26 27 27 27 28 28 28 29 29 29 29 29
26 26 25 24 24 22 22 22 20 21 21 22 22 22 22 22 22 23 23 23 24 24 24 24 24 25 25 25 26 26 27 27 28 29 30 30 30 30 31 31 30 30 30
25 25 26 25 24 23 23 22 22 22 22 23 23 23 23 23 24 24 24 24 23 24 24 24 24 24 25 26 27 28 29 29 29 30 31 32 32 31 31 32 32 32 32
25 24 25 25 24 23 22 23 22 23 22 23 23 24 24 24 24 24 25 24 24 24 25 25 25 26 26 27 28 28 29 30 30 30 31 32 32 32 32 32 32 33 33
25 25 25 25 25 24 24 24 23 24 23 22 23 24 24 25 25 24 24 25 25 25 26 26 26 27 27 28 28 29 29 30 31 32 32 32 33 33 34 34 34 34 34
26 25 26 27 26 25 25 25 25 24 24 24 24 24 25 26 25 25 26 26 26 26 27 27 28 28 28 28 29 30 31 31 32 33 33 33 34 34 35 35 36 36 37
27 25 24 26 26 25 25 26 26 26 26 26 25 25 26 26 26 27 27 28 28 28 28 29 29 30 30 30 31 31 31 32 32 32 33 34 35 36 36 37 37 37 38
27 26 25 25 26 27 27 26 26 27 27 27 27 27 27 27 28 28 29 29 29 29 30 30 30 31 31 31 31 32 32 32 33 33 34 35 36 37 37 38 38 38 38
27 27 26 26 27 28 28 28 28 28 29 29 29 28 28 29 29 30 30 31 31 32 32 32 32 32 32 32 33 33 34 34 34 34 35 36 37 37 38 38 38 39 39
27 27 27 27 28 29 29 30 30 29 30 30 31 30 30 29 29 30 31 32 32 32 33 33 33 34 34 34 34 34 34 35 36 36 37 37 37 38 38 38 39 39 39
25 26 27 28 28 29 30 30 31 31 31 31 32 32 31 30 31 32 33 33 33 33 34 35 35 35 35 35 35 35 35 35 35 36 37 38 38 38 38 38 39 39 39
26 27 28 29 29 29 31 31 32 32 32 32 32 32 32 31 31 32 33 33 34 33 33 34 35 36 36 36 36 36 36 36 37 37 38 38 38 38 39 39 39 39 40
27 28 29 30 31 31 32 33 34 33 33 33 34 34 34 34 33 33 33 34 34 34 35 34 34 35 35 36 37 37 37 37 37 38 38 38 38 39 40 40 40 40 40
28 29 30 31 32 33 33 33 34 34 34 35 35 35 35 35 34 33 34 35 34 34 35 35 35 35 36 37 38 39 39 38 38 38 38 39 40 40 40 40 39 39 40
29 30 31 32 33 34 34 34 34 35 36 36 35 35 36 36 36 35 35 35 35 36 37 37 36 36 37 37 38 38 39 39 39 39 39 40 40 40 40 40 40 40 40
31 31 32 33 34 34 35 35 35 36 36 36 36 36 36 37 37 37 36 36 36 37 37 37 37 37 38 38 39 39 39 39 39 39 39 39 39 40 39 39 40 41 41

GEFSSE_500_meanwind_168.txt.gz
Wind_Speed
15 14 13 12 11 10 10 9 9 8 8 8 7 7 6 6 6 5 5 5 5 5 5 5 5 5 6 6 7 7 8 8 9 9 9 10 10 11 11 11 12 13 13
17 16 15 14 13 12 12 11 10 10 10 9 9 8 8 7 7 7 6 6 6 6 7 7 7 7 7 8 8 9 9 10 10 10 11 12 12 13 13 13 13 14 14
19 17 16 15 15 14 13 13 12 12 11 11 10 10 9 9 9 9 8 8 8 8 8 8 9 9 9 9 10 10 11 11 11 12 12 12 13 13 14 14 15 15 16
20 19 18 17 16 15 15 14 13 13 12 12 12 11 10 10 10 10 10 9 9 10 10 10 10 10 11 11 11 12 12 12 13 13 13 14 14 14 15 15 16 16 17
21 20 19 19 18 17 16 15 15 14 14 13 13 12 12 11 11 11 11 11 11 11 12 12 11 11 12 12 12 12 13 13 14 14 15 15 16 16 16 17 17 18 18
23 21 20 19 19 18 17 17 16 16 15 14 14 14 13 12 12 12 13 13 13 13 13 13 13 13 14 14 14 14 15 15 16 16 17 17 17 18 18 18 19 19 19
24 23 22 21 20 19 19 18 17 17 16 16 15 15 14 14 14 14 14 14 15 15 15 15 15 15 16 16 16 16 16 17 18 18 18 19 19 19 19 20 20 20 21
25 25 24 23 22 21 20 19 19 18 18 17 16 16 15 15 15 15 16 16 16 17 17 17 17 17 17 17 17 17 18 18 19 19 20 20 20 20 21 21 22 22 22
25 26 26 25 24 23 22 21 20 19 19 18 18 17 17 17 17 17 17 18 18 18 18 18 18 18 18 18 18 19 19 20 20 21 22 22 22 22 23 23 23 24 24
26 25 27 27 25 25 24 22 21 21 20 20 19 18 18 18 18 18 18 18 19 19 19 19 19 19 20 20 20 20 20 21 21 22 23 23 24 24 25 25 25 26 26
28 26 26 26 26 26 25 24 23 22 22 21 20 19 19 19 19 19 19 19 19 20 20 20 20 21 21 21 21 21 21 22 23 23 24 25 26 26 27 27 27 28 28
29 27 27 26 26 26 26 25 24 24 23 22 21 20 20 20 20 20 20 20 21 21 21 21 21 22 22 22 22 22 23 23 24 24 25 26 27 28 29 29 29 29 30
29 27 27 26 26 26 27 26 26 25 24 23 21 21 20 20 20 20 20 21 21 21 21 21 22 22 23 23 23 23 24 24 24 25 25 26 27 28 29 29 30 30 30
29 28 26 26 27 27 27 26 26 26 25 24 23 22 21 21 21 21 21 22 22 22 22 22 23 24 24 24 25 25 25 25 25 26 26 27 28 28 29 29 30 31 31
29 28 27 26 27 27 27 27 26 26 24 24 23 23 23 22 22 22 23 23 23 24 24 24 24 24 25 25 25 26 26 27 27 28 28 28 28 28 29 30 31 31 32
30 30 29 29 28 27 27 27 26 25 24 24 24 23 23 23 23 23 24 24 25 26 26 26 26 26 26 26 27 27 28 28 29 29 29 30 30 30 30 30 31 31 32
30 30 30 29 28 28 28 27 26 25 25 24 25 24 24 24 24 25 25 26 27 27 28 28 28 28 28 28 29 29 30 30 30 31 31 31 31 31 31 32 31 31 32
30 30 30 29 28 28 27 26 26 26 25 25 26 26 25 26 26 26 27 28 28 29 29 30 30 30 30 30 30 30 31 31 32 32 32 32 33 33 33 33 33 33 33
30 29 29 30 28 27 27 27 28 27 27 27 28 28 27 27 27 28 29 29 29 30 30 31 31 31 32 32 32 32 32 33 33 34 34 34 34 34 33 33 33 33 33
28 29 29 30 29 27 26 27 28 28 29 28 29 29 30 29 28 28 29 29 29 30 31 32 32 32 33 33 33 33 33 34 34 35 35 35 34 34 34 34 35 35 35
28 29 29 29 28 28 27 27 28 27 28 30 30 31 31 31 30 30 30 30 30 31 32 32 33 34 34 34 34 34 34 34 34 35 35 35 35 35 35 35 36 36 37
27 28 28 28 28 28 27 26 26 27 29 31 32 32 33 33 33 31 31 32 32 33 33 33 33 34 34 35 35 35 34 34 35 35 35 35 35 35 35 36 37 38 38
27 28 29 27 27 28 28 28 27 28 29 31 31 31 32 33 34 33 33 33 34 34 34 34 34 34 35 35 35 35 36 35 36 36 36 36 36 36 36 36 37 37 37
27 29 29 29 28 29 29 29 29 30 31 32 33 32 33 34 35 35 34 34 34 35 35 35 35 35 35 35 35 36 36 36 36 35 36 36 36 37 37 37 37 37 39
28 28 29 30 30 30 30 31 31 32 32 33 34 36 36 36 36 36 36 36 36 35 35 35 36 36 36 35 35 35 36 36 36 36 35 36 37 37 38 38 38 39 39
29 29 30 30 31 31 31 32 33 33 33 34 35 36 36 37 38 37 36 36 35 35 34 34 36 37 37 36 36 36 36 36 36 36 36 36 37 38 38 39 40 40 41

GEFSSE_500_meanwind_174.txt.gz
Wind_Speed
17 16 15 15 13 13 12 11 11 11 11 10 10 9 9 9 8 8 8 7 7 7 7 6 6 6 7 7 7 8 9 9 9 10 10 10 11 11 11 11 12 12 12
19 18 17 16 15 14 13 13 13 12 12 11 11 11 10 10 9 9 9 9 8 8 8 8 8 8 8 8 9 9 9 10 10 10 11 11 12 12 12 13 13 13 14
21 19 18 18 17 16 15 14 14 14 13 13 12 12 11 11 11 10 10 10 9 10 9 10 10 10 10 9 10 10 10 10 10 11 11 12 13 13 13 13 14 14 14
22 21 20 19 18 17 16 15 15 15 15 14 14 13 13 12 12 12 11 11 11 10 10 10 10 11 11 11 11 11 11 11 11 12 12 13 13 14 14 15 15 15 15
23 23 22 21 20 19 18 17 17 16 16 15 15 14 14 14 13 12 12 12 12 12 12 12 12 12 12 12 12 13 13 13 13 13 14 14 14 15 15 15 16 16 17
25 24 23 22 21 21 20 19 19 18 18 16 15 15 15 15 14 14 14 14 14 13 13 14 14 14 14 13 14 14 14 15 15 15 15 15 15 16 16 16 16 17 17
26 25 24 23 22 22 21 21 20 19 19 18 16 16 16 16 15 15 15 15 15 15 15 15 15 15 15 15 15 16 16 16 16 16 16 17 17 17 17 18 18 19 19
28 26 26 25 23 23 23 22 21 21 20 19 17 17 17 17 17 16 16 16 16 16 16 16 16 16 17 17 17 17 17 17 17 18 18 18 18 19 19 19 20 21 21
30 28 27 26 25 24 23 23 22 21 21 20 19 19 19 18 18 17 17 17 17 17 17 17 17 17 18 18 18 18 18 18 18 19 19 19 20 21 21 22 22 22 23
30 30 29 28 26 26 25 24 23 22 21 21 20 20 20 19 19 19 18 18 18 17 17 18 18 18 19 19 19 19 20 20 20 20 21 21 22 22 23 24 24 24 25
31 30 29 28 27 27 26 24 24 23 23 23 22 22 21 21 20 20 19 19 19 19 19 19 19 20 20 20 21 21 21 21 21 22 22 22 23 24 24 25 26 26 26
32 31 30 30 28 27 27 25 25 25 24 24 24 23 23 22 21 20 20 20 20 20 20 21 21 21 21 21 22 22 23 23 23 23 23 23 24 25 25 26 26 26 26
34 32 30 30 30 28 27 27 27 26 25 25 25 25 24 24 22 21 21 22 22 22 22 22 22 22 23 23 23 23 24 24 24 25 25 25 25 26 26 27 27 27 27
34 32 30 31 30 29 28 28 28 27 27 26 26 26 25 24 24 23 22 23 23 23 23 23 23 23 24 24 24 25 25 25 25 25 25 26 26 27 27 27 28 28 28
33 32 31 31 31 30 29 28 28 29 28 28 28 27 26 25 25 24 24 23 23 23 24 23 24 24 24 24 25 25 25 26 26 27 27 27 27 28 28 28 29 29 29
33 32 32 31 31 30 30 29 28 28 28 28 29 29 28 27 27 26 25 25 24 24 25 25 25 25 25 25 26 26 27 27 27 28 28 28 28 28 29 29 30 29 29
33 33 32 32 31 30 29 30 29 29 28 28 28 28 28 28 28 26 26 26 26 26 26 26 26 26 26 26 27 28 28 29 29 30 30 30 29 29 30 30 30 30 30
32 33 33 33 32 30 29 29 29 29 29 29 28 28 28 28 28 28 27 26 26 26 26 27 27 27 27 28 29 29 30 30 31 31 31 31 31 31 31 31 31 31 31
31 32 33 33 33 32 30 30 30 29 29 28 28 28 29 29 29 29 28 27 28 28 28 27 27 28 29 30 30 31 31 32 32 32 32 32 32 32 32 32 32 32 32
30 31 32 32 31 31 31 31 31 30 30 29 28 28 29 30 30 30 29 29 29 29 29 29 30 30 30 31 31 31 32 32 32 33 33 33 33 33 33 33 32 33 33
30 30 32 32 31 30 31 31 31 30 29 29 28 29 30 30 30 30 30 29 30 31 30 31 32 32 32 32 32 32 33 33 33 34 33 34 34 34 34 33 33 33 33
29 30 31 32 31 30 30 30 30 32 31 31 30 31 31 30 31 32 31 31 31 32 32 32 33 33 33 33 33 33 33 33 33 34 33 33 34 34 33 33 33 33 33
28 28 29 31 31 31 30 30 30 31 32 32 30 30 31 32 32 32 32 32 33 33 34 33 33 33 33 33 33 34 34 34 34 34 34 34 34 34 34 34 35 35 35
28 28 29 29 30 31 31 30 31 31 31 32 30 30 32 33 33 34 34 34 35 35 35 35 34 34 34 34 35 35 35 35 35 35 35 35 36 36 36 36 37 37 37
27 28 28 29 30 31 31 32 32 33 33 32 32 33 34 35 35 35 35 35 36 37 37 36 36 35 35 36 36 36 37 37 37 37 36 36 37 37 37 38 38 39 39
28 28 28 29 30 31 32 33 33 35 34 33 33 34 35 35 35 36 36 37 37 38 38 37 36 36 36 37 37 38 38 39 39 38 37 37 38 39 39 39 40 40 40

GEFSSE_500_meanwind_180.txt.gz
Wind_Speed
15 14 14 14 13 12 12 12 11 11 11 11 11 10 9 9 9 9 9 9 9 9 8 8 8 8 8 8 8 8 8 9 9 9 9 10 10 10 11 11 11 12 12
17 16 16 15 15 14 13 13 12 12 13 12 12 12 11 11 10 10 10 9 9 9 9 9 9 9 9 9 9 9 9 9 10 10 10 11 11 11 12 12 12 12 13
19 18 18 17 16 16 15 14 14 13 13 14 14 13 13 12 11 11 11 11 10 10 10 10 10 11 11 11 10 10 10 10 11 11 11 11 12 12 13 13 13 13 14
21 20 19 19 18 18 17 16 16 15 15 15 15 15 14 14 13 12 12 12 12 12 11 12 12 12 12 11 11 12 12 12 12 12 13 13 13 13 13 14 14 14 15
23 22 21 21 20 19 18 18 17 17 16 16 16 16 15 15 14 14 14 13 13 13 13 13 13 13 13 12 12 13 13 13 13 14 14 14 14 14 15 15 15 15 16
25 25 24 23 22 21 20 19 18 18 17 17 17 17 16 16 15 15 15 14 14 14 14 14 14 14 14 14 14 14 14 15 15 15 15 15 15 15 16 16 16 17 17
28 27 26 25 24 22 21 20 20 19 18 18 18 18 18 17 16 16 16 15 15 15 15 15 15 15 15 15 15 15 16 16 16 16 16 16 16 17 17 17 17 18 18
30 30 28 27 25 24 22 21 21 20 20 19 19 19 19 18 17 17 16 16 16 16 16 16 16 16 16 16 16 17 17 17 18 18 18 18 18 18 18 19 19 20 20
32 31 30 29 27 26 24 23 22 21 21 21 20 20 20 19 19 19 18 18 17 17 17 17 17 17 17 18 18 18 18 19 19 19 19 19 20 20 21 21 21 22 22
33 33 32 31 29 27 25 24 24 23 22 22 21 21 21 21 20 20 19 19 19 19 18 18 18 18 18 19 19 19 20 20 20 20 21 21 21 22 22 23 23 23 23
34 33 33 32 31 29 27 25 25 24 24 23 22 22 21 22 22 21 21 21 20 20 20 20 20 19 19 19 20 20 21 21 21 22 22 23 23 23 23 24 24 24 24
35 34 33 32 32 30 29 27 26 26 25 24 23 23 23 23 23 23 22 22 22 21 21 21 21 21 21 20 21 21 22 22 23 23 24 24 24 24 24 25 25 25 25
36 34 33 33 33 31 30 28 27 27 26 26 25 24 24 24 24 24 24 23 23 23 22 22 22 22 22 22 22 22 22 23 24 24 25 25 25 25 26 26 26 26 26
36 35 35 33 33 32 31 30 27 27 27 27 27 26 26 25 25 25 25 25 25 24 24 24 24 24 24 24 24 24 24 24 24 25 25 25 26 26 26 27 26 27 27
36 35 35 34 33 32 32 31 30 29 28 28 28 28 27 27 27 27 26 26 26 26 25 25 26 26 26 26 26 26 26 26 26 26 26 27 27 27 27 27 27 28 28
35 34 33 33 33 33 32 32 32 30 29 28 29 29 29 29 28 28 28 28 28 27 27 26 26 26 26 26 27 27 27 27 27 27 27 27 27 27 27 27 27 28 28
36 35 34 33 34 33 32 32 32 32 31 30 29 29 29 29 30 30 30 30 29 29 28 27 27 27 26 27 28 28 28 27 28 28 28 28 28 28 28 27 28 28 28
35 36 35 34 34 34 33 33 33 32 32 31 30 29 30 31 31 30 30 30 31 30 30 28 27 28 28 29 29 29 29 29 29 29 29 29 28 28 28 28 28 29 29
34 34 34 34 34 34 34 34 34 33 33 32 32 30 30 30 31 31 30 30 31 31 30 30 29 30 29 29 30 30 30 30 30 30 30 29 29 29 30 30 30 30 31
32 33 33 33 34 34 34 34 34 33 33 32 32 32 31 31 31 31 31 31 32 32 32 32 31 31 31 31 31 31 32 32 31 31 30 30 30 31 31 31 32 32 32
31 32 32 32 32 34 34 34 33 32 31 31 31 33 32 31 32 33 33 33 34 34 34 34 34 33 33 33 32 33 33 33 32 32 32 32 32 32 32 32 33 34 34
30 30 30 30 31 32 33 33 32 31 31 31 31 32 33 33 33 33 34 34 34 35 35 35 35 35 35 34 34 34 34 34 34 34 34 34 34 34 34 34 34 35 35
28 28 27 28 29 30 31 31 32 31 31 32 32 32 33 34 34 35 35 35 35 36 36 35 36 36 35 35 35 35 35 35 35 35 35 35 35 35 35 35 35 35 36
28 27 27 27 28 28 30 31 32 32 32 33 33 34 34 34 34 35 36 35 36 36 36 36 35 36 36 36 36 36 36 36 35 35 36 36 36 36 37 37 36 36 37
27 27 27 27 28 29 30 31 32 33 33 34 34 34 34 35 35 36 36 36 37 37 37 38 38 37 37 38 38 38 38 38 38 37 37 37 37 38 38 38 38 38 38
27 27 27 28 28 28 29 31 32 33 33 34 34 34 35 36 37 37 37 37 37 38 38 38 39 39 39 40 40 40 40 39 39 39 39 39 39 39 40 40 40 40 40

GEFSSE_500_meanwind_186.txt.gz
Wind_Speed
17 16 15 14 13 13 12 11 10 9 8 8 9 8 8 8 7 7 7 7 6 6 6 6 6 6 6 6 6 7 7 7 8 8 9 9 9 10 10 11 11 11 12
19 18 17 17 16 15 14 13 12 11 10 9 10 10 10 9 9 9 9 8 8 8 8 7 7 7 7 7 7 8 8 9 9 10 10 11 11 11 11 12 12 13 13
22 21 20 19 18 17 16 15 14 13 12 11 10 11 11 11 10 10 10 10 9 9 9 9 9 8 8 8 8 9 10 10 11 11 11 12 12 12 13 13 13 13 14
24 23 22 21 20 19 18 16 15 15 13 12 11 11 11 11 11 11 11 10 10 10 9 9 9 9 9 9 9 10 10 11 11 12 12 13 13 13 13 14 14 14 15
27 25 24 23 22 21 20 18 17 16 15 14 12 12 12 12 12 12 11 11 10 10 10 10 10 10 10 10 10 11 12 12 12 13 13 14 14 14 14 15 15 16 16
29 28 26 25 24 23 21 20 19 18 16 15 14 14 13 13 13 13 13 12 12 11 11 11 11 11 11 11 12 12 12 13 13 14 14 14 14 15 15 16 17 17 18
31 31 29 28 26 25 23 22 21 20 18 17 16 15 14 14 14 14 14 14 14 13 13 13 13 13 12 12 13 13 13 14 14 15 15 15 16 16 17 17 17 18 19
34 33 31 30 29 27 25 24 22 22 20 19 18 17 16 15 15 15 15 15 15 14 14 14 14 14 14 14 14 14 14 15 15 16 16 17 17 18 18 18 19 19 20
35 34 34 32 31 29 27 26 24 23 22 20 19 18 18 17 17 17 17 16 16 15 15 15 15 15 15 15 16 16 16 16 17 17 17 18 18 19 19 19 20 21 21
36 36 35 34 32 31 29 28 26 25 24 22 21 20 19 19 18 18 18 18 18 17 17 16 16 16 16 16 17 17 18 18 18 19 19 19 20 20 21 21 22 22 22
37 36 36 34 33 32 30 30 28 26 25 24 23 22 21 20 20 19 19 19 19 19 19 18 18 18 18 18 18 19 19 20 20 20 21 21 21 21 22 22 23 23 23
37 36 36 36 35 33 32 30 29 28 26 26 26 24 23 22 22 21 21 21 21 21 20 20 20 20 20 20 20 20 20 21 21 22 22 23 23 23 23 23 23 23 24
36 36 36 36 36 35 34 32 30 29 28 27 27 27 25 24 23 23 22 22 22 22 22 22 22 22 22 21 21 21 22 22 23 23 24 24 24 24 24 24 24 24 24
37 37 37 36 36 35 34 33 32 31 29 28 27 27 26 25 25 25 24 24 23 23 23 23 23 23 23 23 23 23 24 24 24 24 24 25 25 25 25 25 25 25 24
37 37 37 37 35 35 35 34 32 32 31 29 28 28 28 27 26 25 25 25 25 24 24 25 25 25 25 25 25 25 25 25 25 24 25 25 25 25 25 25 25 25 25
38 37 36 36 36 35 34 34 34 33 32 30 30 29 29 29 28 27 27 26 26 26 26 26 26 26 26 26 26 27 26 26 26 26 26 26 27 27 26 26 26 27 27
38 38 37 36 36 34 33 34 34 33 33 32 32 31 30 30 29 28 28 28 28 27 27 27 28 28 28 27 28 27 27 27 28 27 28 28 28 27 27 27 27 28 28
39 38 37 37 35 35 34 34 35 34 33 33 33 33 32 31 30 29 29 29 29 29 28 28 28 29 29 29 29 29 29 29 29 29 28 29 29 29 29 28 29 29 29
37 36 36 36 35 35 34 34 35 35 34 34 34 34 34 33 32 31 30 30 30 30 30 29 30 29 30 30 30 30 30 30 30 30 30 30 30 30 30 30 30 30 31
35 35 35 35 34 34 34 35 34 34 34 33 34 35 35 35 34 33 31 31 31 31 31 31 31 31 31 31 31 32 32 32 31 32 32 32 32 32 32 31 31 31 32
35 35 34 35 35 34 34 34 34 34 33 34 34 34 35 35 35 35 33 32 31 31 32 33 33 33 33 33 33 34 34 34 34 33 33 33 33 33 33 33 33 33 33
33 34 32 34 33 33 34 32 32 33 34 35 35 33 33 33 34 35 36 34 33 33 34 34 34 34 35 35 34 35 35 35 35 34 34 34 34 34 35 35 35 35 35
29 31 31 31 33 33 33 32 32 32 32 33 34 34 34 34 34 33 34 35 35 36 35 34 35 35 36 36 36 36 37 36 36 36 36 36 36 36 36 37 37 37 37
27 29 29 28 31 31 32 33 33 33 33 33 33 34 35 34 33 33 34 34 34 34 35 35 35 36 37 37 38 38 39 39 39 38 38 38 38 38 38 38 38 38 38
28 28 29 29 29 31 32 31 32 32 33 34 34 34 34 34 33 33 33 34 34 35 36 37 37 37 38 38 39 39 40 41 41 40 39 38 39 39 39 39 39 39 39
28 27 29 28 28 30 32 33 32 32 33 34 34 34 33 34 34 35 35 36 36 37 38 39 39 39 39 40 41 41 42 42 41 41 40 39 39 40 40 40 40 40 41

GEFSSE_500_meanwind_192.txt.gz
Wind_Speed
20 19 18 17 16 15 14 13 13 12 11 10 10 10 9 9 9 8 7 7 6 6 6 5 5 4 4 4 3 3 4 4 4 4 4 5 6 6 7 8 8 8 9
22 21 19 19 18 17 16 15 14 13 12 12 11 11 11 10 9 9 9 8 7 7 6 6 6 5 5 5 4 4 4 4 5 5 5 6 7 7 8 8 9 9 10
24 23 21 20 20 19 18 17 17 15 14 13 12 12 12 11 11 10 10 9 8 8 7 7 7 6 6 6 5 5 5 5 5 6 7 7 8 9 9 9 10 10 11
25 24 23 23 22 21 20 19 19 17 16 15 14 13 13 12 12 11 10 10 9 9 8 8 7 7 7 7 7 6 6 6 6 7 8 9 9 10 10 10 11 11 12
27 26 26 25 24 23 22 21 21 20 18 17 16 15 15 14 13 13 12 11 10 10 10 9 9 8 8 8 8 8 7 8 8 8 9 9 10 10 11 11 12 12 13
29 29 28 27 27 26 25 24 23 22 20 19 18 16 16 16 15 15 14 13 12 11 11 10 10 10 9 9 9 9 9 9 9 10 10 10 11 12 12 13 13 14 14
30 31 30 29 29 28 27 26 25 24 22 21 19 19 18 17 16 16 16 15 13 13 12 12 11 11 11 10 10 10 10 10 10 11 11 12 12 13 13 14 14 14 14
32 32 32 31 31 30 29 28 27 26 25 23 22 20 19 18 18 17 17 16 15 14 14 13 13 12 12 12 12 12 12 12 12 12 13 13 14 14 14 15 15 15 15
33 33 33 32 32 32 31 30 29 27 26 25 24 22 21 20 20 19 18 18 17 16 15 14 13 14 14 14 14 14 13 13 13 14 14 15 15 15 15 16 16 16 16
33 33 34 33 33 33 33 32 31 30 28 26 25 25 23 22 21 20 20 19 18 18 17 16 15 15 15 15 15 15 15 15 15 15 16 16 16 16 17 17 17 17 17
33 33 34 34 34 33 33 33 32 31 30 28 27 26 25 24 23 22 21 21 20 19 19 18 17 17 17 17 17 17 17 17 17 17 17 17 18 18 18 18 18 18 18
33 33 33 33 34 34 34 33 32 32 30 30 28 27 27 26 25 23 22 22 22 21 20 19 19 18 18 18 18 19 19 19 19 19 19 19 19 19 19 19 19 19 20
33 34 34 34 34 34 34 33 33 32 31 31 30 28 28 27 26 25 24 23 23 23 22 21 20 20 20 19 19 20 20 20 20 20 20 20 20 20 21 21 21 21 21
33 34 34 34 35 34 34 34 33 33 32 32 31 30 29 28 28 27 26 24 24 24 23 23 22 22 21 21 21 21 21 21 21 22 22 22 22 22 22 22 23 23 23
34 35 35 34 34 34 35 35 35 34 33 32 32 31 30 29 29 28 28 27 26 25 25 24 24 24 23 23 23 23 22 22 23 23 23 23 23 23 23 23 24 24 25
34 35 36 35 35 35 35 35 35 35 34 33 32 32 31 31 30 29 29 29 28 27 27 26 26 26 25 25 25 25 25 24 24 24 25 25 24 25 25 25 26 26 26
34 35 36 36 36 36 37 35 35 36 35 34 33 32 31 31 31 31 30 30 30 30 29 28 27 27 27 27 27 26 26 26 26 26 26 26 26 26 26 27 27 27 27
34 36 36 37 37 36 37 37 36 37 36 35 34 33 32 32 32 32 32 31 31 31 31 30 29 28 28 28 28 27 28 27 27 28 27 27 27 27 28 28 28 28 28
34 36 37 38 37 37 37 38 38 37 37 37 36 34 32 32 33 33 33 33 33 32 32 32 31 30 29 29 29 29 29 29 29 30 29 29 29 29 29 29 29 29 29
34 36 37 38 37 37 37 38 38 38 38 37 36 36 34 33 33 33 34 34 34 34 33 32 32 31 30 30 30 30 31 31 31 31 31 31 31 31 31 31 31 31 31
33 35 36 37 37 36 37 38 38 38 37 37 36 36 36 34 33 33 34 35 35 35 34 34 33 32 32 32 32 32 32 32 32 33 33 33 32 32 32 32 32 32 33
33 34 35 36 37 36 37 38 37 37 37 37 37 37 36 36 35 34 34 35 36 36 35 36 35 34 33 34 34 34 34 34 33 33 34 34 33 34 34 34 34 34 34
33 34 35 37 37 37 37 38 36 37 36 36 37 37 37 37 36 35 34 34 35 35 36 37 37 36 36 36 35 36 35 36 35 35 36 36 36 36 37 38 37 37 37
31 33 34 36 37 35 35 36 35 35 35 35 36 37 37 37 37 36 36 35 36 36 36 37 37 38 37 37 37 37 37 38 38 37 37 38 38 39 39 39 39 39 39
29 30 33 35 36 35 34 35 34 34 35 34 35 36 37 37 36 36 36 36 36 36 37 38 38 39 39 38 38 39 39 39 39 39 39 39 39 40 41 41 40 40 40
28 29 30 33 34 35 34 34 34 34 34 35 36 36 36 36 36 36 36 37 37 37 37 38 39 39 40 40 40 40 41 40 41 41 41 40 40 41 42 42 42 41 41

GEFSSE_500_meanwind_198.txt.gz
Wind_Speed
19 19 18 17 17 17 17 16 15 14 14 13 12 12 12 12 11 10 10 9 9 8 7 7 6 6 5 4 4 4 3 3 2 2 2 2 3 3 4 5 6 6 6
21 21 20 19 18 18 18 18 17 16 15 15 14 14 14 13 13 12 11 10 10 9 9 8 8 7 6 6 5 4 4 4 3 3 3 3 3 4 5 6 6 6 7
22 22 22 22 21 20 20 19 18 17 17 16 16 15 15 15 14 14 13 12 11 10 10 9 9 8 7 7 6 5 5 5 5 4 4 4 4 5 5 6 7 7 8
24 24 23 23 23 23 22 21 20 19 18 18 17 17 17 16 15 15 14 13 13 12 11 10 10 9 9 8 8 7 6 6 6 6 5 6 6 6 6 7 7 8 8
26 26 25 25 24 24 24 23 22 21 20 19 19 19 18 17 16 16 16 15 14 13 13 12 11 11 10 10 10 9 8 7 7 7 7 7 7 7 8 8 9 9 9
27 27 27 26 26 26 26 25 24 23 22 21 21 20 20 19 18 17 17 16 15 15 14 13 13 12 11 11 11 11 10 9 8 8 8 8 8 8 9 9 10 10 10
29 28 28 27 27 27 27 27 26 25 23 22 22 22 22 21 20 19 18 18 17 16 15 14 14 13 13 12 12 12 12 11 10 9 9 9 9 9 10 10 10 11 12
30 29 27 28 28 28 28 28 27 26 25 24 24 24 23 23 21 21 20 19 18 17 16 16 15 15 14 13 13 13 13 12 12 11 11 11 11 11 11 12 12 13 13
30 30 29 28 28 28 28 28 28 27 27 26 25 25 24 24 23 22 21 21 20 19 18 17 17 16 16 15 14 14 13 13 13 13 13 13 13 13 13 13 14 14 14
31 30 30 29 28 28 28 29 29 28 28 27 26 26 26 25 24 24 23 22 21 20 19 18 18 17 17 16 16 15 15 14 14 14 14 14 14 14 14 15 15 15 16
32 31 30 30 29 28 29 29 29 29 28 27 28 28 26 26 25 25 24 24 23 21 21 20 20 19 18 18 17 17 16 16 16 16 16 16 16 16 16 17 17 17 17
32 31 31 31 30 29 30 30 30 29 28 28 28 28 28 27 26 26 26 25 24 23 22 22 21 21 20 19 19 19 18 17 18 17 17 17 17 17 18 18 18 18 18
33 32 31 30 31 31 30 31 31 31 30 29 28 28 28 27 27 27 27 27 26 25 24 23 23 23 22 21 20 19 19 19 19 19 19 19 19 19 19 19 19 19 19
35 34 32 32 31 32 31 31 32 31 30 30 30 29 29 28 28 28 28 28 27 27 26 25 25 24 24 23 22 22 21 21 21 21 21 20 20 20 20 21 20 20 21
36 35 35 34 33 33 33 32 31 31 31 31 30 30 29 29 29 28 29 29 29 28 27 27 26 25 26 25 24 23 22 22 22 22 22 22 22 22 22 22 22 23 23
37 36 36 36 35 34 34 33 32 31 31 32 32 31 31 30 29 29 29 29 29 29 29 28 28 27 27 27 26 25 24 24 24 24 24 24 24 24 24 24 24 24 25
37 37 37 37 37 37 35 35 33 32 31 31 32 32 32 31 31 30 30 29 29 30 30 29 29 29 28 28 27 27 27 26 26 26 26 26 26 26 25 25 25 26 26
38 38 38 38 38 38 38 36 35 34 32 32 32 31 31 31 32 32 31 31 30 30 31 31 30 30 30 29 29 29 28 28 27 27 27 27 27 27 27 27 27 27 27
36 37 38 38 38 38 39 38 37 35 35 33 33 31 32 32 33 33 33 32 31 31 31 32 32 32 32 32 31 31 31 30 29 29 29 28 28 29 29 29 29 29 29
35 37 38 38 38 39 39 39 38 37 36 35 35 33 33 33 33 33 34 34 32 32 31 31 32 34 34 34 33 33 33 32 31 31 31 30 30 30 31 31 31 31 30
34 36 38 39 39 39 40 39 38 38 38 37 36 34 33 33 34 34 34 34 33 33 33 33 32 34 35 35 35 35 34 34 33 33 33 33 33 33 32 32 32 32 32
34 35 37 37 38 37 38 39 39 38 39 37 36 36 35 34 34 35 35 36 36 36 35 35 35 34 35 36 36 36 37 36 36 35 36 35 35 35 34 34 33 33 34
34 35 35 35 37 38 38 39 39 39 39 38 37 38 37 37 37 37 37 37 38 37 37 37 37 36 36 37 37 37 37 37 37 37 36 36 36 36 36 36 36 36 36
34 36 35 35 36 36 37 38 39 40 39 39 39 39 38 37 37 37 36 37 38 38 38 38 38 38 38 38 38 38 39 39 39 39 38 39 38 38 38 39 39 38 38
33 36 36 35 36 36 37 38 39 40 39 38 39 40 39 39 38 38 37 37 37 38 39 39 40 40 39 40 40 40 40 39 40 41 40 40 40 40 40 41 41 41 40
32 34 35 35 35 37 38 39 39 40 40 39 38 38 39 39 39 39 38 38 38 38 40 40 40 41 41 41 41 41 41 41 41 41 41 41 41 42 42 42 42 42 42

GEFSSE_500_meanwind_204.txt.gz
Wind_Speed
17 16 15 15 15 15 15 15 15 14 14 14 13 13 13 12 12 11 11 10 10 9 9 9 9 8 7 7 6 6 5 5 5 4 3 3 2 2 2 2 3 4 4
19 18 17 17 16 16 17 17 16 16 16 15 15 15 14 14 13 13 13 12 12 11 10 10 10 9 9 8 8 7 7 6 6 5 4 4 3 3 3 3 4 4 4
20 20 20 19 19 18 18 18 18 18 17 17 16 16 15 15 15 14 14 14 14 13 12 12 11 10 10 10 9 8 8 7 7 6 6 5 5 4 4 4 4 5 5
21 22 22 21 21 21 20 20 20 19 19 18 18 17 17 17 16 16 16 16 15 15 14 14 13 12 11 10 10 9 9 9 8 7 7 6 6 5 5 5 5 6 6
22 23 23 23 23 22 22 22 22 21 20 20 19 19 18 18 18 17 17 17 17 16 16 15 15 13 13 12 11 11 10 10 9 9 8 7 7 6 6 6 6 7 7
23 23 24 24 24 23 24 24 23 22 22 21 21 20 20 19 19 19 18 18 18 18 17 17 16 15 14 13 12 12 11 11 10 10 9 9 8 8 7 7 8 8 8
25 25 25 25 25 24 24 24 24 23 23 23 22 22 21 20 20 20 20 19 19 19 19 19 18 17 16 15 14 14 13 12 11 11 11 11 10 9 9 9 9 9 9
27 27 27 26 26 25 24 25 25 25 24 23 23 23 23 22 21 20 21 21 20 20 20 20 20 19 18 17 16 15 14 13 13 13 13 12 12 11 11 10 10 11 11
29 28 28 28 27 27 26 25 25 25 25 25 24 24 24 24 23 22 22 22 22 22 21 21 21 20 19 18 17 17 16 15 15 14 14 13 13 12 12 12 12 12 12
31 30 30 30 29 28 27 27 26 26 26 26 25 25 24 24 24 23 24 24 24 23 23 23 22 21 21 20 19 18 18 17 16 16 15 15 15 14 14 13 14 14 14
33 32 32 32 31 29 28 28 27 27 27 27 26 26 26 25 25 25 25 25 25 25 24 24 24 23 22 21 20 19 19 18 18 17 17 17 16 16 15 15 15 16 16
33 33 33 34 33 32 31 30 29 28 28 28 28 28 27 27 26 25 25 26 26 26 26 25 26 25 24 23 22 22 20 20 20 19 18 18 18 18 17 17 17 17 18
33 33 34 34 34 34 33 32 31 30 30 29 29 29 28 28 28 27 26 26 27 27 26 26 26 27 26 25 24 23 22 21 21 21 20 19 20 20 20 19 19 20 19
34 34 34 35 35 35 34 34 32 32 31 30 30 30 30 29 29 28 28 27 27 27 27 27 27 27 28 27 26 24 24 23 23 22 22 21 21 21 21 21 21 21 21
34 34 35 35 36 36 35 35 33 32 32 31 31 31 31 31 30 29 29 28 28 28 28 28 28 28 28 28 27 26 25 25 24 23 23 23 23 23 23 23 23 22 22
35 34 36 36 36 37 37 36 35 34 33 32 32 32 32 31 30 29 29 29 29 29 29 29 29 29 29 29 28 28 27 26 26 25 25 25 25 25 25 24 24 23 23
35 34 36 36 36 37 38 38 37 36 35 34 33 33 33 32 30 30 30 31 30 30 30 30 30 30 30 30 30 29 29 28 27 27 26 26 26 26 26 26 25 25 25
35 35 36 37 36 37 39 39 39 38 37 36 35 34 34 33 31 31 31 31 32 31 31 31 32 32 32 32 31 31 30 31 29 29 29 28 28 27 27 27 27 27 27
35 36 36 37 37 37 39 40 40 40 39 37 37 37 36 35 33 31 31 32 32 33 33 33 33 33 33 33 32 31 32 32 32 31 31 30 30 29 29 29 30 30 29
35 35 37 38 38 38 39 40 42 41 41 40 39 39 38 36 34 32 32 31 31 33 34 34 34 34 34 33 33 32 32 33 33 34 33 32 32 32 31 31 31 32 32
35 35 35 37 38 39 39 40 41 41 42 41 41 40 40 38 36 34 34 33 33 33 34 35 35 35 34 34 35 34 34 34 34 34 34 34 34 34 34 34 34 34 34
34 36 36 38 39 39 39 40 41 42 42 42 41 40 41 40 38 37 36 36 35 34 35 36 37 37 37 37 37 37 37 37 36 36 36 36 36 36 36 36 36 36 36
33 35 36 38 39 40 40 41 40 41 42 43 42 42 41 41 39 38 38 38 38 37 37 37 38 38 39 40 40 39 39 39 38 38 37 37 37 37 37 37 37 38 38
33 34 35 37 38 39 40 42 41 41 41 43 43 44 43 43 42 40 39 39 39 39 39 39 38 39 40 41 41 41 41 41 40 39 39 39 39 39 39 39 39 39 39
33 34 34 36 37 38 40 41 42 41 40 41 42 44 44 44 44 42 40 40 40 40 40 40 39 40 40 41 41 42 42 42 42 41 41 41 42 41 41 40 40 41 41
32 32 33 35 37 38 40 41 41 41 40 41 42 42 43 43 43 43 41 41 41 42 42 42 41 41 41 42 43 43 43 43 42 42 42 43 43 43 43 43 43 43 43

GEFSSE_500_meanwind_210.txt.gz
Wind_Speed
17 16 16 15 15 14 14 13 12 12 12 12 11 10 9 9 8 7 7 7 7 7 7 7 7 7 6 6 6 5 4 4 3 3 3 3 2 2 2 3 3 3 4
19 18 17 17 16 16 16 15 14 14 13 13 13 12 11 10 10 9 8 8 8 8 8 8 8 8 8 7 7 6 6 5 5 4 4 4 3 3 3 3 3 4 4
20 20 19 19 18 17 17 17 16 16 15 15 14 14 13 12 11 11 10 10 10 9 9 9 10 9 9 9 8 8 7 7 6 6 5 5 4 4 4 4 4 4 5
21 21 21 20 20 19 19 18 18 17 16 16 16 15 14 14 13 12 12 11 11 11 11 11 11 11 10 10 10 9 9 8 8 7 7 6 5 5 5 5 5 5 6
22 22 22 22 21 21 21 20 20 19 18 17 17 17 16 15 14 14 13 13 13 13 13 13 13 12 11 11 11 11 10 9 9 8 8 7 7 6 6 6 6 6 7
24 23 23 23 22 22 22 22 21 21 20 19 19 18 18 17 16 16 15 14 14 14 14 14 14 14 13 12 12 12 11 11 10 9 9 9 8 8 8 8 8 8 8
25 25 25 24 23 23 23 23 23 22 21 20 20 20 19 18 18 18 17 16 16 16 16 16 16 15 15 14 14 13 13 12 12 11 10 10 10 10 9 9 9 10 10
26 27 26 25 25 25 24 24 24 23 23 22 21 21 20 19 18 18 18 18 18 18 17 17 17 17 16 15 15 15 15 14 13 12 12 12 11 11 11 11 11 11 11
27 27 27 27 27 26 26 26 25 25 24 23 23 22 21 20 19 19 19 19 19 19 18 18 18 18 18 17 17 17 16 16 15 14 14 13 13 13 13 13 13 13 13
27 28 28 28 28 28 27 27 26 26 26 25 24 23 22 22 21 20 20 20 20 19 19 19 19 19 20 19 18 19 18 18 17 16 15 15 15 14 14 14 14 14 14
28 28 28 28 29 30 29 29 28 28 28 27 26 25 24 23 23 22 22 22 21 21 20 20 19 19 20 20 20 20 20 19 19 18 18 17 16 16 16 16 16 15 16
29 29 29 29 29 31 31 30 30 30 29 29 28 27 26 25 24 24 24 23 23 23 22 21 21 21 21 21 21 22 22 22 21 20 19 19 18 17 17 17 17 17 17
29 30 30 30 30 30 32 33 32 32 31 30 30 29 28 27 26 25 25 25 24 24 24 23 23 23 23 23 23 23 23 23 22 21 21 20 20 19 19 19 19 19 19
29 30 31 31 31 31 32 34 34 34 33 32 31 30 30 30 29 28 27 26 26 25 25 25 24 24 25 25 25 25 24 24 23 22 22 22 21 20 20 20 20 20 20
29 30 32 32 32 33 33 34 36 36 35 34 33 32 32 32 31 30 29 28 27 27 27 26 26 25 25 26 27 27 26 26 25 24 23 23 23 22 22 21 21 22 22
32 32 32 33 33 33 34 34 36 37 36 36 35 34 33 33 33 33 32 30 29 29 28 28 27 26 26 27 27 28 28 28 27 27 25 25 24 24 24 23 23 23 22
33 33 34 33 34 34 35 36 36 37 37 37 37 36 35 35 35 34 34 33 32 31 30 30 29 28 27 27 28 29 29 29 30 29 28 27 27 26 26 26 25 25 24
35 34 35 35 35 36 36 37 38 38 38 38 38 38 37 36 35 35 35 35 34 33 32 31 31 30 29 29 29 30 30 31 31 31 30 30 29 28 27 28 28 27 27
35 35 35 36 36 36 37 38 38 39 40 39 40 40 39 38 37 36 36 36 36 35 34 33 33 31 31 31 32 32 32 32 33 32 32 32 31 30 30 30 30 29 29
35 36 36 36 37 37 37 38 39 40 40 40 41 41 41 39 39 37 37 37 37 36 36 35 34 33 33 33 33 33 34 34 34 35 35 34 33 32 32 32 32 31 30
36 36 37 37 37 38 38 38 39 41 41 41 41 42 42 41 40 39 39 39 38 38 37 36 36 35 35 35 35 35 36 37 37 37 37 36 35 35 34 33 33 33 32
36 36 37 37 38 38 38 37 38 41 41 41 41 42 42 43 41 40 41 41 40 38 38 37 37 37 36 36 36 37 38 39 39 40 39 38 38 37 36 36 36 35 35
36 36 37 38 38 38 38 38 39 40 41 41 41 41 43 43 43 42 42 42 43 41 40 40 39 38 37 37 37 37 38 39 40 40 41 40 40 39 39 39 39 38 38
36 36 37 38 38 38 38 38 40 41 42 42 41 41 43 44 45 44 44 44 44 43 41 41 40 40 40 39 39 39 39 39 40 40 41 42 42 42 41 40 40 40 40
35 36 36 37 37 38 38 37 38 40 42 43 43 43 43 44 46 46 45 45 46 44 43 43 42 42 42 42 42 41 40 40 41 41 41 42 42 43 43 43 43 42 41
34 35 36 37 37 38 38 39 39 39 42 42 43 44 44 44 45 47 48 47 47 46 46 45 45 44 43 43 43 42 42 42 42 43 43 43 43 43 44 44 45 44 44

GEFSSE_500_meanwind_216.txt.gz
Wind_Speed
17 17 16 16 15 14 13 13 13 13 12 11 11 11 11 11 10 9 9 8 8 8 8 7 7 6 6 5 5 4 4 4 3 3 2 1 1 0 1 1 1 2 2
20 19 19 18 17 16 15 15 15 14 14 13 13 13 13 13 12 11 10 10 9 9 9 8 8 7 6 6 5 5 5 5 5 4 3 3 2 2 1 1 2 2 2
22 21 20 20 19 18 17 16 16 16 16 15 15 14 14 14 13 13 12 11 11 10 9 9 9 8 7 7 7 6 6 6 6 6 5 4 3 3 3 2 2 3 3
23 23 22 21 21 20 19 18 18 18 18 17 17 16 15 15 15 14 14 13 12 12 11 10 10 9 8 8 7 7 7 7 7 7 6 5 5 5 4 4 4 4 4
25 24 24 23 22 21 21 20 20 20 19 19 18 18 17 16 16 16 15 15 14 13 12 11 11 10 10 9 9 9 8 8 8 8 8 7 7 7 6 6 5 5 5
26 25 25 25 24 23 23 22 21 21 21 20 20 19 19 18 18 17 17 16 15 15 14 13 12 12 11 11 10 10 10 10 10 10 9 9 9 8 8 7 7 7 7
27 27 26 26 25 24 24 23 22 22 22 22 22 21 21 20 19 19 18 17 16 15 15 15 15 14 13 13 12 12 12 11 11 11 11 11 10 9 9 9 8 8 8
28 28 28 28 27 26 25 24 24 23 23 23 23 23 22 22 21 20 20 19 18 18 17 16 16 15 15 14 14 14 13 13 13 13 13 12 11 11 10 10 10 9 9
28 29 28 29 29 28 27 26 25 24 24 24 24 24 24 23 23 22 21 21 20 20 19 18 18 17 16 16 16 15 15 15 15 14 14 14 13 12 12 12 11 11 11
29 29 29 29 29 29 29 28 27 27 26 26 26 25 25 25 24 23 22 21 21 21 20 19 19 18 17 17 17 17 17 17 17 16 16 16 15 15 14 13 13 13 12
30 30 30 30 30 29 29 30 30 29 28 27 28 27 27 27 26 25 24 23 21 22 22 21 20 20 19 18 18 18 18 18 19 19 18 18 17 17 16 15 15 14 14
30 31 31 31 31 30 30 29 30 30 30 29 29 29 29 28 28 28 27 26 24 23 23 22 22 22 21 21 20 20 19 19 20 20 19 19 19 19 18 17 17 16 16
30 31 31 32 32 31 31 31 30 29 30 30 30 30 30 30 30 29 29 28 28 26 25 24 23 23 22 22 22 22 22 22 21 21 20 20 20 21 20 20 19 18 18
31 31 33 32 33 33 32 32 32 31 31 30 30 31 31 31 31 31 31 31 30 29 27 27 26 25 24 23 23 23 24 24 23 23 22 22 22 22 22 21 21 21 20
32 32 32 33 33 34 34 33 33 33 33 32 32 32 32 32 33 33 33 32 31 31 30 28 28 27 27 26 25 25 25 25 24 24 24 23 24 24 23 23 22 22 22
31 33 33 33 33 34 34 34 34 33 34 34 34 33 33 33 34 34 34 34 33 33 32 31 30 29 29 28 27 27 27 27 27 26 25 25 24 24 25 25 24 23 23
32 32 32 33 34 34 35 35 35 35 35 35 34 35 35 35 35 35 35 36 35 34 33 33 32 32 31 30 29 30 29 29 29 29 28 27 26 26 26 26 26 25 25
33 33 32 33 33 34 35 36 37 36 35 34 35 35 36 36 36 36 36 37 38 37 36 34 34 33 33 32 32 32 32 31 31 30 31 31 30 29 29 29 28 28 27
34 34 33 34 34 34 35 36 38 38 36 36 36 37 37 37 38 38 38 38 39 40 39 37 36 35 34 34 34 34 34 33 32 32 32 32 33 32 32 31 30 30 29
34 35 34 34 35 36 36 37 38 38 38 38 37 38 38 38 38 39 40 40 40 39 39 38 38 37 37 36 36 36 36 35 34 34 34 34 34 35 35 34 33 33 32
36 35 35 35 36 37 37 38 38 39 40 39 39 39 39 40 40 40 40 41 41 40 39 39 39 39 38 38 38 37 37 36 36 36 36 36 36 37 37 37 36 36 35
36 36 36 37 37 38 38 39 39 40 41 41 40 40 40 41 42 42 41 42 41 41 41 41 40 40 39 39 39 39 38 38 37 37 37 38 38 38 39 39 38 38 38
35 36 37 38 38 38 38 39 39 40 41 41 41 41 41 41 42 43 42 43 43 41 40 40 41 41 41 41 41 40 40 39 39 38 38 38 39 40 41 42 41 40 41
36 37 37 38 38 38 38 38 38 39 40 41 41 41 42 42 43 44 43 44 44 43 42 42 41 42 42 42 42 42 41 41 41 40 40 40 40 41 42 43 42 42 42
37 37 38 38 38 38 38 38 38 38 39 41 41 41 41 41 41 43 43 45 45 45 45 44 43 44 44 45 44 44 43 43 43 43 42 42 43 43 43 43 43 43 44
37 38 38 39 39 40 39 39 39 39 40 41 41 42 42 42 42 43 44 45 45 45 46 46 45 45 45 46 46 45 45 45 45 45 45 45 44 44 44 44 44 44 45

GEFSSE_500_meanwind_222.txt.gz
Wind_Speed
17 17 17 16 15 14 14 14 14 13 13 12 11 9 9 8 8 9 9 9 8 8 8 8 8 7 6 6 5 5 5 4 4 3 2 2 2 2 3 3 3 3 4
19 18 18 18 17 17 16 16 15 15 14 14 13 11 10 10 9 10 10 10 10 10 9 9 9 8 7 7 6 5 5 5 5 4 3 2 2 2 2 2 2 3 3
21 20 20 20 19 19 18 18 17 17 16 15 14 13 12 11 11 11 11 12 12 11 10 10 10 9 8 8 7 6 6 6 5 5 4 3 2 1 0 1 1 2 3
23 22 22 22 21 21 20 20 19 18 18 17 16 15 14 13 13 12 12 13 14 13 12 11 11 10 10 9 8 7 6 6 6 5 5 4 3 3 2 1 1 2 2
24 24 24 23 23 23 22 22 21 20 19 19 18 17 17 15 15 14 14 14 15 15 14 13 12 12 11 10 9 8 8 7 7 7 6 6 5 5 4 3 3 3 3
26 26 26 25 25 24 24 23 23 22 21 21 20 19 18 18 17 16 15 15 16 16 15 15 14 13 13 11 10 10 9 9 9 8 8 7 6 6 6 5 5 4 4
28 28 27 27 26 26 25 25 24 23 23 23 22 21 20 19 19 18 17 16 17 17 16 16 16 15 14 14 12 12 11 10 10 9 9 9 8 8 7 7 7 6 6
29 29 29 28 28 28 27 27 26 25 25 24 24 23 22 21 20 20 19 18 18 18 18 17 17 16 16 16 14 13 13 12 12 11 11 11 10 9 9 9 8 8 8
30 30 30 29 29 29 29 28 27 27 26 25 25 24 24 23 22 22 21 20 20 20 20 19 19 18 17 17 16 15 14 13 13 13 13 13 13 12 11 11 10 10 10
30 31 31 30 30 30 30 29 28 28 28 27 26 25 25 24 24 23 23 22 21 21 21 21 20 20 19 18 18 17 15 15 15 14 15 15 15 14 14 13 13 12 12
30 31 31 31 30 31 31 30 30 29 29 29 28 27 27 26 25 24 24 23 23 23 23 23 22 22 21 20 19 19 17 17 16 16 17 17 17 16 16 16 15 15 14
30 31 32 32 32 31 31 31 31 31 30 30 30 29 28 28 27 26 26 25 25 24 24 24 24 23 22 22 21 20 20 19 18 18 18 18 18 18 18 18 18 17 17
30 30 31 32 33 33 32 32 32 32 31 30 30 30 30 29 29 28 28 27 26 26 26 26 25 25 24 23 22 22 21 21 20 20 19 19 20 20 20 19 19 19 19
30 31 31 32 32 33 34 33 33 33 33 32 31 30 30 30 30 30 29 29 28 28 28 28 28 27 26 26 25 24 23 23 23 22 22 21 21 21 21 21 21 21 20
30 31 32 32 32 33 33 33 33 33 33 33 32 31 30 29 30 30 30 30 30 29 30 30 30 29 29 28 28 27 26 25 24 24 24 24 24 23 23 23 23 23 22
31 31 31 32 32 32 33 33 33 33 33 33 33 32 32 31 30 30 30 30 30 30 30 30 31 31 31 30 30 30 29 28 27 27 26 27 26 26 26 25 25 26 25
32 32 32 32 32 32 33 33 34 34 34 34 34 34 33 33 32 31 31 31 31 30 30 31 31 31 32 32 32 31 31 31 31 30 29 29 29 28 28 28 28 28 27
33 33 33 33 33 33 33 33 34 35 35 35 36 35 35 34 34 34 34 33 32 32 32 32 32 32 33 33 33 33 33 32 32 31 31 31 31 31 31 30 30 30 30
34 34 34 35 35 34 34 34 34 35 36 36 37 37 36 36 36 36 36 35 34 33 33 34 34 34 34 35 34 35 35 34 33 33 33 33 33 33 33 32 32 32 32
34 35 36 36 35 34 34 35 35 35 36 36 37 38 37 37 37 37 37 36 36 36 35 35 35 35 35 36 36 37 36 36 36 35 35 35 35 35 35 35 35 34 34
35 35 36 37 36 36 35 35 35 35 36 36 37 38 38 38 38 37 37 37 37 37 38 38 37 37 37 37 36 36 37 37 37 38 37 36 36 37 37 37 38 37 36
36 36 36 36 36 36 36 37 37 36 36 36 37 38 38 39 38 38 38 38 38 38 39 39 39 39 38 38 38 37 38 38 39 39 38 38 38 38 39 39 39 39 38
37 37 37 37 37 37 37 38 38 37 37 38 38 38 39 39 40 39 39 39 39 40 40 41 41 41 40 40 40 40 39 38 38 39 40 39 39 39 40 40 41 40 40
38 38 38 38 38 37 38 39 39 38 38 38 39 39 39 40 41 41 40 40 39 40 41 41 41 41 41 41 41 40 41 41 40 39 40 39 40 40 41 41 42 43 42
39 38 38 38 38 38 38 38 39 39 39 40 40 40 40 41 41 42 42 42 41 41 41 42 42 42 42 41 41 41 41 42 42 41 41 41 42 42 43 43 43 43 44
40 39 39 39 39 38 38 38 39 39 40 40 40 41 41 42 42 42 42 43 43 43 42 42 42 42 43 43 43 43 43 42 42 42 42 43 43 44 44 44 44 45 45

GEFSSE_500_meanwind_228.txt.gz
Wind_Speed
14 14 14 14 13 13 13 12 12 11 11 10 9 9 8 8 7 8 8 8 8 8 8 8 7 6 6 6 6 6 6 5 5 5 4 3 3 3 3 3 4 4 5
16 17 16 16 15 15 14 14 14 13 13 12 11 10 10 9 8 8 9 8 9 9 9 9 8 7 7 7 7 7 6 6 5 5 4 3 2 2 2 2 2 3 3
18 18 18 18 17 17 16 16 16 15 14 14 13 13 12 11 10 9 9 9 9 10 10 10 9 9 8 8 8 7 7 7 6 5 5 4 3 2 1 1 1 1 2
20 20 19 19 19 19 19 18 18 17 16 16 15 15 14 13 12 11 10 10 10 11 11 11 11 10 10 9 9 9 8 8 7 7 6 5 4 4 3 1 1 1 1
22 21 21 21 21 21 20 20 20 19 19 18 17 17 16 15 14 13 12 12 12 12 12 12 12 12 11 11 10 10 10 9 8 8 7 7 6 5 4 3 2 2 2
23 23 23 23 22 22 22 22 22 21 21 20 19 19 18 17 16 16 15 14 14 14 14 14 13 13 12 12 11 11 11 11 10 9 9 8 8 7 6 5 5 4 4
25 25 25 24 24 23 23 23 23 23 23 22 22 21 20 20 19 18 17 16 15 15 15 15 14 14 14 13 13 12 12 12 12 11 10 10 9 9 8 7 7 7 7
27 27 27 26 25 25 25 24 24 24 24 24 23 23 22 22 21 20 19 18 17 16 16 16 15 15 15 15 14 13 13 13 13 13 12 12 11 11 10 10 9 9 9
28 28 28 28 28 27 26 26 25 25 25 25 25 24 24 23 23 22 21 20 19 18 17 17 17 17 17 16 16 16 15 14 14 14 14 13 13 13 13 12 12 12 11
30 30 30 30 29 29 28 27 27 27 27 27 26 26 25 25 24 24 23 22 21 21 20 19 18 19 19 18 18 18 18 17 16 16 16 16 15 15 15 15 14 14 14
30 30 30 30 30 30 29 28 28 28 28 28 27 27 26 26 25 25 24 24 23 23 22 21 20 20 21 20 20 19 19 19 18 18 18 18 17 17 17 17 17 17 16
28 29 30 30 30 30 30 30 29 29 29 29 28 28 28 27 26 26 25 25 25 24 23 23 22 22 22 22 22 21 21 21 20 19 19 19 19 19 18 19 19 19 18
29 29 29 30 30 30 30 30 30 30 30 29 29 29 29 28 28 27 27 26 26 25 25 24 24 23 23 23 23 23 22 22 22 21 20 20 20 20 19 20 20 20 20
29 29 29 29 30 30 31 31 31 31 31 30 30 30 30 29 28 28 28 28 28 28 27 26 26 25 24 25 25 25 24 25 25 24 23 22 22 22 22 22 22 22 22
29 29 29 30 30 30 31 31 31 31 31 31 31 31 30 30 29 29 28 29 29 29 29 29 28 27 27 27 27 26 26 27 27 27 26 25 25 25 25 24 24 24 23
30 29 30 30 30 30 31 32 32 32 32 32 32 32 31 31 31 31 30 30 29 29 29 28 28 28 28 28 27 28 28 28 29 29 29 28 28 28 28 28 27 26 26
31 30 30 31 31 31 31 31 32 32 33 33 33 33 32 32 32 32 31 31 30 30 30 29 29 29 29 29 29 29 29 29 29 30 30 30 30 30 30 30 29 29 28
33 31 31 32 32 32 32 32 32 32 33 33 33 33 33 33 33 33 33 33 32 31 31 31 30 31 31 31 31 31 31 31 30 30 31 32 32 32 32 32 32 31 31
34 33 32 32 33 34 34 34 33 33 33 33 34 34 34 34 34 34 34 34 34 33 32 33 32 32 32 32 32 32 32 32 32 31 31 32 33 32 33 33 34 33 33
35 34 34 33 34 34 35 35 34 34 34 34 34 34 34 34 35 35 35 35 35 35 34 34 33 33 34 33 33 33 33 33 33 33 32 32 33 33 34 34 35 35 35
37 36 35 34 34 34 34 34 34 34 35 35 35 35 35 35 36 36 36 36 36 36 36 35 35 35 35 35 34 34 34 35 35 35 34 33 34 34 35 36 36 37 37
38 37 36 36 35 35 35 35 36 36 36 36 36 36 36 36 37 37 37 37 37 37 37 37 36 36 36 37 37 36 35 35 36 35 35 36 36 36 36 37 37 38 38
39 38 37 36 36 36 37 37 37 37 37 36 36 37 37 38 38 38 39 39 39 39 39 39 39 38 38 38 38 38 38 37 36 36 36 37 38 38 38 39 39 40 41
39 39 39 38 37 36 37 38 38 37 37 36 37 38 39 39 39 39 40 40 40 39 39 40 40 40 40 40 40 39 40 39 39 38 38 38 39 39 40 40 40 41 42
41 41 40 38 38 38 38 39 39 39 38 38 38 39 39 40 40 39 39 40 40 40 39 40 40 40 40 40 40 40 40 40 40 40 40 40 40 41 41 41 41 42 42
42 42 41 39 38 38 39 40 40 39 39 39 39 39 39 39 39 39 39 40 40 40 40 40 40 40 40 40 40 40 40 41 41 41 41 41 41 42 42 43 43 43 43

GEFSSE_500_meanwind_234.txt.gz
Wind_Speed
15 14 14 13 13 12 12 12 11 10 9 8 7 7 6 5 5 5 5 5 4 4 4 4 4 4 4 5 4 4 4 3 3 2 2 1 1 2 2 3 3 4 5
16 16 16 15 15 14 13 13 12 12 11 9 9 8 7 7 6 6 5 5 5 4 4 4 4 5 5 5 5 5 4 4 3 3 2 1 0 1 1 2 3 3 4
19 18 18 17 17 16 15 14 14 13 12 11 10 10 9 8 8 7 7 7 6 6 5 5 5 5 5 5 6 5 5 4 4 3 3 2 2 1 0 1 1 2 3
20 20 20 19 19 18 17 16 15 15 14 13 12 11 11 10 10 9 8 8 8 7 7 7 6 6 6 6 6 6 6 5 5 4 4 3 3 2 2 1 1 2 2
22 22 22 21 20 20 19 18 18 17 16 15 14 13 13 12 11 11 10 9 9 9 9 8 7 7 7 7 7 7 7 7 6 6 5 5 4 4 3 3 3 3 3
23 23 23 23 22 21 21 20 20 19 18 17 16 15 14 14 13 13 12 11 10 10 10 9 9 8 8 8 9 9 9 9 8 8 7 7 6 6 5 5 5 4 4
24 24 24 24 23 23 22 22 21 20 20 19 18 18 17 16 15 15 14 13 12 11 11 11 11 10 10 10 10 10 10 10 10 9 9 8 8 7 7 7 7 7 6
26 25 25 25 24 24 23 23 22 22 21 21 20 19 19 18 17 17 16 16 15 14 13 12 13 12 12 11 11 11 11 11 11 11 10 10 10 9 9 9 9 9 9
27 27 27 26 26 25 25 24 23 23 22 22 22 21 21 20 20 19 19 18 17 16 16 15 14 14 13 13 13 13 13 13 12 12 12 12 12 11 11 11 11 10 10
28 27 27 28 28 27 27 26 25 24 24 23 23 22 22 22 21 21 20 20 19 19 18 17 17 16 16 15 15 15 15 15 15 14 14 14 14 14 13 13 13 13 12
28 28 28 28 29 28 28 27 27 26 26 25 24 24 23 23 23 22 22 22 21 21 20 20 19 19 18 18 17 17 17 17 17 16 16 16 16 16 16 15 15 15 15
29 29 29 29 29 29 29 28 28 28 27 27 27 26 25 24 24 24 23 23 23 22 22 21 21 20 20 20 19 19 19 19 19 18 18 18 18 18 17 17 17 17 17
30 30 30 30 30 30 30 30 29 29 29 29 28 28 27 26 25 25 25 24 24 23 23 23 22 22 22 21 21 20 20 20 20 20 20 20 20 20 20 20 20 20 19
32 31 31 31 31 31 31 31 30 30 30 29 29 29 29 28 27 26 26 25 25 25 24 24 24 23 23 23 23 22 22 21 22 22 22 22 22 22 22 22 22 22 22
34 33 32 32 32 31 32 32 31 31 31 31 30 30 30 29 29 28 28 28 27 27 26 26 26 25 25 25 25 25 24 24 24 24 24 24 24 24 24 24 25 24 25
35 36 34 33 33 32 32 32 32 32 32 32 31 31 31 30 29 29 29 29 28 27 27 27 27 27 26 26 26 26 26 26 25 25 26 26 26 26 26 26 26 27 27
36 36 36 35 34 33 33 33 33 33 33 32 32 32 32 32 31 31 30 30 29 29 28 28 27 27 27 26 26 26 26 26 26 26 26 26 27 27 27 28 28 28 28
37 37 37 36 35 34 34 34 34 34 34 33 33 32 32 32 32 32 31 31 30 30 30 29 29 28 28 28 27 27 26 27 27 28 27 28 28 28 28 29 29 29 29
38 38 37 37 36 36 35 34 35 35 35 34 33 33 32 33 32 32 32 32 31 31 31 31 31 30 29 29 29 29 28 28 29 29 29 29 29 30 30 30 30 30 31
40 39 39 38 37 37 36 35 34 36 35 35 33 33 33 33 33 33 33 33 33 32 32 32 31 31 31 31 31 31 30 29 29 30 30 31 31 31 32 31 32 32 32
41 41 40 38 38 38 36 35 35 35 36 35 34 33 33 34 34 34 34 34 34 34 33 33 33 32 32 33 33 33 32 32 31 31 31 32 32 32 32 32 33 33 33
41 41 41 40 38 38 37 36 36 37 37 36 35 34 34 34 34 34 35 35 35 35 35 35 35 34 34 34 34 34 34 34 34 33 34 34 34 34 33 33 34 34 35
43 42 41 41 40 40 39 37 37 37 38 37 36 36 36 36 35 35 35 36 36 36 36 36 36 35 35 35 35 35 35 35 35 35 35 35 36 36 36 35 36 36 36
44 43 42 42 41 41 41 40 39 38 38 37 37 38 38 38 37 36 36 36 36 36 37 37 37 36 36 36 36 36 36 36 36 35 36 36 36 37 37 37 37 37 37
45 44 44 43 43 43 42 42 40 39 39 39 39 39 39 39 39 38 37 37 37 37 38 38 37 37 37 37 37 37 37 37 38 37 37 37 38 38 38 38 39 39 40
46 45 45 44 43 43 43 42 41 40 40 40 40 39 39 39 39 38 38 38 38 39 39 39 39 38 38 38 38 38 38 38 38 39 39 39 39 40 40 40 40 41 41